     2              OBSERVATION DATA    GPS                 RINEX VERSION / TYPE
ASRINEXO V2.9.7 UX USGS/MENLO_PARK 11-JUN-01 16:28          PGM / RUN BY / DATE
                                                            COMMENT
BIT 2 OF LLI (+4) FLAGS DATA COLLECTED UNDER "AS" CONDITION COMMENT
BIT 2 OF LLI (+4) FLAGS DATA COLLECTED UNDER "AS" CONDITION COMMENT
BIT 2 OF LLI (+4) FLAGS DATA COLLECTED UNDER "AS" CONDITION COMMENT
BIT 2 OF LLI (+4) FLAGS DATA COLLECTED UNDER "AS" CONDITION COMMENT
BIT 2 OF LLI (+4) FLAGS DATA COLLECTED UNDER "AS" CONDITION COMMENT
BIT 2 OF LLI (+4) FLAGS DATA COLLECTED UNDER "AS" CONDITION COMMENT
BIT 2 OF LLI (+4) FLAGS DATA COLLECTED UNDER "AS" CONDITION COMMENT
BIT 2 OF LLI (+4) FLAGS DATA COLLECTED UNDER "AS" CONDITION COMMENT
Original Marker Name: mont Montosa_1944_USC&GS              COMMENT
Campaign Name: USGS-Parkfield                               COMMENT
4-Character Station Name: MONT                              COMMENT
6-Character Antenna Code: DMRCHT                            COMMENT
Vertical Measurement Point: BCR                             COMMENT
Vertical Offset to Rinex Ref. Point: 0.0348                 COMMENT
Radial Measurement Point: ECF                               COMMENT
Radial Offset to Rinex Ref. Point: 0.1897                   COMMENT
Antenna Height from Field Measurement: 1.1860 m             COMMENT
Additional Antenna Identification Info.:                    COMMENT
Turborogue and Ashtech Choke Ring                           COMMENT
Original XYZ: -2639999.0224 -4444929.5188 3723972.8505      COMMENT
New XYZ position is based on association with SCEC monument COMMENT
E1F1N1C4+0011. Position of that monument is believed to be  COMMENT
valid to within 1 m horizontally; vertical accuracy         COMMENT
should be no worse than 3-times this value.                 COMMENT
                                                            COMMENT
Revised Rinex header created by UCSD GPS archive for        COMMENT
GSAC on 18-Oct-2001 (2001:291) 15:17:13 GMT                 COMMENT
For assistance contact dagnew@ucsd.edu                      COMMENT
or anderson@python.ucsd.edu                                 COMMENT
                                                            COMMENT
MONTOSA 1944                                                MARKER NAME
JMS US GEOLOGICAL SURVEY                                    OBSERVER / AGENCY
O4597 ASHTECH Z-XII3 CC00                                   REC # / TYPE / VERS
CR519993703 DORNE-MARGOL. TYPE T                            ANT # / TYPE
 -2639993.4439 -4444918.7120  3723951.4686                  APPROX POSITION XYZ
        1.1359        0.0000        0.0000                  ANTENNA: DELTA H/E/N
     1     1     0                                          WAVELENGTH FACT L1/2
     5    C1    L1    L2    P1    P2                        # / TYPES OF OBSERV
    30                                                      INTERVAL
  2001     6     7     0     0   30.000000                  TIME OF FIRST OBS
  2001     6     7     4    38   30.000000                  TIME OF LAST OBS
                                                            END OF HEADER
 01  6  7  0  0 30.0000000  0  9 21 25 15 14 03 11 31 29 18
  21411546.837   -24418179.663 9 -19008936.13347  21411546.275    21411553.1704
  22599401.396   -14347718.792 8 -10873423.83146  22599401.090    22599410.8394
  24671991.510    -7299391.430 7  -5667079.19045  24671990.954    24672007.0394
  20433577.827   -25808723.310 9 -20083164.25048  20433577.329    20433582.1884
  23963310.493    -6787134.050 8  -5265012.40645  23963310.016    23963323.8204
  22957625.995   -12730264.667 8  -9897558.57346  22957625.577    22957632.8744
  23165936.050    -7771662.605 8  -6016997.05946  23165935.437    23165945.1314
  20278696.723   -24853001.749 9 -19335153.28248  20278696.580    20278702.0584
  24276127.290    -6315480.092 7  -4893043.10545  24276126.698    24276136.0654
 01  6  7  0  1  0.0000000  0  9 21 25 15 14 03 11 31 29 18
  21416681.820   -24391195.049 9 -18987909.16747  21416681.280    21416688.1734
  22582703.001   -14435468.300 8 -10941799.87246  22582702.710    22582712.4404
  24692985.308    -7189070.349 7  -5581115.00145  24692984.671    24693000.8874
  20439840.167   -25775814.437 9 -20057520.95748  20439839.663    20439844.5094
  23980197.733    -6698391.917 8  -5195862.95145  23980197.363    23980211.0774
  22940841.155   -12818469.243 8  -9966289.32346  22940840.707    22940848.0354
  23177752.642    -7709566.474 8  -5968610.54846  23177751.976    23177761.6894
  20281024.941   -24840766.898 9 -19325619.60548  20281024.769    20281030.2474
  24290487.068    -6240019.587 7  -4834242.87545  24290486.387    24290495.9244
 01  6  7  0  1 30.0000000  0  9 21 25 15 14 03 11 31 29 18
  21421852.600   -24364022.442 9 -18966735.71647  21421852.020    21421858.9444
  22566048.649   -14522985.992 8 -11009995.26846  22566048.490    22566058.1924
  24714000.494    -7078635.940 7  -5495062.50945  24713999.892    24714015.7254
  20446177.826   -25742509.810 9 -20031569.28048  20446177.316    20446182.1754
  23997092.482    -6609611.166 8  -5126683.39645  23997092.078    23997105.8344
  22924103.674   -12906425.000 8 -10034826.18846  22924103.193    22924110.5164
  23189632.503    -7647137.710 8  -5919964.84946  23189631.871    23189641.5674
  20283426.791   -24828144.872 9 -19315784.23348  20283426.626    20283432.1004
  24304859.742    -6164490.506 7  -4775389.17445  24304859.025    24304868.7374
 01  6  7  0  2  0.0000000  0  9 21 25 15 14 03 11 31 29 18
  21427059.733   -24336658.636 9 -18945413.27747  21427059.176    21427066.1094
  22549439.575   -14610267.109 8 -11078006.32546  22549439.328    22549448.9574
  24735037.395    -6968087.973 7  -5408921.55945  24735036.598    24735052.4334
  20452590.806   -25708809.240 9 -20005309.08048  20452590.306    20452595.1734
  24013994.288    -6520792.719 8  -5057474.46245  24013993.858    24014007.6864
  22907414.382   -12994127.365 8 -10103165.61346  22907413.938    22907421.1794
  23201575.447    -7584377.154 8  -5871060.59446  23201574.793    23201584.5754
  20285902.523   -24815134.593 9 -19305646.32848  20285902.352    20285907.8104
  24319246.136    -6088890.560 7  -4716480.28745  24319245.616    24319255.1734
 01  6  7  0  2 30.0000000  0  9 21 25 15 14 03 11 31 29 18
  21432303.293   -24309103.485 9 -18923941.74147  21432302.755    21432309.6864
  22532876.002   -14697308.677 8 -11145830.72046  22532875.695    22532885.2474
  24756095.476    -6857428.282 7  -5322693.59645  24756094.552    24756110.9334
  20459078.718   -25674715.035 9 -19978742.14748  20459078.205    20459083.0494
  24030902.811    -6431939.133 8  -4988238.14245  24030902.271    24030916.2754
  22890773.753   -13081574.182 8 -10171305.89946  22890773.297    22890780.5934
  23213581.097    -7521287.496 8  -5821899.91246  23213580.453    23213590.2444
  20288451.879   -24801737.643 9 -19295207.12048  20288451.717    20288457.1384
  24333645.862    -6013219.785 7  -4657516.20245  24333645.248    24333654.9804
 01  6  7  0  3  0.0000000  0  8 21 25 14 03 11 31 29 18
  21437583.776   -24281354.492 9 -18902319.16147  21437583.210    21437590.1644
  22516358.732   -14784106.438 8 -11213465.13646  22516358.480    22516367.9874
  20465641.636   -25640226.729 9 -19951868.12848  20465641.141    20465645.9884
  24047817.640    -6343051.656 8  -4918975.45645  24047817.233    24047831.3034
  22874182.515   -13168761.238 8 -10239243.76946  22874182.074    22874189.3234
  23225649.111    -7457869.945 8  -5772483.72846  23225648.458    23225658.3634
  20291074.907   -24787953.505 9 -19284466.20948  20291074.711    20291080.1574
  24348059.234    -5937476.404 7  -4598495.51645  24348058.730    24348068.6644
 01  6  7  0  3 30.0000000  0  8 21 25 14 03 11 31 29 18
  21442900.902   -24253412.942 9 -18880546.54147  21442900.349    21442907.2864
  22499887.934   -14870659.734 8 -11280909.06846  22499887.752    22499897.2064
  20472278.777   -25605348.251 9 -19924690.07348  20472278.277    20472283.1184
  24064738.019    -6254135.224 8  -4849690.19545  24064737.638    24064751.7674
  22857640.930   -13255687.792 8 -10306978.66446  22857640.415    22857647.6884
  23237778.645    -7394129.296 8  -5722815.78046  23237777.991    23237787.7914
  20293770.951   -24773785.562 9 -19273426.23148  20293770.775    20293776.2444
  24362486.302    -5861662.484 7  -4539419.90745  24362485.662    24362495.3624
 01  6  7  0  4  0.0000000  0  8 21 25 14 03 11 31 29 18
  21448254.282   -24225280.654 9 -18858625.29447  21448253.733    21448260.7274
  22483463.934   -14956968.070 8 -11348162.11846  22483463.652    22483473.0684
  20478989.292   -25570084.021 9 -19897211.44248  20478988.781    20478993.6634
  24081663.155    -6165194.844 8  -4780386.27145  24081662.732    24081676.7994
  22841148.851   -13342353.659 8 -10374510.41646  22841148.353    22841155.6674
  23249968.672    -7330070.520 8  -5672899.94845  23249967.962    23249977.7964
  20296539.302   -24759237.554 9 -19262090.10148  20296539.138    20296544.6034
  24376926.383    -5785780.174 7  -4480290.98945  24376925.826    24376935.3274
 01  6  7  0  4 30.0000000  0  8 21 25 14 03 11 31 29 18
  21453644.305   -24196955.872 9 -18836554.05047  21453643.761    21453650.7164
  22467087.168   -15043027.409 8 -11415221.16046  22467086.959    22467096.2994
  20485773.170   -25534434.326 9 -19869432.44648  20485772.665    20485777.5704
  24098592.271    -6076232.399 8  -4711065.16645  24098591.912    24098606.0964
  22824707.095   -13428755.245 8 -10441836.25046  22824706.605    22824713.8534
  23262218.907    -7265695.313 8  -5622737.54745  23262218.231    23262228.1004
  20299380.039   -24744309.615 9 -19250457.91848  20299379.862    20299385.2974
  24391379.515    -5709828.065 7  -4421107.65345  24391379.029    24391388.8114
 01  6  7  0  5  0.0000000  0  8 21 25 14 03 11 31 29 18
  21459071.146   -24168437.650 9 -18814332.07147  21459070.605    21459077.6064
  22450758.433   -15128834.920 8 -11482083.95846  22450758.234    22450767.5034
  20492630.082   -25498400.817 9 -19841354.37048  20492629.588    20492634.4774
  24115525.150    -5987250.245 8  -4641728.69745  24115524.869    24115539.1294
  22808316.175   -13514889.816 8 -10508954.01946  22808315.702    22808322.8764
  23274528.900    -7201006.155 8  -5572330.49145  23274528.169    23274538.1424
  20302292.811   -24729002.738 9 -19238530.46248  20302292.615    20302298.0414
  24405846.414    -5633805.741 7  -4361869.60345  24405845.884    24405855.6314
 01  6  7  0  5 30.0000000  0  8 21 25 14 03 11 31 29 18
  21464534.880   -24139725.466 9 -18791958.95547  21464534.352    21464541.3494
  22434478.167   -15214387.800 8 -11548748.34446  22434477.914    22434487.1284
  20499559.666   -25461985.690 9 -19812978.92748  20499559.171    20499564.0414
  24132461.371    -5898251.154 8  -4572379.04245  24132461.085    24132475.4234
  22791976.525   -13600754.976 8 -10575861.83846  22791976.033    22791983.2624
  23286898.055    -7136006.253 8  -5521681.31645  23286897.336    23286907.2504
  20305277.411   -24713318.444 9 -19226308.91348  20305277.209    20305282.6464
  24420326.415    -5557713.471 7  -4302577.04945  24420325.930    24420335.6934
 01  6  7  0  6  0.0000000  0  8 21 25 14 03 11 31 29 18
  21470035.644   -24110818.654 9 -18769434.18047  21470035.104    21470042.1344
  22418246.723   -15299683.718 8 -11615212.50746  22418246.491    22418255.6654
  20506561.519   -25425190.669 9 -19784307.46948  20506561.003    20506565.8904
  24149400.164    -5809238.062 8  -4503018.49545  24149399.897    24149414.3424
  22775688.559   -13686348.388 8 -10642557.89746  22775688.059    22775695.2864
  23299325.762    -7070698.419 8  -5470792.19445  23299325.143    23299334.9714
  20308333.526   -24697258.274 9 -19213794.47448  20308333.343    20308338.7654
  24434819.735    -5481551.329 8  -4243230.07945  24434819.257    24434829.0194
 01  6  7  0  6 30.0000000  0  8 21 25 14 03 11 31 29 18
  21475573.799   -24081715.578 9 -18746756.47847  21475573.260    21475580.2774
  22402064.921   -15384718.800 8 -11681473.42046  22402064.694    22402073.8314
  20513635.495   -25388016.738 9 -19755340.75548  20513634.966    20513639.8674
  24166341.255    -5720213.029 8  -4433648.62645  24166340.910    24166355.5694
  22759452.889   -13771666.591 8 -10709039.52646  22759452.459    22759459.6744
  23311811.706    -7005084.698 8  -5419664.70945  23311811.049    23311820.9624
  20311461.112   -24680822.665 9 -19200987.48448  20311460.938    20311466.3394
  24449326.566    -5405318.253 7  -4183827.81745  24449326.023    24449335.8374
 01  6  7  0  7  0.0000000  0  8 21 25 14 03 11 31 29 18
  21481149.311   -24052416.262 9 -18723925.85647  21481148.770    21481155.7934
  22385933.128   -15469490.852 8 -11747529.37546  22385932.951    22385942.0494
  20520781.133   -25350465.905 9 -19726080.35048  20520780.619    20520785.5164
  24183284.090    -5631179.176 8  -4364271.89045  24183283.670    24183298.3584
  22743270.169   -13856707.356 8 -10775304.97546  22743269.713    22743276.8864
  23324355.310    -6939168.116 8  -5368301.23845  23324354.655    23324364.5284
  20314659.817   -24664013.341 9 -19187889.28648  20314659.644    20314665.0064
  24463846.620    -5329014.541 7  -4124370.49345  24463846.201    24463856.2814
 01  6  7  0  7 30.0000000  0  8 21 25 14 03 11 31 29 18
  21486762.160   -24022920.784 9 -18700942.38947  21486761.604    21486768.6074
  22369851.904   -15553997.612 8 -11813378.61246  22369851.754    22369860.7924
  20527998.003   -25312541.087 9 -19696528.52848  20527997.463    20528002.3444
  24200227.854    -5542140.103 8  -4294891.09945  24200227.471    24200242.1784
  22727140.488   -13941468.963 8 -10841352.89546  22727140.018    22727147.1414
  23336955.767    -6872952.672 8  -5316704.89145  23336955.153    23336965.0274
  20317929.237   -24646832.490 9 -19174501.59148  20317929.040    20317934.4304
  24478380.249    -5252640.722 7  -4064858.57145  24478379.820    24478389.8144
 01  6  7  0  8  0.0000000  0  8 21 25 14 03 11 31 29 18
  21492412.455   -23993228.424 9 -18677805.50147  21492411.903    21492418.9284
  22353821.612   -15638236.784 8 -11879019.33646  22353821.422    22353830.4164
  20535285.653   -25274243.980 9 -19666686.61248  20535285.128    20535290.0064
  24217172.186    -5453098.548 8  -4225508.36045  24217171.740    24217186.5204
  22711064.431   -14025948.922 8 -10907181.33646  22711063.988    22711071.1334
  23349612.636    -6806440.815 8  -5264877.57345  23349612.020    23349621.9624
  20321269.047   -24629281.506 9 -19160825.48048  20321268.848    20321274.2314
  24492927.191    -5176196.919 7  -4005292.10945  24492926.650    24492936.6964
 01  6  7  0  8 30.0000000  0  8 21 25 14 03 11 31 29 18
  21498100.455   -23963337.881 9 -18654514.18347  21498099.905    21498106.9014
  22337842.923   -15722204.918 8 -11944448.86746  22337842.714    22337851.6684
  20542643.844   -25235576.293 9 -19636555.93548  20542643.314    20542648.2204
  24234116.472    -5364056.953 8  -4156125.61045  24234116.110    24234130.8694
  22695042.411   -14110144.685 8 -10972788.32446  22695041.990    22695049.1274
  23362325.285    -6739635.361 8  -5212821.47645  23362324.749    23362334.6684
  20324679.026   -24611361.744 9 -19146862.00848  20324678.828    20324684.2214
  24507487.369    -5099682.869 7  -3945670.91345  24507487.080    24507497.0854
 01  6  7  0  9  0.0000000  0  8 21 25 14 03 11 31 29 18
  21503826.262   -23933248.468 9 -18631067.90247  21503825.701    21503832.7184
  22321916.275   -15805899.060 8 -12009664.89746  22321916.089    22321925.0034
  20550072.310   -25196539.171 9 -19606137.39048  20550071.811    20550076.7134
  24251060.421    -5275017.402 8  -4086744.45045  24251059.940    24251074.8504
  22679075.165   -14194052.962 8 -11038171.30346  22679074.724    22679081.7914
  23375093.619    -6672538.253 8  -5160538.11445  23375092.989    23375102.8634
  20328159.069   -24593073.771 9 -19132611.62448  20328158.899    20328164.2894
  24522061.105    -5023097.675 7  -3885994.26345  24522060.790    24522070.7634
 01  6  7  0  9 30.0000000  0  8 21 25 14 03 11 31 29 18
  21509589.774   -23902961.102 9 -18607467.37647  21509589.231    21509596.2694
  22306041.996   -15889318.476 8 -12074666.86246  22306041.769    22306050.6094
  20557570.405   -25157136.384 9 -19575433.91348  20557569.901    20557574.7964
  24268003.021    -5185984.473 8  -4017368.44745  24268002.522    24268017.3964
  22663162.692   -14277673.048 8 -11103329.74346  22663162.270    22663169.2614
  23387916.405    -6605154.497 8  -5108031.39545  23387915.803    23387925.7304
  20331708.563   -24574420.850 9 -19118076.86548  20331708.401    20331713.8024
  24536648.095    -4946443.218 7  -3826263.64845  24536647.852    24536657.8304
 01  6  7  0 10  0.0000000  0  8 21 25 14 03 11 31 29 18
  21515391.354   -23872473.629 9 -18583710.91547  21515390.825    21515397.8404
  22290220.826   -15972458.840 8 -12139451.37646  22290220.542    22290229.3074
  20565138.105   -25117368.006 9 -19544445.55248  20565137.611    20565142.4714
  24284944.103    -5096959.593 7  -3947998.71945  24284943.613    24284958.7034
  22647305.964   -14361000.670 8 -11168260.25246  22647305.506    22647312.4274
  23400793.505    -6537485.170 8  -5055302.15245  23400792.908    23400802.8974
  20335327.541   -24555402.889 9 -19103257.65248  20335327.376    20335332.7764
  24551248.648    -4869717.878 8  -3766477.79845  24551248.314    24551258.2924
 01  6  7  0 10 30.0000000  0  8 21 25 14 03 11 31 29 18
  21521231.019   -23841785.675 9 -18559798.23647  21521230.532    21521237.5574
  22274453.072   -16055317.758 8 -12204016.59146  22274452.868    22274461.5664
  20572774.828   -25077236.578 9 -19513174.30148  20572774.345    20572779.2194
  24301882.964    -5007945.752 7  -3878637.61045  24301882.645    24301897.9374
  22631505.158   -14444033.860 8 -11232961.35146  22631504.685    22631511.6634
  23413724.303    -6469533.790 8  -5002353.13145  23413723.656    23413733.6774
  20339015.658   -24536021.642 9 -19088155.36548  20339015.492    20339020.8884
  24565862.627    -4792921.887 7  -3706636.89345  24565862.157    24565872.1024
 01  6  7  0 11  0.0000000  0  8 21 25 14 03 11 31 29 18
  21527108.993   -23810897.052 9 -18535729.19947  21527108.463    21527115.4904
  22258739.339   -16137893.186 8 -12268360.91146  22258739.136    22258747.8104
  20580480.187   -25036744.449 9 -19481621.98248  20580479.690    20580484.6084
  24318819.192    -4918946.005 8  -3809287.47345  24318818.991    24318834.2554
  22615760.761   -14526770.877 8 -11297431.66246  22615760.285    22615767.2854
  23426708.073    -6401303.833 8  -4949187.03445  23426707.388    23426717.4864
  20342772.555   -24516279.065 9 -19072771.52348  20342772.362    20342777.7684
  24580489.732    -4716055.836 7  -3646741.40245  24580489.202    24580499.4394
 01  6  7  0 11 30.0000000  0  8 21 25 14 03 11 31 29 18
  21533025.240   -23779806.993 9 -18511503.19447  21533024.727    21533031.7504
  22243080.227   -16220181.786 8 -12332481.72946  22243079.987    22243088.6594
  20588253.896   -24995893.124 9 -19449789.77748  20588253.419    20588258.3924
  24335752.457    -4829962.959 7  -3739950.36345  24335752.169    24335767.5254
  22600073.399   -14609208.596 8 -11361668.76146  22600072.876    22600079.7924
  23439744.449    -6332797.747 8  -4895805.78345  23439743.723    23439753.9114
  20346597.978   -24496176.383 9 -19057107.07848  20346597.803    20346603.1814
  24595130.491    -4639119.092 7  -3586790.83145  24595130.015    24595140.0264
 01  6  7  0 12  0.0000000  0  8 21 25 14 03 11 31 29 18
  21538979.871   -23748515.225 9 -18487120.00947  21538979.325    21538986.3694
  22227476.100   -16302181.493 8 -12396377.43346  22227475.809    22227484.4344
  20596095.550   -24954684.773 9 -19417679.36348  20596095.090    20596100.0534
  24352681.898    -4740999.559 7  -3670628.57545  24352681.539    24352696.9214
  22584443.294   -14691344.808 8 -11425670.92446  22584442.806    22584449.7154
  23452832.804    -6264018.717 8  -4842211.85445  23452832.102    23452842.2584
  20350491.572   -24475715.354 9 -19041163.40348  20350491.388    20350496.7764
  24609784.624    -4562111.843 7  -3526785.33445  24609784.330    24609794.1444
 01  6  7  0 12 30.0000000  0  8 21 25 14 03 11 31 29 18
  21544973.115   -23717020.361 9 -18462578.56747  21544972.626    21544979.6674
  22211927.461   -16383889.481 8 -12460045.82946  22211927.163    22211935.7554
  20604004.946   -24913120.849 9 -19385291.88348  20604004.455    20604009.3904
  24369607.252    -4652058.040 7  -3601323.83545  24369606.791    24369622.3254
  22568871.198   -14773176.474 8 -11489435.77546  22568870.666    22568877.5834
  23465972.534    -6194969.135 8  -4788407.08245  23465971.875    23465982.1284
  20354453.186   -24454896.796 9 -19024941.13148  20354452.996    20354458.4034
  24624452.092    -4485033.932 7  -3466724.75445  24624451.726    24624461.8354
 01  6  7  0 13  0.0000000  0  8 21 25 14 03 11 31 29 18
  21551005.180   -23685321.778 9 -18437878.38747  21551004.660    21551011.7034
  22196435.011   -16465301.811 8 -12523483.85147  22196434.778    22196443.3354
  20611981.720   -24871202.855 9 -19352628.50348  20611981.192    20611986.0974
  24386527.952    -4563140.830 7  -3532038.03345  24386527.457    24386542.8744
  22553357.500   -14854700.830 8 -11552961.15846  22553357.066    22553363.9534
  23479163.261    -6125651.605 8  -4734393.53345  23479162.604    23479172.9174
  20358482.605   -24433721.802 9 -19008441.12248  20358482.416    20358487.8074
  24639133.253    -4407884.665 7  -3406608.59345  24639133.103    24639142.9524
 01  6  7  0 13 30.0000000  0  8 21 25 14 03 11 31 29 18
  21557075.668   -23653421.111 9 -18413020.73847  21557075.148    21557082.2224
  22180998.815   -16546418.996 8 -12586691.89147  22180998.575    22181007.1114
  20620024.915   -24828935.429 9 -19319692.83948  20620024.404    20620029.2934
  24403442.803    -4474253.306 7  -3462775.36045  24403442.398    24403457.8194
  22537902.366   -14935918.246 8 -11616247.38546  22537901.925    22537908.6894
  23492404.006    -6056071.731 8  -4680175.57645  23492403.378    23492413.5804
  20362579.077   -24412194.653 9 -18991666.70748  20362578.880    20362584.2834
  24653827.461    -4330666.587 7  -3346438.80045  24653827.360    24653837.0074
 01  6  7  0 14  0.0000000  0  8 21 25 14 03 11 31 29 18
  21563185.121   -23621315.749 9 -18388003.58447  21563184.638    21563191.6924
  22165619.646   -16627236.730 8 -12649666.59647  22165619.331    22165627.8484
  20628134.609   -24786318.442 9 -19286484.79348  20628134.130    20628139.0304
  24420351.995    -4385396.161 7  -3393536.38245  24420351.631    24420366.9844
  22522506.372   -15016823.990 8 -11679290.73546  22522505.964    22522512.6684
  23505694.520    -5986230.489 8  -4625753.94645  23505693.827    23505704.0204
  20366742.679   -24390314.820 9 -18974617.47248  20366742.488    20366747.8874
  24668535.175    -4253377.635 7  -3286213.81245  24668534.878    24668545.0114
 01  6  7  0 14 30.0000000  0  7 21 25 14 03 11 31 29
  21569333.927   -23589003.771 9 -18362825.43147  21569333.441    21569340.4344
  22150298.189   -16707750.805 8 -12712404.68147  22150297.898    22150306.3434
  20636310.832   -24743351.872 9 -19253004.34548  20636310.370    20636315.2884
  24437255.341    -4296570.327 7  -3324321.79145  24437254.920    24437270.3344
  22507170.600   -15097413.936 8 -11742088.02446  22507170.091    22507176.8284
  23519034.429    -5916129.155 8  -4571129.65645  23519033.702    23519044.0154
  20370973.431   -24368082.037 9 -18957293.21148  20370973.229    20370978.6304
 01  6  7  0 15  0.0000000  0  7 21 25 14 03 11 31 29
  21575522.037   -23556485.120 9 -18337486.23747  21575521.527    21575528.5574
  22135034.835   -16787959.438 8 -12774904.76347  22135034.585    22135042.9574
  20644552.990   -24700038.986 9 -19219254.03848  20644552.524    20644557.4614
  24454151.811    -4207779.824 7  -3255134.73845  24454151.363    24454166.9714
  22491895.144   -15177686.682 8 -11804638.13146  22491894.636    22491901.3494
  23532423.000    -5845771.838 8  -4516305.90645  23532422.353    23532432.5944
  20375270.837   -24345498.995 9 -18939696.01948  20375270.624    20375276.0434
 01  6  7  0 15 30.0000000  0  7 21 25 14 03 11 31 29
  21581749.077   -23523761.639 9 -18311987.43347  21581748.596    21581755.6354
  22119829.712   -16867862.253 8 -12837166.55447  22119829.481    22119837.8154
  20652860.284   -24656383.960 9 -19185237.13448  20652859.823    20652864.7114
  24471040.551    -4119029.388 7  -3185978.90445  24471040.191    24471055.9534
  22476680.089   -15257641.897 8 -11866940.83146  22476679.609    22476686.2434
  23545859.473    -5775163.498 8  -4461286.56645  23545858.861    23545869.0304
  20379634.166   -24322569.330 9 -18921828.73348  20379633.963    20379639.3804
 01  6  7  0 16  0.0000000  0  7 21 25 14 03 11 31 29
  21588015.420   -23490831.799 9 -18286327.82847  21588014.938    21588021.9634
  22104683.442   -16947455.745 8 -12899187.30947  22104683.217    22104691.5364
  20661232.504   -24612387.793 9 -19150954.39848  20661232.027    20661236.8944
  24487921.520    -4030320.939 7  -3116855.79345  24487921.124    24487936.8364
  22461525.997   -15337276.667 8 -11928993.80746  22461525.540    22461532.2764
  23559343.299    -5704306.285 8  -4406073.29145  23559342.586    23559352.7964
  20384063.331   -24299293.788 9 -18903691.93048  20384063.147    20384068.5864
 01  6  7  0 16 30.0000000  0  7 21 25 14 03 11 31 29
  21594321.267   -23457694.590 9 -18260506.64247  21594320.763    21594327.7894
  22089596.539   -17026737.207 8 -12960964.93647  22089596.331    22089604.6344
  20669669.324   -24568052.074 9 -19116407.08548  20669668.826    20669673.6914
  24504794.214    -3941656.746 7  -3047767.16945  24504793.594    24504809.4334
  22446433.522   -15416587.906 8 -11990794.69046  22446433.068    22446439.7414
  23572873.826    -5633202.866 8  -4350668.16945  23572873.100    23572883.4984
  20388558.066   -24275673.495 9 -18885286.49048  20388557.895    20388563.3244
 01  6  7  0 17  0.0000000  0  7 21 25 14 03 11 31 29
  21600666.491   -23424350.571 9 -18234524.30647  21600665.980    21600672.9764
  22074569.401   -17105705.103 9 -13022498.21547  22074569.174    22074577.4024
  20678170.185   -24523379.937 9 -19081597.61948  20678169.671    20678174.5094
  24521657.575    -3853040.655 7  -2978716.03245  24521656.830    24521672.9424
  22431402.872   -15495574.129 8 -12052342.32346  22431402.424    22431409.0504
  23586450.491    -5561857.513 8  -4295074.51745  23586449.780    23586460.2424
  20393117.935   -24251711.231 9 -18866614.57848  20393117.768    20393123.1764
 01  6  7  0 17 30.0000000  0  7 21 25 14 03 11 31 29
  21607051.449   -23390797.558 9 -18208379.11147  21607050.910    21607057.9084
  22059602.686   -17184355.163 8 -13083783.83347  22059602.445    22059610.6294
  20686734.967   -24478371.874 9 -19046526.39848  20686734.442    20686739.2784
  24538511.421    -3764473.779 7  -2909703.24345  24538510.842    24538526.7644
  22416434.807   -15574231.509 8 -12113633.70046  22416434.356    22416441.0064
  23600072.996    -5490271.527 8  -4239293.36845  23600072.269    23600082.7284
  20397742.886   -24227406.815 9 -18847676.05248  20397742.726    20397748.1364
 01  6  7  0 18  0.0000000  0  7 21 25 14 03 11 31 29
  21613476.270   -23357034.867 9 -18182070.52547  21613475.732    21613482.7344
  22044696.947   -17262684.782 8 -13144819.75447  22044696.694    22044704.8374
  20695363.324   -24433029.679 9 -19011194.81248  20695362.778    20695367.5994
  24555355.517    -3675958.698 7  -2840730.80445  24555355.020    24555371.1264
  22401529.796   -15652557.560 8 -12174666.89346  22401529.364    22401536.0174
  23613740.701    -5418447.942 8  -4183327.07545  23613739.978    23613750.4574
  20402432.680   -24202761.714 9 -18828472.06348  20402432.510    20402437.9264
 01  6  7  0 18 30.0000000  0  7 21 25 14 03 11 31 29
  21619941.026   -23323062.483 9 -18155598.55647  21619940.487    21619947.4734
  22029852.484   -17340692.181 9 -13205604.59347  22029852.261    22029860.3654
  20704054.830   -24387355.421 9 -18975604.48247  20704054.291    20704059.0974
  24572189.343    -3587498.444 7  -2771801.09645  24572188.717    24572204.9244
  22386688.296   -15730549.833 8 -12235440.02746  22386687.889    22386694.4994
  23627452.961    -5346389.957 8  -4127178.12445  23627452.275    23627462.7634
  20407186.961   -24177777.840 9 -18809004.09348  20407186.799    20407192.1834
 01  6  7  0 19  0.0000000  0  7 21 25 14 03 11 31 29
  21626445.739   -23288879.933 9 -18128962.81147  21626445.174    21626452.2014
  22015069.913   -17418374.756 9 -13266136.33047  22015069.714    22015077.7334
  20712809.026   -24341351.694 9 -18939757.42047  20712808.501    20712813.3344
  24589011.935    -3499096.194 7  -2702916.57545  24589011.321    24589027.7394
  22371910.669   -15808206.698 8 -12295951.78746  22371910.189    22371916.7704
  23641209.054    -5274101.105 8  -4070849.28445  23641208.402    23641219.0384
  20412005.359   -24152457.060 9 -18789273.59948  20412005.183    20412010.5754
 01  6  7  0 19 30.0000000  0  7 21 25 14 03 11 31 29
  21632990.702   -23254486.052 9 -18102162.40047  21632990.163    21632997.1654
  22000349.582   -17495730.058 9 -13326413.04547  22000349.385    22000357.3464
  20721625.577   -24295020.161 9 -18903654.92347  20721625.068    20721629.8924
  24605822.987    -3410754.482 7  -2634079.24745  24605822.513    24605839.0304
  22357197.344   -15885525.168 8 -12356199.85946  22357196.905    22357203.5384
  23655008.638    -5201584.008 8  -4014342.58645  23655008.009    23655018.6764
  20416887.490   -24126800.828 9 -18769281.71447  20416887.353    20416892.7714
 01  6  7  0 20  0.0000000  0  7 21 25 14 03 11 31 29
  21639575.891   -23219880.654 9 -18075197.17647  21639575.384    21639582.3704
  21985691.941   -17572755.876 9 -13386433.03047  21985691.743    21985699.6674
  20730504.110   -24248363.084 9 -18867298.76047  20730503.601    20730508.4624
  24622622.163    -3322476.015 7  -2565291.19545  24622621.583    24622638.1524
  22342548.856   -15962503.296 8 -12416182.72746  22342548.396    22342555.0174
  23668851.104    -5128842.116 8  -3957660.74945  23668850.546    23668861.1734
  20421833.153   -24100811.067 9 -18749029.93847  20421833.019    20421838.4574
 01  6  7  0 20 30.0000000  0  7 21 25 14 03 11 31 29
  21646201.376   -23185063.536 9 -18048066.97247  21646200.877    21646207.8714
  21971097.553   -17649449.710 9 -13446194.32247  21971097.256    21971105.1524
  20739444.164   -24201382.510 9 -18830690.52047  20739443.682    20739448.5784
  24639408.640    -3234263.447 7  -2496554.48845  24639408.292    24639424.9894
  22327965.610   -16039138.761 8 -12475898.59946  22327965.141    22327971.6804
  23682735.863    -5055878.413 8  -3900806.05645  23682735.323    23682745.8824
  20426842.014   -24074489.247 9 -18728519.41347  20426841.902    20426847.3174
 01  6  7  0 21  0.0000000  0  7 21 25 14 03 11 31 29
  21652867.547   -23150032.826 9 -18020770.32847  21652867.012    21652874.0194
  21956566.933   -17725808.074 9 -13505694.20947  21956566.636    21956574.4954
  20748445.632   -24154079.411 9 -18793830.96147  20748445.140    20748450.0434
  24656182.351    -3146118.462 7  -2427870.45045  24656181.980    24656198.7584
  22313448.142   -16115428.044 8 -12535344.70946  22313447.682    22313454.2104
  23696662.167    -4982694.908 8  -3843780.08945  23696661.702    23696672.4384
  20431913.975   -24047836.141 9 -18707750.73947  20431913.820    20431919.2194
 01  6  7  0 21 30.0000000  0  7 21 25 14 03 11 31 29
  21659574.281   -23114788.909 9 -17993307.55847  21659573.749    21659580.7254
  21942100.336   -17801829.683 9 -13564931.69147  21942100.091    21942107.9424
  20757507.939   -24106456.769 9 -18756722.40947  20757507.466    20757512.3744
  24672942.412    -3058044.877 8  -2359242.03645  24672942.207    24672959.0124
  22298996.931   -16191369.716 8 -12594519.96946  22298996.456    22299002.9454
  23710629.695    -4909295.620 8  -3786585.97445  23710629.203    23710639.9444
  20437048.438   -24020854.241 9 -18686725.86947  20437048.286    20437053.6884
 01  6  7  0 22  0.0000000  0  7 21 25 14 03 11 31 29
  21666321.654   -23079331.352 9 -17965678.31347  21666321.118    21666328.0934
  21927698.348   -17877512.098 9 -13623904.86447  21927698.121    21927705.9354
  20766630.637   -24058516.758 9 -18719366.55647  20766630.141    20766635.0354
  24689688.444    -2970045.458 7  -2290671.41045  24689688.254    24689704.9844
  22284612.187   -16266961.609 8 -12653422.66146  22284611.715    22284618.1914
  23724637.670    -4835683.845 8  -3729226.28645  23724637.115    23724647.8854
  20442245.108   -23993545.329 9 -18665446.18147  20442244.958    20442250.3984
 01  6  7  0 22 30.0000000  0  7 21 25 14 03 11 31 29
  21673109.845   -23043659.483 9 -17937882.07147  21673109.269    21673116.2444
  21913361.462   -17952852.446 9 -13682611.49747  21913361.206    21913368.9944
  20775813.428   -24010260.759 9 -18681764.47947  20775812.944    20775817.8334
  24706419.963    -2882122.617 7  -2222160.46445  24706419.721    24706436.6504
  22270294.530   -16342200.852 8 -12712050.56646  22270294.076    22270300.5914
  23738685.614    -4761862.052 8  -3671702.95445  23738685.020    23738695.8234
  20447503.822   -23965910.562 9 -18643912.58447  20447503.668    20447509.1214
 01  6  7  0 23  0.0000000  0  7 21 25 14 03 11 31 29
  21679938.913   -23007772.376 9 -17909918.11947  21679938.371    21679945.3524
  21899089.915   -18027848.932 9 -13741050.17747  21899089.716    21899097.4524
  20785055.903   -23961691.222 9 -18643918.08547  20785055.416    20785060.2914
  24723136.277    -2794279.141 7  -2153711.35145  24723136.007    24723153.2414
  22256044.399   -16417085.387 8 -12770402.07346  22256043.962    22256050.4354
  23752772.922    -4687833.629 8  -3614018.61845  23752772.358    23752783.1234
  20452824.216   -23937951.666 9 -18622126.41747  20452824.055    20452829.4954
 01  6  7  0 23 30.0000000  0  7 21 25 14 03 11 31 29
  21686809.051   -22971669.486 9 -17881786.02847  21686808.535    21686815.5344
  21884884.594   -18102497.896 9 -13799218.05947  21884884.400    21884892.0974
  20794357.760   -23912809.519 9 -18605828.44647  20794357.296    20794362.1564
  24739837.229    -2706516.762 7  -2085325.42845  24739836.996    24739854.2484
  22241862.359   -16491612.297 8 -12828474.92946  22241861.929    22241868.3894
  23766898.992    -4613601.046 8  -3556175.18345  23766898.388    23766909.2694
  20458206.049   -23909670.005 9 -18600088.74047  20458205.889    20458211.2944
 01  6  7  0 24  0.0000000  0  6 21 25 14 11 31 29
  21693721.885   -22935342.295 9 -17853479.14847  21693721.369    21693728.4004
  21870747.280   -18176789.506 9 -13857107.49347  21870747.087    21870754.7444
  20803720.132   -23863609.935 9 -18567491.10647  20803719.654    20803724.4914
  22227750.342   -16565771.273 8 -12886261.07746  22227749.909    22227756.3064
  23781064.791    -4539159.695 8  -3498169.08945  23781064.202    23781075.1084
  20463650.535   -23881059.122 9 -18577794.53147  20463650.380    20463655.7374
 01  6  7  0 24 30.0000000  0  6 21 25 14 11 31 29
  21700676.915   -22898793.288 9 -17824999.43647  21700676.404    21700683.4414
  21856677.679   -18250724.892 9 -13914719.34947  21856677.527    21856685.1774
  20813142.038   -23814097.688 9 -18528910.13547  20813141.552    20813146.3944
  22213708.119   -16639563.393 8 -12943761.36046  22213707.680    22213714.0964
  23795269.130    -4464515.962 8  -3440005.30045  23795268.518    23795279.4974
  20469156.691   -23852124.183 9 -18555247.81347  20469156.518    20469161.8604
 01  6  7  0 25  0.0000000  0  6 21 25 14 11 31 29
  21707672.340   -22862032.391 8 -17796354.61547  21707671.762    21707678.8354
  21842674.545   -18324311.655 9 -13972059.54847  21842674.362    21842681.9734
  20822621.034   -23764285.249 9 -18490095.25047  20822620.560    20822625.3834
  22199734.278   -16712996.471 8 -13000981.88246  22199733.785    22199740.1574
  23809509.563    -4389682.981 8  -3381694.03845  23809508.980    23809520.0134
  20474722.285   -23822876.926 9 -18532457.72747  20474722.105    20474727.4404
 01  6  7  0 25 30.0000000  0  6 21 25 14 11 31 29
  21714708.692   -22825056.097 8 -17767541.95047  21714708.140    21714715.2584
  21828738.666   -18397544.916 9 -14029124.29647  21828738.409    21828745.9794
  20832157.340   -23714171.793 9 -18451045.80247  20832156.828    20832161.6674
  22185829.612   -16786065.529 8 -13057918.75746  22185829.140    22185835.5174
  23823785.741    -4314661.285 8  -3323235.72545  23823785.206    23823796.3354
  20480347.391   -23793316.499 9 -18509423.61747  20480347.211    20480352.5554
 01  6  7  0 26  0.0000000  0  6 21 25 14 11 31 29
  21721786.304   -22787862.891 8 -17738560.25947  21721785.741    21721792.9034
  21814870.674   -18470421.063 9 -14085910.76947  21814870.440    21814877.9694
  20841750.766   -23663757.916 9 -18411762.26247  20841750.247    20841755.1304
  22171994.916   -16858767.137 8 -13114569.29546  22171994.458    22172000.8074
  23838097.657    -4239452.368 8  -3264631.53345  23838097.068    23838108.0834
  20486032.115   -23763442.954 9 -18486145.51647  20486031.955    20486037.2764
 01  6  7  0 26 30.0000000  0  6 21 25 14 11 31 29
  21728905.583   -22750450.869 9 -17709408.07147  21728905.062    21728912.2354
  21801071.330   -18542936.500 9 -14142416.17447  21801071.103    21801078.6154
  20851401.152   -23613044.705 9 -18372245.47347  20851400.656    20851405.5364
  22158230.871   -16931097.434 8 -13170930.51546  22158230.427    22158236.7294
  23852444.752    -4164058.534 8  -3205883.25745  23852444.166    23852455.1844
  20491776.286   -23733257.029 9 -18462624.00447  20491776.119    20491781.4544
 01  6  7  0 27  0.0000000  0  6 21 25 14 11 31 29
  21736066.569   -22712819.610 8 -17680085.04547  21736066.044    21736073.2434
  21787341.005   -18615089.376 9 -14198639.07047  21787340.748    21787348.2414
  20861108.071   -23562034.511 9 -18332497.27147  20861107.576    20861112.4694
  22144537.844   -17003054.594 8 -13227000.97246  22144537.356    22144543.6444
  23866826.499    -4088483.045 8  -3146993.42745  23866825.930    23866836.8064
  20497579.584   -23702760.536 9 -18438860.49047  20497579.411    20497584.7304
 01  6  7  0 27 30.0000000  0  6 21 25 14 11 31 29
  21743269.515   -22674968.034 8 -17650590.34147  21743268.988    21743276.1874
  21773680.323   -18686876.181 9 -14254576.71147  21773680.095    21773687.5524
  20870871.307   -23510728.245 9 -18292518.36247  20870870.827    20870875.7194
  22130916.514   -17074635.005 8 -13282777.86746  22130916.046    22130922.2754
  23881242.364    -4012727.885 8  -3087963.59545  23881241.689    23881252.6404
  20503441.857   -23671954.249 9 -18414855.57847  20503441.673    20503446.9834
 01  6  7  0 28  0.0000000  0  6 21 25 14 11 31 29
  21750514.418   -22636895.933 8 -17620923.79847  21750513.902    21750521.1164
  21760089.585   -18758295.472 9 -14310227.97447  21760089.364    21760096.7774
  20880690.466   -23459128.402 9 -18252310.69247  20880689.979    20880694.8814
  22117367.115   -17145837.352 8 -13338260.15646  22117366.636    22117372.9224
  23895691.615    -3936796.888 8  -3028796.74245  23895690.958    23895702.0014
  20509362.581   -23640840.400 9 -18390611.00547  20509362.404    20509367.7254
 01  6  7  0 28 30.0000000  0  6 21 25 14 11 31 29
  21757801.419   -22598602.444 8 -17591084.74247  21757800.908    21757808.1394
  21746569.318   -18829344.565 9 -14365590.77947  21746569.093    21746576.4444
  20890565.128   -23407236.510 9 -18211875.45247  20890564.663    20890569.5834
  22103890.209   -17216658.607 8 -13393445.48946  22103889.735    22103896.0194
  23910173.945    -3860692.564 8  -2969494.85545  23910173.331    23910184.4424
  20515341.596   -23609420.385 9 -18366127.86547  20515341.405    20515346.7684
 01  6  7  0 29  0.0000000  0  6 21 25 14 11 31 29
  21765130.869   -22560086.125 8 -17561072.05447  21765130.344    21765137.5814
  21733120.129   -18900020.130 9 -14420662.51847  21733119.894    21733127.2164
  20900495.184   -23355053.729 9 -18171213.54547  20900494.689    20900499.6404
  22090486.427   -17287095.578 8 -13448331.38546  22090485.995    22090492.2194
  23924688.842    -3784416.896 8  -2910059.44345  23924688.213    23924699.3094
  20521378.796   -23577694.583 9 -18341406.44947  20521378.615    20521383.9584
 01  6  7  0 29 30.0000000  0  6 21 25 14 11 31 29
  21772502.592   -22521347.758 9 -17530886.35047  21772502.060    21772509.2904
  21719742.119   -18970321.214 9 -14475442.46147  21719741.916    21719749.2144
  20910479.869   -23302583.751 9 -18130327.84747  20910479.386    20910484.3534
  22077155.879   -17357147.808 8 -13502917.48646  22077155.454    22077161.6454
  23939235.570    -3707974.697 8  -2850494.28645  23939234.952    23939245.8954
  20527473.597   -23545666.273 9 -18316449.31247  20527473.416    20527478.7174
 01  6  7  0 30  0.0000000  0  6 21 25 14 11 31 29
  21779916.819   -22482385.538 8 -17500526.19647  21779916.328    21779923.5784
  21706436.029   -19040244.499 9 -14529928.01647  21706435.867    21706443.1574
  20920519.104   -23249827.277 9 -18089218.90747  20920518.606    20920523.5774
  22063899.294   -17426811.398 8 -13557200.74446  22063898.871    22063905.0504
  23953813.533    -3631367.676 8  -2790800.68345  23953812.960    23953823.9354
  20533625.868   -23513335.845 9 -18291256.75647  20533625.677    20533630.9874
 01  6  7  0 30 30.0000000  0  6 21 25 14 11 31 29
  21787373.869   -22443199.049 8 -17469991.30047  21787373.325    21787380.5804
  21693202.303   -19109787.957 9 -14584117.60747  21693202.099    21693209.3594
  20930612.462   -23196786.406 9 -18047888.35747  20930611.969    20930616.9454
  22050717.068   -17496084.179 8 -13611179.47746  22050716.646    22050722.8504
  23968422.105    -3554599.184 8  -2730981.23845  23968421.586    23968432.5734
  20539835.279   -23480705.106 9 -18265830.19847  20539835.078    20539840.4024
 01  6  7  0 31  0.0000000  0  6 21 25 14 11 31 29
  21794873.434   -22403788.315 8 -17439281.65047  21794872.913    21794880.1874
  21680041.149   -19178949.821 9 -14638009.85247  21680040.950    21680048.1684
  20940759.473   -23143463.510 9 -18006338.04547  20940758.984    20940763.9314
  22037609.595   -17564964.530 8 -13664852.42447  22037609.141    22037615.3094
  23983060.876    -3477672.574 8  -2671038.59745  23983060.373    23983071.4334
  20546101.394   -23447776.291 9 -18240171.36747  20546101.210    20546106.5244
 01  6  7  0 31 30.0000000  0  6 21 25 14 11 31 29
  21802415.924   -22364152.369 8 -17408396.52347  21802415.432    21802422.6504
  21666953.191   -19247727.128 9 -14691602.44647  21666952.981    21666960.1344
  20950959.853   -23089860.208 9 -17964569.23847  20950959.363    20950964.2754
  22024577.232   -17633449.693 8 -13718217.42747  22024576.783    22024582.9254
  23997729.258    -3400590.512 8  -2610974.85745  23997728.678    23997739.9234
  20552424.064   -23414550.416 9 -18214281.06547  20552423.873    20552429.1714
 01  6  7  0 32  0.0000000  0  6 21 25 14 11 31 29
  21810001.416   -22324290.236 8 -17377335.13747  21810000.921    21810008.1884
  21653938.874   -19316117.534 9 -14744893.56047  21653938.650    21653945.7774
  20961213.229   -23035978.188 9 -17922583.25047  20961212.754    20961217.6414
  22011620.556   -17701537.054 8 -13771272.45347  22011620.083    22011626.2624
  24012426.611    -3323355.916 8  -2550792.23245  24012426.083    24012437.3234
  20558803.011   -23381028.988 9 -18188160.45947  20558802.797    20558808.0674
 01  6  7  0 32 30.0000000  0  6 21 25 14 11 31 29
  21817630.053   -22284202.074 8 -17346097.62647  21817629.499    21817636.6944
  21640998.438   -19384119.613 9 -14797882.08047  21640998.179    21641005.2874
  20971519.160   -22981820.308 9 -17880382.29947  20971518.670    20971523.5154
  21998739.883   -17769225.188 8 -13824016.38647  21998739.420    21998745.6334
  24027152.306    -3245972.632 8  -2490493.77045  24027151.649    24027162.9994
  20565237.662   -23347214.442 9 -18161811.45147  20565237.472    20565242.7174
 01  6  7  0 33  0.0000000  0  6 21 25 14 11 31 29
  21825301.821   -22243886.441 8 -17314682.86747  21825301.288    21825308.5544
  21628132.335   -19451730.755 9 -14850565.97647  21628132.116    21628139.2074
  20981877.388   -22927387.730 9 -17837967.30447  20981876.879    20981881.6934
  21985935.777   -17836511.040 9 -13876446.86547  21985935.344    21985941.4974
  24041905.757    -3168442.727 8  -2430081.05545  24041905.166    24041916.5784
  20571727.943   -23313107.720 9 -18135234.77047  20571727.729    20571733.0004
 01  6  7  0 33 30.0000000  0  6 21 25 14 11 31 29
  21833016.753   -22203344.247 8 -17283091.55847  21833016.227    21833023.4864
  21615341.002   -19518949.350 9 -14902943.98647  21615340.781    21615347.8244
  20992287.326   -22872683.280 9 -17795340.45747  20992286.822    20992291.5954
  21973208.454   -17903393.310 8 -13928562.85547  21973207.985    21973214.1424
  24056686.605    -3090770.142 8  -2369557.15545  24056686.022    24056697.4584
  20578273.381   -23278711.161 9 -18108432.24047  20578273.178    20578278.4474
 01  6  7  0 34  0.0000000  0  6 21 25 14 11 31 29
  21840775.065   -22162574.000 8 -17251322.54947  21840774.576    21840781.8394
  21602624.942   -19585772.358 9 -14955013.75047  21602624.694    21602631.7084
  21002748.756   -22817708.071 9 -17752502.63347  21002748.260    21002753.0204
  21960558.538   -17969868.740 8 -13980361.82047  21960558.072    21960564.2394
  24071494.023    -3012957.338 7  -2308924.00145  24071493.522    24071505.0224
  20584873.768   -23244025.709 9 -18081404.60347  20584873.578    20584878.8414
 01  6  7  0 34 30.0000000  0  7 21 25 14 11 31 29 20
  21848576.586   -22121576.939 8 -17219376.80847  21848576.086    21848583.3534
  21589984.194   -19652199.451 9 -15006775.01047  21589983.955    21589990.9624
  21013260.970   -22762465.953 9 -17709456.83047  21013260.463    21013265.2164
  21947986.087   -18035937.028 9 -14031843.54447  21947985.636    21947991.8294
  24086327.173    -2935009.212 8  -2248185.40345  24086326.742    24086338.2424
  20591528.524   -23209054.867 9 -18054154.58447  20591528.342    20591533.5794
  24706555.794    -2847667.742 7  -1420190.26345  24706554.979    24706565.4784
 01  6  7  0 35  0.0000000  0  7 21 25 14 11 31 29 20
  21856421.477   -22080352.065 8 -17187253.54546  21856420.965    21856428.1954
  21577419.133   -19718228.681 9 -15058226.25147  21577418.924    21577425.9014
  21023823.631   -22706958.773 9 -17666204.48047  21023823.130    21023827.8934
  21935491.661   -18101595.683 9 -14083006.07647  21935491.205    21935497.3304
  24101185.474    -2856928.592 8  -2187343.56945  24101184.937    24101196.6644
  20598237.261   -23173800.147 9 -18026683.36247  20598237.077    20598242.3124
  24690584.527    -2931597.271 7  -1485589.72745  24690583.545    24690593.9834
 01  6  7  0 35 30.0000000  0  7 21 25 14 11 31 29 20
  21864310.303   -22038895.861 8 -17154950.02146  21864309.813    21864317.0504
  21564930.850   -19783854.642 9 -15109363.24747  21564930.629    21564937.5814
  21034436.941   -22651185.246 9 -17622744.58747  21034436.453    21034441.2604
  21923076.125   -18166839.435 9 -14133845.30047  21923075.671    21923081.7984
  24116069.186    -2778715.166 8  -2126398.25645  24116068.673    24116080.3664
  20605000.287   -23138260.056 9 -17998989.76947  20605000.095    20605005.3294
  24674608.258    -3015552.378 7  -1551009.12945  24674607.255    24674618.0474
 01  6  7  0 36  0.0000000  0  7 21 25 14 11 31 29 20
  21872243.239   -21997208.178 8 -17122466.13046  21872242.712    21872249.9654
  21552519.687   -19849075.113 9 -15160184.28847  21552519.501    21552526.4224
  21045100.480   -22595147.751 9 -17579079.00947  21045099.990    21045104.8494
  21910739.924   -18231666.295 9 -14184359.67247  21910739.481    21910745.5844
  24130977.425    -2700372.047 8  -2065351.87645  24130976.941    24130988.8044
  20611817.313   -23102436.361 9 -17971075.19247  20611817.116    20611822.3564
  24658627.325    -3099532.939 7  -1616448.36545  24658626.437    24658636.8764
 01  6  7  0 36 30.0000000  0  7 21 25 14 11 31 29 20
  21880220.051   -21955290.207 8 -17089802.80346  21880219.459    21880226.7414
  21540185.743   -19913889.867 9 -15210689.18647  21540185.560    21540192.4534
  21055813.581   -22538850.040 9 -17535210.66547  21055813.104    21055817.9824
  21898483.196   -18296075.756 8 -14234548.81747  21898482.736    21898488.8044
  24145909.700    -2621904.441 8  -2004208.50145  24145909.124    24145920.8944
  20618687.601   -23066332.547 9 -17942942.33547  20618687.420    20618692.6574
  24642641.164    -3183540.596 7  -1681908.71845  24642640.166    24642650.4974
 01  6  7  0 37  0.0000000  0  7 21 25 14 11 31 29 20
  21888240.899   -21913140.413 8 -17056958.82046  21888240.287    21888247.6084
  21527929.604   -19978295.804 9 -15260875.52547  21527929.435    21527936.3164
  21066576.050   -22482293.027 9 -17491140.26947  21066575.543    21066580.4284
  21886306.428   -18360064.730 9 -14284410.29647  21886305.986    21886312.0504
  24160864.998    -2543314.422 8  -1942969.73945  24160864.421    24160876.3874
  20625611.104   -23029949.251 9 -17914591.70547  20625610.937    20625616.1794
  24626649.956    -3267573.816 8  -1747389.00245  24626649.005    24626659.3444
 01  6  7  0 37 30.0000000  0  7 21 25 14 11 31 29 20
  21896305.999   -21870757.995 8 -17023933.58246  21896305.433    21896312.7684
  21515751.623   -20042291.126 9 -15310741.89347  21515751.455    21515758.3004
  21077387.536   -22425478.263 9 -17446869.02547  21077387.029    21077391.9254
  21874210.153   -18423630.753 9 -14333942.20547  21874209.710    21874215.8214
  24175843.181    -2464604.857 8  -1881637.84845  24175842.502    24175854.5124
  20632587.483   -22993288.183 9 -17886024.62347  20632587.297    20632592.5154
  24610654.065    -3351632.161 7  -1812888.88145  24610653.160    24610663.3784
 01  6  7  0 38  0.0000000  0  7 21 25 14 11 31 29 20
  21904415.370   -21828142.877 8 -16990727.02146  21904414.809    21904422.1564
  21503652.174   -20105873.946 9 -15360286.83947  21503651.962    21503658.7784
  21088247.467   -22368408.420 9 -17402399.01947  21088246.991    21088251.9264
  21862194.700   -18486772.130 9 -14383143.22947  21862194.278    21862200.3454
  24190843.388    -2385779.166 8  -1820215.44845  24190842.668    24190854.7444
  20639616.393   -22956351.037 9 -17857242.42247  20639616.191    20639621.4094
  24594653.419    -3435715.663 8  -1878408.36745  24594652.486    24594662.5634
 01  6  7  0 38 30.0000000  0  7 21 25 14 11 31 29 20
  21912569.029   -21785295.238 8 -16957339.28846  21912568.474    21912575.7904
  21491631.480   -20169042.629 9 -15409509.08847  21491631.263    21491638.0524
  21099155.578   -22311085.769 9 -17357732.02847  21099155.129    21099160.0644
  21850260.419   -18549486.918 9 -14432011.85447  21850260.000    21850266.0144
  24205865.005    -2306840.595 8  -1758705.10045  24205864.348    24205876.4244
  20646697.387   -22919140.135 9 -17828246.90947  20646697.199    20646702.3914
  24578647.980    -3519824.346 8  -1943947.47345  24578647.057    24578657.0344
 01  6  7  0 39  0.0000000  0  7 21 25 14 11 31 29 20
  21920767.102   -21742214.004 8 -16923769.52046  21920766.569    21920773.9054
  21479690.147   -20231794.288 9 -15458406.37947  21479689.950    21479696.7154
  21110111.567   -22253511.883 9 -17312869.26447  21110111.084    21110116.0444
  21838407.799   -18611772.732 9 -14480546.20547  21838407.355    21838413.4114
  24220907.659    -2227792.083 8  -1697109.07345  24220906.915    24220919.1164
  20653830.299   -22881656.666 9 -17799039.00347  20653830.101    20653835.2654
  24562638.004    -3603957.095 8  -2009505.34445  24562637.090    24562646.8574
 01  6  7  0 39 30.0000000  0  7 21 25 14 11 31 29 20
  21929009.821   -21698898.358 8 -16890017.09846  21929009.273    21929016.6154
  21467828.470   -20294127.193 9 -15506977.37047  21467828.302    21467835.0384
  21121114.988   -22195688.641 9 -17267812.19447  21121114.487    21121119.4254
  21826637.272   -18673627.400 9 -14528744.60747  21826636.794    21826642.8094
  24235970.581    -2148636.373 8  -1635429.49945  24235969.787    24235982.2104
  20661014.665   -22843902.275 9 -17769619.98847  20661014.467    20661019.6474
  24546623.464    -3688113.726 8  -2075081.80945  24546622.607    24546632.2734
 01  6  7  0 40  0.0000000  0  7 21 25 14 11 31 29 20
  21937297.056   -21655348.748 8 -16856082.37446  21937296.535    21937303.8814
  21456046.739   -20356040.251 9 -15555221.21047  21456046.548    21456053.2884
  21132165.372   -22137618.635 9 -17222562.85147  21132164.887    21132169.7844
  21814948.956   -18735049.405 9 -14576605.87047  21814948.496    21814954.4934
  24251053.260    -2069377.431 8  -1573669.52345  24251052.495    24251064.8384
  20668250.228   -22805879.100 9 -17739991.53447  20668250.058    20668255.2244
  24530604.223    -3772294.465 8  -2140677.05045  24530603.368    24530613.2864
 01  6  7  0 40 30.0000000  0  7 21 25 14 11 31 29 20
  21945629.090   -21611563.734 8 -16821964.21246  21945628.597    21945635.9214
  21444345.390   -20417530.552 9 -15603135.63247  21444345.259    21444351.9694
  21143262.487   -22079303.023 9 -17177122.12047  21143261.994    21143266.8684
  21803343.607   -18796035.859 9 -14624127.73747  21803343.140    21803349.1514
  24266155.116    -1990017.353 8  -1511830.73245  24266154.400    24266166.8924
  20675536.762   -22767588.258 9 -17710154.50847  20675536.574    20675541.7384
  24514580.670    -3856498.217 8  -2206290.21445  24514579.779    24514589.7564
 01  6  7  0 41  0.0000000  0  7 21 25 14 11 31 29 20
  21954005.922   -21567543.144 8 -16787662.48746  21954005.448    21954012.7904
  21432724.955   -20478596.462 9 -15650719.35047  21432724.744    21432731.4134
  21154405.857   -22020744.249 9 -17131491.91847  21154405.360    21154410.2364
  21791821.414   -18856585.047 9 -14671308.87947  21791820.956    21791826.9674
  24281275.620    -1910559.772 8  -1449915.95745  24281275.002    24281287.2844
  20682873.770   -22729031.747 9 -17680110.46947  20682873.585    20682878.7804
  24498552.734    -3940724.718 8  -2271921.12745  24498551.686    24498561.8494
 01  6  7  0 41 30.0000000  0  7 21 25 14 11 31 29 20
  21962427.731   -21523286.839 8 -16753177.09246  21962427.168    21962434.5154
  21421185.536   -20539236.238 9 -15697971.02047  21421185.282    21421191.9314
  21165595.125   -21961944.468 9 -17085673.91347  21165594.614    21165599.4754
  21780382.929   -18916694.896 9 -14718147.68847  21780382.445    21780388.3924
  24296414.090    -1831007.800 8  -1387927.64045  24296413.353    24296425.7214
  20690261.037   -22690211.249 9 -17649860.72447  20690260.870    20690266.0514
  24482520.476    -4024973.975 7  -2337569.75845  24482519.575    24482529.5534
 01  6  7  0 42  0.0000000  0  7 21 25 14 11 31 29 20
  21970894.479   -21478793.470 8 -16718506.96946  21970893.957    21970901.3474
  21409727.715   -20599446.896 9 -15744888.31047  21409727.494    21409734.1124
  21176830.033   -21902904.589 9 -17039668.81947  21176829.526    21176834.4144
  21769028.479   -18976362.613 9 -14764641.97047  21769028.006    21769033.9524
  24311570.070    -1751363.448 8  -1325867.36045  24311569.260    24311581.7554
  20697698.440   -22651127.622 9 -17619405.94147  20697698.272    20697703.4364
  24466484.200    -4109244.655 7  -2403235.05645  24466483.287    24466492.9924
 01  6  7  0 42 30.0000000  0  7 21 25 14 11 31 29 20
  21979406.492   -21434062.854 8 -16683651.97746  21979405.954    21979413.3674
  21398351.882   -20659226.894 9 -15791470.02647  21398351.660    21398358.2434
  21188110.230   -21843626.567 9 -16993478.16547  21188109.757    21188114.6824
  21757758.559   -19035586.179 9 -14810790.16047  21757758.118    21757764.0714
  24326742.987    -1671629.920 8  -1263737.57045  24326742.286    24326754.7374
  20705185.567   -22611782.727 9 -17588747.57847  20705185.369    20705190.5044
  24450443.943    -4193536.427 7  -2468916.80945  24450442.931    24450452.7304
 01  6  7  0 43  0.0000000  0  7 21 25 14 11 31 29 20
  21987963.643   -21389094.754 8 -16648611.94146  21987963.160    21987970.5824
  21387058.369   -20718574.562 9 -15837714.85647  21387058.118    21387064.6714
  21199435.341   -21784112.856 9 -16947103.85247  21199434.857    21199439.7494
  21746573.527   -19094363.780 9 -14856590.85247  21746573.071    21746578.9754
  24341932.217    -1591810.658 8  -1201540.99545  24341931.521    24341944.0634
  20712721.971   -22572178.418 9 -17557887.07447  20712721.811    20712726.9274
  24434399.528    -4277849.151 7  -2534614.88044  24434398.638    24434408.4444
 01  6  7  0 43 30.0000000  0  7 21 25 14 11 31 29 20
  21996566.180   -21343888.139 8 -16613386.04446  21996565.694    21996573.1324
  21375847.507   -20777487.578 9 -15883621.00147  21375847.279    21375853.8094
  21210805.080   -21724364.861 9 -16900546.97547  21210804.565    21210809.4184
  21735473.846   -19152693.011 9 -14902042.15447  21735473.355    21735479.2644
  24357137.476    -1511907.825 8  -1139279.30245  24357136.675    24357149.3454
  20720307.566   -22532315.898 9 -17526825.36347  20720307.400    20720312.5094
  24418351.409    -4362181.648 7  -2600328.34244  24418350.418    24418360.3274
 01  6  7  0 44  0.0000000  0  7 21 25 14 11 31 29 20
  22005214.115   -21298443.234 8 -16577974.46846  22005213.588    22005221.0124
  21364719.654   -20835964.501 9 -15929187.33247  21364719.413    21364725.9284
  21222218.888   -21664384.836 9 -16853809.30147  21222218.404    21222223.2384
  21724459.803   -19210571.967 9 -14947142.60147  21724459.370    21724465.2104
  24372357.723    -1431925.164 7  -1076955.37845  24372357.047    24372369.6274
  20727941.916   -22492197.219 9 -17495564.04747  20727941.715    20727946.8564
  24402299.559    -4446534.055 7  -2666057.30644  24402298.630    24402308.3864
 01  6  7  0 44 30.0000000  0  7 21 25 14 11 31 29 20
  22013907.570   -21252758.962 8 -16542376.37146  22013907.029    22013914.4644
  21353675.091   -20894003.424 9 -15974412.36747  21353674.869    21353681.3744
  21233676.527   -21604174.737 9 -16806892.34847  21233676.022    21233680.8674
  21713531.840   -19267998.650 9 -14991890.61447  21713531.375    21713537.2374
  24387592.866    -1351865.563 8  -1014571.54445  24387592.140    24387604.8424
  20735624.674   -22451823.962 9 -17464104.36547  20735624.516    20735629.6424
  24386244.012    -4530905.979 7  -2731801.48545  24386243.036    24386252.6424
 01  6  7  0 45  0.0000000  0  7 21 25 14 11 31 29 20
  22022646.514   -21206835.584 8 -16506591.95646  22022646.019    22022653.4724
  21342714.221   -20951602.870 9 -16019294.95747  21342714.017    21342720.4904
  21245177.392   -21543737.171 9 -16759798.14847  21245176.880    21245181.7274
  21702690.147   -19324971.887 9 -15036285.29947  21702689.681    21702695.5644
  24402841.799    -1271732.795 8   -952130.66145  24402840.984    24402853.7934
  20743355.506   -22411198.501 9 -17432448.15747  20743355.304    20743360.4574
  24370184.748    -4615297.527 7  -2797560.94145  24370183.744    24370193.2484
 01  6  7  0 45 30.0000000  0  7 21 25 14 11 31 29 20
  22031431.345   -21160671.435 8 -16470619.92346  22031430.788    22031438.2524
  21331837.510   -21008760.161 9 -16063833.01147  21331837.256    21331843.6984
  21256721.467   -21483072.672 9 -16712527.11647  21256720.958    21256725.7974
  21691935.449   -19381488.201 9 -15080323.93947  21691934.966    21691940.8014
  24418104.423    -1191528.440 7   -889634.02945  24418103.667    24418116.3704
  20751134.185   -22370321.076 9 -17400595.61347  20751133.999    20751139.1594
  24354121.961    -4699707.070 7  -2863334.43045  24354120.783    24354130.4004
 01  6  7  0 46  0.0000000  0  7 21 25 14 11 31 29 20
  22040261.816   -21114267.028 8 -16434460.68446  22040261.314    22040268.7554
  21321045.052   -21065474.251 9 -16108025.71447  21321044.848    21321051.2344
  21268308.114   -21422184.340 9 -16665081.67247  21268307.627    21268312.4384
  21681267.799   -19437546.858 9 -15124005.96347  21681267.321    21681273.1324
  24433379.700    -1111256.836 7   -827084.96645  24433378.984    24433391.7354
  20758960.230   -22329194.579 9 -17368548.98847  20758960.061    20758965.2744
  24338055.755    -4784135.103 7  -2929122.32945  24338054.676    24338064.1024
 01  6  7  0 46 30.0000000  0  7 21 25 14 11 31 29 20
  22049138.232   -21067621.677 8 -16398113.69646  22049137.650    22049145.0984
  21310337.483   -21121742.720 9 -16151871.17947  21310337.231    21310343.5984
  21279937.156   -21361073.227 9 -16617462.62747  21279936.666    21279941.4984
  21670687.780   -19493145.016 9 -15167329.15147  21670687.316    21670693.1044
  24448667.298    -1030920.254 7   -764485.29245  24448666.630    24448679.4474
  20766833.565   -22287819.909 9 -17336308.98247  20766833.391    20766838.6094
  24321986.053    -4868580.399 7  -2994923.66745  24321985.020    24321994.4124
 01  6  7  0 47  0.0000000  0  7 21 25 14 11 31 29 20
  22058060.569   -21020734.255 8 -16361578.08646  22058060.043    22058067.5054
  21299715.052   -21177563.348 9 -16195367.68447  21299714.824    21299721.1864
  21291608.353   -21299740.948 9 -16569671.24747  21291607.837    21291612.6864
  21660195.860   -19548280.223 9 -15210291.60147  21660195.399    21660201.2054
  24463966.917     -950521.208 7   -701836.92245  24463966.179    24463979.3144
  20774753.913   -22246198.117 9 -17303876.41347  20774753.747    20774758.9364
  24305913.428    -4953042.061 7  -3060737.76545  24305912.567    24305921.9374
 01  6  7  0 47 30.0000000  0  7 21 25 14 11 31 29 20
  22067028.941   -20973605.315 8 -16324854.26946  22067028.424    22067035.8844
  21289178.045   -21232935.296 9 -16238514.57047  21289177.859    21289184.1684
  21303321.117   -21238190.224 9 -16521709.64747  21303320.588    21303325.4214
  21649792.239   -19602951.643 9 -15252892.65847  21649791.761    21649797.5614
  24479277.627     -870063.630 7   -639142.97345  24479276.809    24479290.0934
  20782720.771   -22204331.953 9 -17271253.42447  20782720.592    20782725.7774
  24289837.656    -5037520.679 8  -3126565.06745  24289836.875    24289846.1484
 01  6  7  0 48  0.0000000  0  7 21 25 14 11 31 29 20
  22076043.347   -20926233.940 8 -16287941.54146  22076042.893    22076050.4064
  21278726.856   -21287856.345 9 -16281310.10247  21278726.654    21278732.9604
  21315075.158   -21176422.262 9 -16473578.77147  21315074.621    21315079.4964
  21639477.328   -19657156.599 9 -15295130.22947  21639476.852    21639482.6294
  24494599.207     -789549.896 7   -576405.25845  24494598.312    24494611.6444
  20790733.961   -22162222.348 9 -17238440.74547  20790733.804    20790738.9754
  24273758.962    -5122014.847 8  -3192404.49645  24273758.137    24273767.1554
 01  6  7  0 48 30.0000000  0  7 21 25 14 11 31 29 20
  22085104.171   -20878619.569 8 -16250839.47146  22085103.691    22085111.1624
  21268361.741   -21342324.937 9 -16323753.07647  21268361.570    21268367.8454
  21326870.112   -21114439.251 9 -16425280.32547  21326869.605    21326874.4804
  21629251.597   -19710893.238 9 -15337002.89147  21629251.111    21629256.8764
  24509930.813     -708982.995 7   -513626.12845  24509929.848    24509943.3244
  20798793.163   -22119870.994 9 -17205439.68547  20798793.005    20798798.1464
  24257677.201    -5206524.198 7  -3258255.75145  24257676.430    24257685.5684
 01  6  7  0 49  0.0000000  0  7 21 25 14 11 31 29 20
  22094211.335   -20830761.415 8 -16213547.44346  22094210.826    22094218.3354
  21258083.250   -21396338.256 9 -16365841.29047  21258083.086    21258089.3594
  21338705.749   -21052242.512 9 -16376815.33847  21338705.242    21338710.0624
  21619115.331   -19764159.189 9 -15378508.77247  21619114.868    21619120.6584
  24525271.878     -628365.370 7   -450807.45745  24525271.058    24525284.6994
  20806898.183   -22077278.972 9 -17172251.08947  20806898.004    20806903.1554
  24241592.745    -5291048.020 7  -3324118.30345  24241591.995    24241601.1634
 01  6  7  0 49 30.0000000  0  7 21 25 14 11 31 29 20
  22103364.845   -20782659.510 8 -16176065.48046  22103364.349    22103371.8554
  21247891.550   -21449895.917 9 -16407574.43647  21247891.351    21247897.6014
  21350581.612   -20989834.547 9 -16328185.76247  21350581.100    21350585.8934
  21609068.950   -19816953.256 9 -15419646.96347  21609068.463    21609074.2214
  24540622.184     -547700.887 8   -387952.28345  24540621.351    24540634.7584
  20815048.466   -22034448.830 9 -17138876.94747  20815048.302    20815053.4614
  24225505.450    -5375586.261 7  -3389992.08745  24225504.662    24225513.9674
 01  6  7  0 50  0.0000000  0  7 21 25 14 11 31 29 20
  22112564.668   -20734314.124 8 -16138393.78446  22112564.180    22112571.6734
  21237786.755   -21502996.798 9 -16448951.65647  21237786.516    21237792.7464
  21362497.300   -20927217.475 9 -16279393.24247  21362496.791    21362501.5244
  21599112.567   -19869273.933 9 -15460416.26647  21599112.106    21599117.8774
  24555980.552     -466992.896 8   -325063.20945  24555979.718    24555993.1674
  20823243.684   -21991382.545 9 -17105318.79947  20823243.509    20823248.6594
  24209415.415    -5460138.932 8  -3455877.12545  24209414.681    24209423.9494
 01  6  7  0 50 30.0000000  0  7 21 25 14 11 31 29 20
  22121811.214   -20685723.277 8 -16100530.81846  22121810.749    22121818.2464
  21227769.416   -21555637.666 9 -16489970.42347  21227769.221    21227775.4384
  21374452.590   -20864392.239 9 -16230438.51547  21374452.065    21374456.7544
  21589246.915   -19921118.014 9 -15500814.20547  21589246.466    21589252.2214
  24571347.009     -386242.928 8   -262141.44145  24571346.160    24571359.5854
  20831483.847   -21948080.323 9 -17071576.80447  20831483.664    20831488.8024
  24193323.169    -5544704.082 8  -3521771.89145  24193322.461    24193331.4704
 01  6  7  0 51  0.0000000  0  7 21 25 14 11 31 29 20
  22131104.432   -20636887.476 8 -16062476.98446  22131103.896    22131111.3944
  21217839.868   -21607817.339 9 -16530629.82147  21217839.665    21217845.8754
  21386447.083   -20801360.865 9 -16181323.16647  21386446.551    21386451.2424
  21579472.326   -19972483.837 9 -15540839.48147  21579471.873    21579477.5664
  24586720.848     -305454.373 8   -199189.58745  24586719.967    24586733.4734
  20839768.487   -21904544.308 9 -17037652.63647  20839768.299    20839773.4214
  24177228.582    -5629281.435 8  -3587676.15945  24177227.794    24177236.8714
 01  6  7  0 51 30.0000000  0  7 21 25 14 11 31 29 20
  22140444.578   -20587804.595 8 -16024230.61346  22140444.040    22140451.5894
  21207998.790   -21659532.273 9 -16570927.08747  21207998.558    21208004.7504
  21398480.656   -20738123.796 9 -16132047.52647  21398480.160    21398484.8704
  21569789.326   -20023368.274 9 -15580489.64047  21569788.856    21569794.5554
  24602101.664     -224629.001 8   -136209.07145  24602100.760    24602114.2924
  20848097.647   -21860774.518 9 -17003546.30447  20848097.462    20848102.5364
  24161132.020    -5713868.939 8  -3653588.34645  24161131.237    24161140.3224
 01  6  7  0 52  0.0000000  0  7 21 25 14 11 31 29 20
  22149831.596   -20538475.600 8 -15985792.47446  22149831.031    22149838.5964
  21198246.196   -21710782.349 9 -16610862.12747  21198245.950    21198252.1124
  21410552.796   -20674683.828 9 -16082613.78547  21410552.313    21410557.1294
  21560197.992   -20073770.608 9 -15619764.14047  21560197.556    21560203.2324
  24617488.533     -143770.655 8    -73202.84145  24617487.847    24617501.3714
  20856470.685   -21816773.788 9 -16969260.01947  20856470.506    20856475.5934
  24145033.249    -5798467.484 8  -3719509.14045  24145032.522    24145041.6094
 01  6  7  0 52 30.0000000  0  7 21 25 14 11 31 29 20
  22159265.133   -20488902.291 8 -15947163.95846  22159264.580    22159272.0924
  21188581.867   -21761568.234 9 -16650435.46447  21188581.640    21188587.8044
  21422662.674   -20611045.565 9 -16033025.53747  21422662.200    21422667.1094
  21550698.359   -20123691.454 9 -15658663.45647  21550697.912    21550703.5594
  24632881.024      -62884.702 8    -10175.14145  24632880.241    24632893.9404
  20864886.978   -21772546.084 9 -16934796.87047  20864886.789    20864891.8474
  24128932.156    -5883078.730 8  -3785439.82845  24128931.418    24128940.4864
 01  6  7  0 53  0.0000000  0  7 21 25 14 11 31 29 20
  22168746.018   -20439079.782 8 -15908341.26546  22168745.537    22168753.0784
  21179006.999   -21811883.912 9 -16689642.40547  21179006.799    21179012.9244
  21434810.844   -20547206.183 9 -15983280.57247  21434810.380    21434815.3484
  21541291.522   -20173124.525 9 -15697182.69647  21541291.065    21541296.6954
  24648278.748       18030.304 8     52875.21345  24648277.982    24648291.8544
  20873346.912   -21728088.738 9 -16900154.78447  20873346.733    20873351.8124
  24112829.582    -5967697.659 8  -3851376.50645  24112828.816    24112837.8834
 01  6  7  0 53 30.0000000  0  7 21 25 14 11 31 29 20
  22178273.742   -20389011.606 8 -15869327.12946  22178273.211    22178280.7834
  21169521.216   -21861731.775 9 -16728484.81347  21169521.036    21169527.1514
  21446996.222   -20483171.637 9 -15933383.52647  21446995.744    21447000.7204
  21531977.062   -20222072.148 9 -15735323.65447  21531976.613    21531982.2604
  24663680.774       98967.337 8    115942.71845  24663680.089    24663693.8694
  20881849.481   -21683407.302 9 -16865338.07547  20881849.307    20881854.4214
  24096724.880    -6052327.657 8  -3917321.81745  24096724.085    24096733.1104
 01  6  7  0 54  0.0000000  0  7 21 25 14 11 31 29 20
  22187848.682   -20338695.051 8 -15830119.45246  22187848.172    22187855.7704
  21160125.082   -21911108.337 9 -16766959.98047  21160124.911    21160131.0074
  21459218.900   -20418941.287 9 -15883333.91047  21459218.422    21459223.4024
  21522755.779   -20270530.031 9 -15773083.00447  21522755.327    21522761.0234
  24679086.921      179925.774 8    179026.89745  24679086.293    24679100.0914
  20890394.872   -21638500.819 9 -16830346.01147  20890394.691    20890399.8114
  24080618.637    -6136965.777 7  -3983273.45045  24080618.005    24080626.8904
 01  6  7  0 54 30.0000000  0  7 21 25 14 11 31 29 20
  22197470.953   -20288130.108 8 -15790718.24246  22197470.401    22197477.9694
  21150818.912   -21960012.285 9 -16805066.87447  21150818.713    21150824.8084
  21471478.437   -20354517.390 9 -15833133.47747  21471477.925    21471482.8954
  21513627.998   -20318496.738 9 -15810459.62647  21513627.566    21513633.1634
  24694496.415      260902.467 8    242125.27745  24694495.755    24694509.7164
  20898982.685   -21593371.459 9 -16795180.27947  20898982.525    20898987.6544
  24064511.022    -6221611.770 7  -4049231.21045  24064510.336    24064519.0344
 01  6  7  0 55  0.0000000  0  7 21 25 14 11 31 29 20
  22207140.420   -20237316.293 8 -15751123.09946  22207139.947    22207147.5464
  21141603.094   -22008441.470 9 -16842803.82447  21141602.903    21141608.9704
  21483774.499   -20289901.275 9 -15782783.26947  21483773.983    21483778.9764
  21504594.096   -20365969.992 9 -15847451.73847  21504593.660    21504599.2484
  24709908.956      341895.216 8    305236.20645  24709908.327    24709922.5084
  20907612.762   -21548020.202 9 -16759841.63747  20907612.591    20907617.7354
  24048401.995    -6306264.437 7  -4115194.18245  24048401.419    24048409.9664
 01  6  7  0 55 30.0000000  0  7 21 25 14 11 31 29 20
  22216857.304   -20186254.157 8 -15711334.44846  22216856.780    22216864.3624
  21132477.680   -22056395.558 9 -16880170.56847  21132477.490    21132483.5394
  21496106.636   -20225095.585 9 -15732285.33747  21496106.135    21496111.1084
  21495654.246   -20412949.187 9 -15884058.87047  21495653.809    21495659.3904
  24725323.862      422899.653 8    368356.20745  24725323.194    24725337.4104
  20916284.566   -21502449.622 9 -16724332.09447  20916284.388    20916289.5424
  24032291.625    -6390924.354 7  -4181162.79545  24032290.912    24032299.5654
 01  6  7  0 56  0.0000000  0  7 21 25 14 11 31 29 20
  22226621.523   -20134942.998 8 -15671351.76346  22226620.980    22226628.5704
  21123443.068   -22103872.421 9 -16917165.44747  21123442.865    21123448.8934
  21508474.586   -20160101.854 9 -15681640.87747  21508474.043    21508478.9834
  21486808.817   -20459432.093 9 -15920279.28347  21486808.362    21486813.9694
  24740740.510      503913.419 7    431483.47545  24740739.751    24740754.0134
  20924997.833   -21456661.004 9 -16688652.64847  20924997.636    20925002.8144
  24016180.076    -6475590.294 7  -4247136.11045  24016179.426    24016187.8994
 01  6  7  0 56 30.0000000  0  7 21 25 14 11 31 29 20
  22236433.411   -20083381.471 8 -15631173.99246  22236432.868    22236440.4624
  21114499.682   -22150869.887 9 -16953786.77147  21114499.476    21114505.4774
  21520878.119   -20094920.750 9 -15630850.41047  21520877.616    21520882.4954
  21478058.340   -20505416.052 9 -15956110.90647  21478057.890    21478063.4734
  24756158.625      584934.657 7    494616.57945  24756157.868    24756172.1524
  20933752.484   -21410654.886 9 -16652803.72647  20933752.295    20933757.4814
  24000067.654    -6560260.812 7  -4313112.98745  24000066.940    24000075.3754
 01  6  7  0 57  0.0000000  0  7 21 25 14 11 31 29 20
  22246292.884   -20031569.473 8 -15590801.04646  22246292.372    22246299.9874
  21105647.620   -22197387.454 9 -16990034.15047  21105647.424    21105653.4124
  21533316.786   -20029555.113 9 -15579916.16147  21533316.275    21533321.1424
  21469402.980   -20550900.185 9 -15991553.06047  21469402.522    21469408.0644
  24771577.374      665959.743 7    557752.67645  24771576.505    24771591.0324
  20942548.124   -21364433.565 9 -16616787.11447  20942547.946    20942553.1144
  23983954.368    -6644936.069 7  -4379093.56445  23983953.585    23983962.1094
 01  6  7  0 57 30.0000000  0  7 21 25 14 11 31 29 20
  22256200.137   -19979506.973 8 -15550232.91046  22256199.613    22256207.1654
  21096887.205   -22243423.555 9 -17025906.36147  21096887.019    21096892.9764
  21545790.242   -19964006.587 9 -15528839.39847  21545789.740    21545794.5904
  21460842.995   -20595882.908 9 -16026604.50147  21460842.548    21460848.0884
  24786996.170      746985.463 7    620889.28645  24786995.460    24787009.9074
  20951384.319   -21317998.868 9 -16580604.23147  20951384.159    20951389.3184
  23967840.352    -6729615.265 7  -4445077.21945  23967839.420    23967847.9394
 01  6  7  0 58  0.0000000  0  7 21 25 14 11 31 29 20
  22266154.999   -19927194.361 8 -15509469.86446  22266154.402    22266161.9564
  21088218.534   -22288977.264 9 -17061402.67947  21088218.360    21088224.3004
  21558298.039   -19898277.413 9 -15477621.87647  21558297.551    21558302.3934
  21452378.743   -20640362.843 9 -16061264.16347  21452378.298    21452383.8094
  24802414.674      828008.553 7    684023.85445  24802413.825    24802428.4724
  20960260.816   -21271352.605 9 -16544256.49547  20960260.634    20960265.8024
  23951725.454    -6814298.537 7  -4511064.03645  23951724.526    23951733.3774
 01  6  7  0 58 30.0000000  0  7 21 25 14 11 31 29 20
  22276157.612   -19874630.238 8 -15468510.85346  22276157.027    22276164.6224
  21079642.169   -22334046.188 9 -17096521.24547  21079641.998    21079647.8994
  21570840.110   -19832368.435 9 -15426264.23747  21570839.618    21570844.4654
  21444010.606   -20684337.462 9 -16095530.06947  21444010.161    21444015.6914
  24817832.205      909027.313 7    747155.03645  24817831.403    24817846.3024
  20969177.410   -21224495.511 9 -16507744.47147  20969177.241    20969182.4144
  23935610.280    -6898983.681 8  -4577052.32245  23935609.402    23935618.1094
 01  6  7  0 59  0.0000000  0  7 21 25 14 11 31 29 20
  22286207.964   -19821815.188 8 -15427356.31946  22286207.420    22286215.0434
  21071158.198   -22378629.689 9 -17131261.56047  21071157.991    21071163.8774
  21583415.930   -19766282.039 9 -15374768.35947  21583415.452    21583420.3014
  21435738.856   -20727805.837 9 -16129401.50747  21435738.407    21435743.8954
  24833248.386      990037.880 7    810279.81744  24833247.380    24833262.2254
  20978133.695   -21177429.809 9 -16471069.89747  20978133.550    20978138.7024
  23919494.639    -6983671.194 8  -4643042.45445  23919493.809    23919502.4194
 01  6  7  0 59 30.0000000  0  7 21 25 14 11 31 29 20
  22296306.558   -19768747.041 8 -15386004.55846  22296305.989    22296313.6364
  21062767.013   -22422725.108 9 -17165621.55747  21062766.850    21062772.7044
  21596025.419   -19700018.714 9 -15323134.61247  21596024.953    21596029.8334
  21427563.993   -20770764.949 9 -16162876.11247  21427563.516    21427568.9964
  24848662.516     1071038.792 7    873397.09544  24848661.570    24848676.0474
  20987129.647   -21130155.674 9 -16434232.91347  20987129.493    20987134.6404
  23903379.056    -7068358.863 8  -4709032.69845  23903378.285    23903386.7024
 01  6  7  1  0  0.0000000  0  7 21 25 14 11 31 29 20
  22306453.072   -19715427.212 8 -15344456.68446  22306452.514    22306460.0734
  21054468.809   -22466332.208 9 -17199601.04047  21054468.645    21054474.4714
  21608667.986   -19633581.543 9 -15271365.39947  21608667.531    21608672.4254
  21419486.026   -20813214.709 9 -16195953.81447  21419485.559    21419491.0784
  24864074.074     1152025.805 7    936503.54744  24864072.891    24864087.8704
  20996164.753   -21082675.975 9 -16397235.74447  20996164.608    20996169.7404
  23887263.305    -7153047.383 8  -4775023.61645  23887262.562    23887270.8624
 01  6  7  1  0 30.0000000  0  7 21 25 14 11 31 29 20
  22316647.471   -19661855.196 8 -15302712.29546  22316646.947    22316654.5354
  21046263.729   -22509449.883 9 -17233199.15647  21046263.555    21046269.3664
  21621343.416   -19566971.850 9 -15219461.75747  21621342.966    21621347.8854
  21411505.403   -20855153.071 9 -16228633.03147  21411504.944    21411510.4194
  24879482.605     1232996.641 7    999597.35544  24879481.423    24879496.6384
  21005238.753   -21034991.963 9 -16360079.37047  21005238.556    21005243.6854
  23871147.506    -7237735.697 8  -4841014.37345  23871146.879    23871155.0894
 01  6  7  1  1  0.0000000  0  7 21 25 14 11 31 29 20
  22326890.085   -19608029.962 8 -15260770.61346  22326889.596    22326897.1934
  21038152.300   -22552075.671 9 -17266413.98447  21038152.110    21038157.8814
  21634051.504   -19500190.893 9 -15167424.65947  21634051.018    21634055.8914
  21403622.443   -20896578.032 9 -16260912.19347  21403621.991    21403627.4764
  24894887.551     1313948.799 7   1062676.61044  24894886.299    24894901.8404
  21014351.418   -20987104.578 9 -16322764.52447  21014351.227    21014356.3834
  23855032.108    -7322422.621 8  -4907004.04645  23855031.366    23855039.5334
 01  6  7  1  1 30.0000000  0  7 21 25 14 11 31 29 20
  22337180.851   -19553951.501 8 -15218631.59646  22337180.371    22337188.0234
  21030134.640   -22594208.338 9 -17299244.56947  21030134.461    21030140.2164
  21646791.831   -19433240.396 9 -15115255.45647  21646791.298    21646796.1594
  21395837.524   -20937487.933 9 -16292790.01147  21395837.080    21395842.5734
  24910288.433     1394879.483 7   1125739.14944  24910287.276    24910302.6504
  21023502.479   -20939015.284 9 -16285292.35347  21023502.302    21023507.4984
  23838917.179    -7407107.098 8  -4972991.81645  23838916.302    23838924.4094
 01  6  7  1  2  0.0000000  0  7 21 25 14 11 31 29 20
  22347520.068   -19499619.275 8 -15176294.85146  22347519.534    22347527.1834
  21022210.897   -22635847.819 9 -17331690.85247  21022210.697    21022216.4344
  21659563.937   -19366122.446 9 -15062955.77447  21659563.406    21659568.2914
  21388150.826   -20977881.646 9 -16324265.60747  21388150.392    21388155.8514
  24925684.587     1475785.477 7   1188782.46644  24925683.707    24925698.5484
  21032691.562   -20890726.083 9 -16247664.40847  21032691.421    21032696.6444
  23822802.615    -7491789.069 8  -5038977.62145  23822801.718    23822809.8974
 01  6  7  1  2 30.0000000  0  6 21 25 14 11 29 20
  22357910.904   -19445014.497 8 -15133745.70846  22357910.470    22357918.1774
  21014384.946   -22676973.437 9 -17363736.72347  21014384.724    21014390.4334
  21672371.095   -19298820.080 9 -15010512.38747  21672370.600    21672375.5574
  21380566.232   -21017738.896 9 -16355323.18447  21380565.802    21380571.2594
  21041921.994   -20842219.834 9 -16209867.33147  21041921.841    21041927.0664
  23806692.227    -7576449.107 8  -5104946.34945  23806691.381    23806699.5264
 01  6  7  1  3  0.0000000  0  6 21 25 14 11 29 20
  22368348.917   -19390163.199 8 -15091004.50246  22368348.375    22368356.0534
  21006651.954   -22717610.216 9 -17395401.68547  21006651.728    21006657.4244
  21685208.112   -19231361.086 9 -14957946.95547  21685207.633    21685212.6104
  21373079.052   -21057084.466 9 -16385982.05047  21373078.616    21373084.0344
  21051188.405   -20793524.387 9 -16171922.83947  21051188.246    21051193.4844
  23790581.211    -7661112.665 8  -5170917.81045  23790580.354    23790588.5394
 01  6  7  1  3 30.0000000  0  6 21 25 14 11 29 20
  22378834.277   -19335062.209 8 -15048068.71346  22378833.776    22378841.4684
  20999012.697   -22757754.221 9 -17426682.66547  20999012.506    20999018.1864
  21698075.226   -19163743.927 9 -14905258.27747  21698074.765    21698079.7574
  21365690.069   -21095913.631 9 -16416238.50747  21365689.611    21365695.1044
  21060491.240   -20744637.882 9 -16133829.45747  21060491.065    21060496.2634
  23774470.163    -7745775.746 8  -5236888.91245  23774469.377    23774477.5954
 01  6  7  1  4  0.0000000  0  6 21 25 14 11 29 20
  22389367.674   -19279709.282 8 -15004936.61146  22389367.144    22389374.8524
  20991467.861   -22797402.405 9 -17457577.29147  20991467.669    20991473.3334
  21710972.454   -19095968.791 9 -14852446.49947  21710971.947    21710976.9464
  21358399.923   -21134223.437 9 -16446090.28547  21358399.488    21358404.9254
  21069830.452   -20695560.205 9 -16095587.11847  21069830.260    21069835.4454
  23758359.818    -7830435.771 8  -5302857.61345  23758359.001    23758367.1504
 01  6  7  1  4 30.0000000  0  6 21 25 14 11 29 20
  22399949.190   -19224103.378 8 -14961607.39646  22399948.598    22399956.3514
  20984017.827   -22836552.492 9 -17488083.79147  20984017.627    20984023.2764
  21723899.607   -19028036.448 9 -14799512.22147  21723899.097    21723904.0734
  21351209.113   -21172011.464 9 -16475535.48447  21351208.666    21351214.0514
  21079205.886   -20646291.911 9 -16057196.24647  21079205.720    21079210.9244
  23742250.361    -7915091.252 8  -5368822.79945  23742249.562    23742257.6914
 01  6  7  1  5  0.0000000  0  6 21 25 14 11 29 20
  22410579.248   -19168242.014 8 -14918079.11146  22410578.679    22410586.4784
  20976663.106   -22875201.604 9 -17518199.92247  20976662.889    20976668.5224
  21736856.717   -18959946.284 9 -14746454.97347  21736856.217    21736861.1884
  21344118.303   -21209273.799 9 -16504571.04347  21344117.855    21344123.2874
  21088617.672   -20596832.348 9 -16018656.33247  21088617.504    21088622.7834
  23726142.267    -7999739.296 8  -5434782.17745  23726141.544    23726149.5474
 01  6  7  1  5 30.0000000  0  6 21 25 14 11 29 20
  22421257.935   -19112125.248 8 -14874351.81946  22421257.416    22421265.1924
  20969403.826   -22913348.985 9 -17547925.09747  20969403.634    20969409.2334
  21749843.433   -18891700.554 9 -14693276.50547  21749842.897    21749847.8804
  21337127.626   -21246009.834 9 -16533196.50747  21337127.184    21337132.6344
  21098065.505   -20547183.530 9 -15979968.95547  21098065.353    21098070.6494
  23710035.727    -8084379.418 8  -5500735.39245  23710035.004    23710042.8754
 01  6  7  1  6  0.0000000  0  7 21 25 01 14 11 29 20
  22431984.059   -19055759.716 8 -14830430.67846  22431983.521    22431991.2664
  20962238.976   -22951000.218 9 -17577263.65947  20962238.794    20962244.3654
  24648587.465    -5596543.997 8  -3784218.22745  24648586.809    24648601.4814
  21762858.097   -18823307.686 9 -14639983.38147  21762857.627    21762862.6454
  21330236.181   -21282224.731 9 -16561415.88947  21330235.725    21330241.1214
  21107547.874   -20497353.578 9 -15941140.42747  21107547.719    21107553.0184
  23693929.493    -8169017.656 8  -5566687.13445  23693928.766    23693936.6794
 01  6  7  1  6 30.0000000  0  7 21 25 01 14 11 29 20
  22442756.513   -18999149.921 8 -14786319.21446  22442755.983    22442763.7734
  20955168.063   -22988157.966 9 -17606217.69447  20955167.879    20955173.4304
  24632638.179    -5680356.247 8  -3849526.08345  24632637.530    24632652.2104
  21775899.785   -18754773.012 9 -14586579.76247  21775899.329    21775904.3284
  21323443.357   -21317921.161 9 -16589231.27047  21323442.918    21323448.3234
  21117063.662   -20447348.052 9 -15902175.09347  21117063.481    21117068.7284
  23677823.039    -8253657.224 8  -5632639.92145  23677822.205    23677830.1674
 01  6  7  1  7  0.0000000  0  7 21 25 01 14 11 29 20
  22453579.535   -18942274.830 8 -14742001.01446  22453578.991    22453586.8194
  20948195.018   -23024801.415 9 -17634770.97447  20948194.826    20948200.3814
  24616719.623    -5764006.804 8  -3914707.96645  24616718.971    24616733.7224
  21788971.994   -18686078.256 9 -14533051.40147  21788971.539    21788976.5134
  21316753.266   -21353077.774 9 -16616626.01847  21316752.809    21316758.1994
  21126616.417   -20397148.203 9 -15863058.33547  21126616.228    21126621.4264
  23661720.260    -8338277.067 8  -5698577.33245  23661719.483    23661727.3354
 01  6  7  1  7 30.0000000  0  7 21 25 01 14 11 29 20
  22464452.136   -18885138.937 8 -14697479.59946  22464451.624    22464459.4674
  20941319.082   -23060934.411 9 -17662926.49747  20941318.907    20941324.4444
  24600831.132    -5847500.390 8  -3979767.50445  24600830.560    24600845.0124
  21802073.419   -18617230.190 9 -14479403.57547  21802072.949    21802077.8814
  21310165.144   -21387698.238 9 -16643602.97747  21310164.700    21310170.1204
  21136204.877   -20346760.720 9 -15823795.37047  21136204.650    21136209.8664
  23645620.395    -8422881.573 8  -5764502.79445  23645619.579    23645627.4694
 01  6  7  1  8  0.0000000  0  7 21 25 01 14 11 29 20
  22475374.274   -18827743.301 8 -14652755.79346  22475373.732    22475381.5764
  20934540.368   -23096556.477 9 -17690683.89247  20934540.199    20934545.7184
  24584972.391    -5930837.107 8  -4044704.80845  24584971.739    24584986.0254
  21815203.519   -18548231.180 9 -14425638.13947  21815203.049    21815207.9734
  21303679.252   -21421781.903 9 -16670161.66447  21303678.820    21303684.2194
  21145828.622   -20296187.628 9 -15784387.77847  21145828.408    21145833.6154
  23629523.483    -8507470.383 8  -5830416.02645  23629522.722    23629530.6374
 01  6  7  1  8 30.0000000  0  7 21 25 01 14 11 29 20
  22486345.605   -18770089.141 8 -14607830.53146  22486345.017    22486352.8044
  20927858.804   -23131668.214 9 -17718043.63347  20927858.605    20927864.1324
  24569143.147    -6014017.997 8  -4109520.70645  24569142.367    24569156.6434
  21828361.807   -18479084.023 9 -14371757.26147  21828361.310    21828366.2594
  21297295.463   -21455328.911 9 -16696302.17147  21297295.010    21297300.3964
  21155487.119   -20245431.863 9 -15744837.83647  21155486.921    21155492.1084
  23613429.466    -8592044.145 8  -5896317.53645  23613428.694    23613436.5704
 01  6  7  1  9  0.0000000  0  7 21 25 01 14 11 29 20
  22497365.752   -18712177.481 8 -14562704.62546  22497365.218    22497373.0584
  20921274.212   -23166270.169 9 -17745006.14047  20921274.033    20921279.5464
  24553343.452    -6097044.008 7  -4174215.91945  24553342.585    24553356.9884
  21841547.598   -18409792.051 9 -14317763.53847  21841547.122    21841552.1224
  21291013.707   -21488339.394 9 -16722024.60447  21291013.278    21291018.7054
  21165179.824   -20194496.425 9 -15705147.89447  21165179.621    21165184.7934
  23597338.320    -8676603.561 8  -5962207.84645  23597337.593    23597345.3094
 01  6  7  1  9 30.0000000  0  7 21 25 01 14 11 29 20
  22508435.305   -18654007.034 8 -14517377.07146  22508434.734    22508442.5804
  20914787.031   -23200360.323 9 -17771569.83647  20914786.824    20914792.3304
  24537573.675    -6179913.811 7  -4238789.41145  24537572.942    24537587.0874
  21854760.782   -18340355.862 9 -14263657.44347  21854760.324    21854765.3924
  21284834.599   -21520810.948 9 -16747327.09547  21284834.146    21284839.5564
  21174906.622   -20143381.675 9 -15665318.22447  21174906.437    21174911.5794
  23581250.315    -8761146.749 8  -6028085.53145  23581249.551    23581257.2824
 01  6  7  1 10  0.0000000  0  7 21 25 01 14 11 29 20
  22519553.777   -18595579.259 8 -14471848.98646  22519553.258    22519561.0904
  20908397.126   -23233939.268 9 -17797735.18947  20908396.928    20908402.4194
  24521833.376    -6262628.176 7  -4303241.80345  24521832.300    24521846.6474
  21868000.952   -18270778.273 9 -14209441.16047  21868000.508    21868005.5884
  21278757.908   -21552744.105 9 -16772210.05847  21278757.453    21278762.8524
  21184667.012   -20092090.323 9 -15625350.94547  21184666.830    21184671.9954
  23565165.173    -8845674.191 8  -6093950.95445  23565164.416    23565172.1284
 01  6  7  1 10 30.0000000  0  7 21 25 01 14 11 29 20
  22530721.595   -18536892.578 8 -14426119.16646  22530721.016    22530728.9164
  20902104.926   -23267004.731 9 -17823500.43347  20902104.744    20902110.2124
  24506122.697    -6345185.751 7  -4367571.99745  24506121.756    24506136.1094
  21881267.939   -18201059.812 9 -14155115.11547  21881267.494    21881272.6004
  21272784.154   -21584136.323 9 -16796671.51047  21272783.678    21272789.0874
  21194460.943   -20040622.924 9 -15585246.48247  21194460.780    21194465.9444
  23549083.492    -8930183.735 8  -6159802.40345  23549082.739    23549090.3564
 01  6  7  1 11  0.0000000  0  7 21 25 01 14 11 29 20
  22541938.356   -18477948.063 8 -14380188.44146  22541937.801    22541945.7174
  20895910.400   -23299556.994 9 -17848865.77147  20895910.213    20895915.6584
  24490442.072    -6427586.971 7  -4431780.36645  24490440.990    24490455.2294
  21894561.304   -18131203.074 9 -14100681.31747  21894560.831    21894565.9374
  21266913.399   -21614987.281 9 -16820711.19647  21266912.933    21266918.3544
  21204287.954   -19988981.707 9 -15545006.58047  21204287.777    21204292.9414
  23533005.130    -9014675.746 8  -6225640.21945  23533004.310    23533011.9054
 01  6  7  1 11 30.0000000  0  7 21 25 01 14 11 29 20
  22553204.297   -18418745.185 8 -14334056.38946  22553203.792    22553211.7284
  20889813.707   -23331595.051 9 -17873830.43147  20889813.523    20889818.9514
  24474791.182    -6509831.456 7  -4495866.60545  24474790.295    24474804.1674
  21907880.672   -18061209.510 9 -14046140.90647  21907880.230    21907885.3144
  21261145.863   -21645295.888 9 -16844328.28047  21261145.405    21261150.7814
  21214147.828   -19937168.068 9 -15504632.32547  21214147.621    21214152.7624
  23516930.297    -9099149.098 8  -6291463.49145  23516929.559    23516936.9654
 01  6  7  1 12  0.0000000  0  7 21 25 01 14 11 29 20
  22564519.546   -18359283.615 8 -14287722.76946  22564519.009    22564526.9924
  20883815.083   -23363117.794 9 -17898393.55648  20883814.906    20883820.3094
  24459170.232    -6591918.188 7  -4559829.91245  24459169.440    24459183.2224
  21921225.890   -17991080.312 9 -13991494.80847  21921225.421    21921230.4544
  21255481.847   -21675060.408 9 -16867521.40247  21255481.386    21255486.7434
  21224040.285   -19885183.063 9 -15464124.53747  21224040.093    21224045.2094
  23500859.273    -9183602.500 8  -6357271.22545  23500858.485    23500865.8464
 01  6  7  1 12 30.0000000  0  7 21 25 01 14 11 29 20
  22575883.906   -18299563.380 8 -14241187.57246  22575883.400    22575891.3824
  20877914.730   -23394124.315 9 -17922554.42248  20877914.541    20877919.9204
  24443579.495    -6673847.071 7  -4623670.22545  24443578.674    24443592.3874
  21934596.549   -17920817.165 9 -13936744.32147  21934596.065    21934601.0814
  21249921.485   -21704280.049 9 -16890289.93747  21249921.046    21249926.4174
  21233965.045   -19833028.085 9 -15423484.30447  21233964.852    21233969.9964
  23484792.109    -9268035.339 8  -6423062.92945  23484791.387    23484798.6784
 01  6  7  1 13  0.0000000  0  7 21 25 01 14 11 29 20
  22587297.465   -18239585.234 8 -14194451.42146  22587296.939    22587304.8854
  20872112.532   -23424614.620 9 -17946313.04648  20872112.357    20872117.7454
  24428018.555    -6755618.341 7  -4687387.73245  24428017.656    24428031.4154
  21947992.245   -17850422.411 9 -13881891.29547  21947991.751    21947996.7784
  21244464.993   -21732954.163 9 -16912633.38047  21244464.533    21244469.9264
  21243921.674   -19780705.465 9 -15382713.43647  21243921.479    21243926.6664
  23468729.016    -9352447.135 8  -6488838.23845  23468728.257    23468735.4814
 01  6  7  1 13 30.0000000  0  7 21 25 01 14 11 29 20
  22598760.502   -18179346.742 8 -14147512.40946  22598759.994    22598767.9864
  20866409.103   -23454586.010 9 -17969667.32148  20866408.956    20866414.3184
  24412488.114    -6837229.832 7  -4750980.72645  24412487.208    24412501.0094
  21961413.128   -17779895.459 9 -13826935.25847  21961412.610    21961417.6184
  21239112.790   -21761080.084 9 -16934549.67447  21239112.318    21239117.6724
  21253910.325   -19728214.749 9 -15341811.58947  21253910.144    21253915.3584
  23452670.294    -9436835.314 8  -6554595.16145  23452669.555    23452676.7974
 01  6  7  1 14  0.0000000  0  7 21 25 01 14 11 29 20
  22610272.974   -18118848.456 8 -14100370.94646  22610272.464    22610280.5004
  20860804.479   -23484038.343 9 -17992617.13648  20860804.296    20860809.6574
  24396988.067    -6918681.634 7  -4814449.28045  24396987.327    24397000.8484
  21974858.756   -17709238.501 8 -13771877.91447  21974858.232    21974863.2764
  21233865.035   -21788657.214 9 -16956038.32747  21233864.572    21233869.9124
  21263930.645   -19675557.827 9 -15300780.22747  21263930.467    21263935.6764
  23436616.229    -9521199.640 8  -6620333.48245  23436615.479    23436622.6494
 01  6  7  1 14 30.0000000  0  7 21 25 01 14 11 29 20
  22621834.760   -18058091.053 8 -14053027.57846  22621834.290    22621842.2524
  20855298.668   -23512971.459 9 -18015162.36948  20855298.477    20855303.8344
  24381518.483    -6999973.949 7  -4877793.56045  24381517.697    24381531.1014
  21988328.645   -17638453.770 9 -13716721.00947  21988328.137    21988333.1854
  21228721.860   -21815684.745 9 -16977098.72547  21228721.402    21228726.7294
  21273982.242   -19622736.442 9 -15259620.71847  21273982.048    21273987.2584
  23420566.933    -9605539.338 8  -6686052.61045  23420566.090    23420573.3224
 01  6  7  1 15  0.0000000  0  7 21 25 01 14 11 29 20
  22633446.074   -17997073.628 8 -14005481.59546  22633445.592    22633453.5414
  20849892.096   -23541383.055 9 -18037301.22448  20849891.880    20849897.2244
  24366079.326    -7081105.185 7  -4941012.37545  24366078.665    24366091.9864
  22001822.819   -17567541.755 9 -13661464.91947  22001822.285    22001827.3584
  21223683.604   -21842160.883 9 -16997729.46847  21223683.160    21223688.4514
  21284065.059   -19569751.085 9 -15218333.43847  21284064.839    21284070.0274
  23404522.548    -9689852.331 8  -6751750.94245  23404521.807    23404528.9924
 01  6  7  1 15 30.0000000  0  7 21 25 01 14 11 29 20
  22645106.246   -17935798.844 8 -13957735.08046  22645105.820    22645113.7834
  20844584.254   -23569275.631 9 -18059035.65048  20844584.055    20844589.3554
  24350670.427    -7162078.345 8  -5004108.00445  24350669.823    24350682.9724
  22015340.359   -17496506.850 8 -13606113.07147  22015339.807    22015344.8844
  21218749.873   -21868087.736 9 -17017932.19147  21218749.426    21218754.7474
  21294178.152   -19516606.235 9 -15176921.88247  21294177.957    21294183.1494
  23388482.907    -9774141.047 8  -6817430.33945  23388482.151    23388489.3584
 01  6  7  1 16  0.0000000  0  7 21 25 01 14 11 29 20
  22656816.478   -17874261.495 8 -13909783.95846  22656816.072    22656824.0054
  20839376.250   -23596643.804 9 -18080361.44848  20839376.020    20839381.3234
  24335292.650    -7242887.857 8  -5067076.12845  24335292.058    24335305.2024
  22028881.998   -17425345.159 8 -13550662.42547  22028881.453    22028886.5264
  21213921.899   -21893458.935 9 -17037701.94247  21213921.448    21213926.7584
  21304322.313   -19463298.062 9 -15135383.06147  21304322.155    21304327.3254
  23372449.030    -9858399.342 8  -6883086.02945  23372448.261    23372455.4934
 01  6  7  1 16 30.0000000  0  7 21 25 01 14 11 29 20
  22668576.122   -17812464.685 8 -13861630.67046  22668575.652    22668583.6394
  20834267.424   -23623490.668 9 -18101281.04048  20834267.197    20834272.5154
  24319945.397    -7323536.599 8  -5129918.96945  24319944.903    24319957.9294
  22042446.705   -17354061.984 8 -13495117.11847  22042446.202    22042451.3024
  21209199.190   -21918276.926 9 -17057040.62447  21209198.727    21209204.0234
  21314496.760   -19409831.172 9 -15093720.56147  21314496.581    21314501.7494
  23356420.490    -9942629.554 8  -6948719.85045  23356419.697    23356426.8914
 01  6  7  1 17  0.0000000  0  7 21 25 01 14 11 29 20
  22680384.990   -17750408.431 8 -13813275.20646  22680384.576    22680392.6204
  20829258.080   -23649814.755 9 -18121793.26648  20829257.845    20829263.1404
  24304629.001    -7404024.068 8  -5192636.14745  24304628.386    24304641.2644
  22056034.325   -17282658.573 8 -13439478.11947  22056033.826    22056038.9304
  21204581.916   -21942540.699 9 -17075947.44647  21204581.464    21204586.7524
  21324701.073   -19356206.951 9 -15051935.46247  21324700.887    21324706.0844
  23340397.513   -10026830.377 8  -7014330.77845  23340396.730    23340403.8864
 01  6  7  1 17 30.0000000  0  7 21 25 01 14 11 29 20
  22692243.337   -17688092.815 8 -13764717.65146  22692242.847    22692250.9844
  20824348.191   -23675616.117 9 -18141898.17948  20824347.984    20824353.2714
  24289343.145    -7484350.538 8  -5255227.89045  24289342.598    24289355.3604
  22069644.465   -17211137.023 8 -13383747.06247  22069643.973    22069649.0554
  21200070.257   -21966249.736 9 -17094422.00347  21200069.797    21200075.0944
  21334934.970   -19302427.219 9 -15010029.19347  21334934.822    21334939.9944
  23324380.218   -10111001.441 8  -7079918.52645  23324379.428    23324386.6444
 01  6  7  1 18  0.0000000  0  7 21 25 01 14 11 29 20
  22704151.323   -17625516.170 8 -13715956.71646  22704150.813    22704158.9644
  20819538.281   -23700892.001 9 -18161593.62648  20819538.094    20819543.3584
  24274088.397    -7564513.632 8  -5317692.32845  24274087.899    24274100.3924
  22083277.182   -17139496.720 8 -13327923.47847  22083276.676    22083281.7344
  21195664.650   -21989401.151 9 -17112462.05247  21195664.197    21195669.4864
  21345198.730   -19248491.330 9 -14968001.23947  21345198.556    21345203.6494
  23308369.160   -10195139.792 8  -7145480.76545  23308368.382    23308375.5674
 01  6  7  1 18 30.0000000  0  7 21 25 01 14 11 29 20
  22716108.700   -17562680.231 8 -13666993.70846  22716108.165    22716116.3094
  20814828.036   -23725644.394 9 -18180881.15948  20814827.845    20814833.1104
  24258864.291    -7644515.310 8  -5380030.99245  24258863.908    24258876.2784
  22096931.814   -17067741.207 8 -13272010.10647  22096931.283    22096936.3724
  21191364.952   -22011996.301 9 -17130068.64647  21191364.513    21191369.7694
  21355491.510   -19194402.881 9 -14925854.40847  21355491.301    21355496.3304
  23292364.080   -10279246.414 8  -7211018.27545  23292363.313    23292370.5204
 01  6  7  1 19  0.0000000  0  7 21 25 01 14 11 29 20
  22728115.844   -17499582.409 8 -13617826.64946  22728115.333    22728123.4704
  20810218.182   -23749869.216 9 -18199757.59548  20810217.976    20810223.2274
  24243671.737    -7724351.708 8  -5442240.85245  24243671.226    24243683.6604
  22110608.725   -16995868.519 8 -13216005.44747  22110608.205    22110613.3264
  21187171.861   -22034030.959 9 -17147238.49047  21187171.396    21187176.6724
  21365813.651   -19140159.665 9 -14883586.98547  21365813.435    21365818.4814
  23276365.865   -10363317.050 8  -7276527.77045  23276365.088    23276372.3474
 01  6  7  1 19 30.0000000  0  7 21 25 01 14 11 29 20
  22740172.669   -17436223.639 8 -13568456.25946  22740172.137    22740180.3204
  20805708.474   -23773567.565 9 -18218223.80248  20805708.278    20805713.5444
  24228510.361    -7804024.127 8  -5504322.95645  24228509.792    24228522.1404
  22124307.327   -16923881.984 8 -13159912.06947  22124306.811    22124311.9224
  21183085.310   -22055505.935 9 -17163972.22547  21183084.846    21183090.1104
  21376164.662   -19085764.795 9 -14841201.38347  21376164.459    21376169.5394
  23260374.345   -10447352.230 8  -7342009.61045  23260373.589    23260380.8964
 01  6  7  1 20  0.0000000  0  7 21 25 01 14 11 29 20
  22752278.772   -17372605.687 8 -13518883.90946  22752278.285    22752286.4814
  20801298.737   -23796740.674 9 -18236280.72648  20801298.551    20801303.7924
  24213379.913    -7883534.157 7  -5566278.54845  24213379.297    24213391.4884
  22138027.038   -16851784.481 8 -13103732.21947  22138026.533    22138031.5844
  21179105.100   -22076422.117 9 -17180270.53547  21179104.641    21179109.8884
  21386543.934   -19031221.376 9 -14798700.03347  21386543.684    21386548.8324
  23244389.458   -10531352.783 8  -7407464.48045  23244388.695    23244396.0444
 01  6  7  1 20 30.0000000  0  7 21 25 01 14 11 29 20
  22764434.584   -17308727.424 8 -13469108.73246  22764433.991    22764442.1954
  20796989.351   -23819386.593 9 -18253926.85048  20796989.154    20796994.3784
  24198280.585    -7962880.169 8  -5628106.30945  24198280.130    24198292.1024
  22151767.837   -16779576.424 8 -13047466.22646  22151767.321    22151772.3674
  21175231.572   -22096777.578 9 -17196131.92047  21175231.103    21175236.3394
  21396951.484   -18976529.400 9 -14756082.91947  21396951.239    21396956.4044
  23228411.544   -10615316.340 8  -7472890.52645  23228410.846    23228418.2114
 01  6  7  1 21  0.0000000  0  7 21 25 01 14 11 29 20
  22776639.734   -17244588.952 8 -13419130.78746  22776639.191    22776647.3944
  20792780.305   -23841505.260 9 -18271162.12648  20792780.078    20792785.2844
  24183212.376    -8042062.099 7  -5689806.23245  24183212.001    24183224.0444
  22165529.316   -16707259.352 8 -12991115.29146  22165528.814    22165533.8924
  21171464.915   -22116571.615 9 -17211555.83047  21171464.440    21171469.6414
  21407387.097   -18921690.245 9 -14713351.12647  21407386.854    21407391.9984
  23212440.930   -10699242.077 8  -7538287.09645  23212440.193    23212447.5064
 01  6  7  1 21 30.0000000  0  7 21 25 01 14 11 29 20
  22788894.699   -17180188.979 8 -13368949.07646  22788894.157    22788902.4004
  20788671.922   -23863094.855 9 -18287985.14148  20788671.702    20788676.8964
  24168175.899    -8121078.434 8  -5751377.13045  24168175.501    24168187.4604
  22179311.541   -16634833.357 8 -12934679.46846  22179311.032    22179316.1434
  21167805.461   -22135802.111 9 -17226540.61747  21167804.974    21167810.2064
  21417850.678   -18866703.845 9 -14670504.59547  21417850.441    21417855.5984
  23196478.001   -10783127.470 8  -7603652.22545  23196477.243    23196484.4944
 01  6  7  1 22  0.0000000  0  7 21 25 01 14 11 29 20
  22801199.205   -17115528.545 8 -13318564.41146  22801198.688    22801206.9534
  20784664.046   -23884156.200 9 -18304396.53648  20784663.817    20784669.0194
  24153170.817    -8199929.909 7  -5812819.57345  24153170.289    24153182.2434
  22193113.918   -16562300.959 8 -12878160.74846  22193113.437    22193118.6424
  21164253.134   -22154469.400 9 -17241086.54747  21164252.683    21164257.9124
  21428341.736   -18811572.760 9 -14627545.32847  21428341.508    21428346.6854
  23180522.661   -10866972.743 8  -7668986.10045  23180521.909    23180529.1534
 01  6  7  1 22 30.0000000  0  7 21 25 01 14 11 29 20
  22813553.416   -17050607.647 8 -13267976.79046  22813552.826    22813561.1194
  20780756.827   -23904688.475 9 -18320395.66648  20780756.612    20780761.7874
  24138196.965    -8278615.884 7  -5874133.06045  24138196.504    24138208.3514
  22206936.505   -16489663.214 8 -12821559.94146  22206936.008    22206941.1904
  21160808.221   -22172572.627 9 -17255192.94447  21160807.748    21160812.9704
  21438860.199   -18756297.949 9 -14584474.05847  21438859.946    21438865.1204
  23164575.373   -10950776.267 8  -7734287.43345  23164574.678    23164581.7624
 01  6  7  1 23  0.0000000  0  7 21 25 01 14 11 29 20
  22825957.245   -16985425.097 8 -13217185.28346  22825956.739    22825965.0654
  20776950.586   -23924690.336 9 -18335981.49048  20776950.357    20776955.5074
  24123255.014    -8357135.486 8  -5935316.90345  24123254.389    24123266.2144
  22220778.987   -16416920.646 8 -12764877.44646  22220778.485    22220783.6284
  21157470.860   -22190110.285 9 -17268858.64347  21157470.398    21157475.6504
  21449405.896   -18700879.909 9 -14541291.19347  21449405.655    21449410.8474
  23148636.360   -11034536.383 8  -7799554.96346  23148635.613    23148642.6814
 01  6  7  1 23 30.0000000  0  7 21 25 01 14 11 29 20
  22838410.490   -16919983.220 8 -13166191.69646  22838409.998    22838418.2994
  20773244.918   -23944163.560 9 -18351155.38748  20773244.692    20773249.8264
  24108344.441    -8435490.227 8  -5996372.29745  24108343.831    24108355.4494
  22234640.792   -16344076.628 8 -12708115.90746  22234640.279    22234645.3964
  21154240.946   -22207083.655 9 -17282084.63347  21154240.474    21154245.7204
  21459978.260   -18645321.728 9 -14497999.11847  21459978.016    21459983.1564
  23132705.392   -11118253.830 8  -7864789.23146  23132704.642    23132711.6514
 01  6  7  1 24  0.0000000  0  7 21 25 01 14 11 29 20
  22850913.391   -16854280.409 8 -13114994.79346  22850912.892    22850921.1924
  20769640.184   -23963106.443 9 -18365916.03348  20769639.977    20769645.0824
  24093465.404    -8513678.642 7  -6057298.08445  24093464.953    24093476.4144
  22248521.870   -16271131.447 8 -12651275.53546  22248521.329    22248526.5034
  21151118.723   -22223490.968 9 -17294869.54147  21151118.246    21151123.4824
  21470577.273   -18589623.603 9 -14454597.99947  21470577.039    21470582.1924
  23116783.043   -11201926.252 8  -7929988.42446  23116782.265    23116789.1704
 01  6  7  1 24 30.0000000  0  7 21 25 01 14 11 29 20
  22863465.993   -16788316.087 8 -13063594.13346  22863465.541    22863473.8624
  20766136.526   -23981518.212 9 -18380262.82748  20766136.273    20766141.3774
  24078618.227    -8591699.587 7  -6118093.39245  24078617.840    24078629.1824
  22262422.027   -16198085.562 8 -12594356.69246  22262421.526    22262426.6694
  21148104.573   -22239330.547 9 -17307212.06747  21148104.102    21148109.3424
  21481202.813   -18533785.807 9 -14411088.04547  21481202.593    21481207.7954
  23100869.498   -11285551.686 8  -7995151.01646  23100868.752    23100875.5674
 01  6  7  1 25  0.0000000  0  7 21 25 01 14 11 29 20
  22876068.321   -16722091.025 8 -13011990.27346  22876067.817    22876076.1654
  20762733.876   -23999398.922 9 -18394195.81048  20762733.659    20762738.7444
  24063803.015    -8669553.581 8  -6178758.58845  24063802.516    24063813.8344
  22276340.938   -16124940.917 8 -12537360.90046  22276340.440    22276345.6304
  21145198.393   -22254602.559 9 -17319112.32447  21145197.904    21145203.1594
  21491854.578   -18477810.427 9 -14367470.88247  21491854.379    21491859.6024
  23084965.101   -11369129.643 8  -8060276.59246  23084964.302    23084971.0784
 01  6  7  1 25 30.0000000  0  7 21 25 01 14 11 29 20
  22888719.907   -16655606.938 8 -12960184.58946  22888719.379    22888727.8034
  20759432.077   -24016749.964 9 -18407716.06548  20759431.844    20759436.9044
  24049019.271    -8747241.897 8  -6239294.69245  24049018.830    24049030.0684
  22290278.245   -16051700.228 8 -12480290.26946  22290277.762    22290282.8704
  21142400.058   -22269307.740 9 -17330570.90047  21142399.581    21142404.8174
  21502531.966   -18421699.986 9 -14323748.47847  21502531.797    21502537.0364
  23069069.629   -11452660.352 8  -8125365.35946  23069068.847    23069075.6974
 01  6  7  1 26  0.0000000  0  7 21 25 01 14 11 29 20
  22901421.433   -16588860.419 8 -12908174.40046  22901420.916    22901429.3334
  20756231.698   -24033567.847 9 -18420820.87048  20756231.470    20756236.5264
  24034267.714    -8824761.253 8  -6299699.13145  24034267.343    24034278.2934
  22304234.118   -15978361.852 8 -12423143.51146  22304233.601    22304238.7054
  21139710.223   -22283442.911 9 -17341585.31547  21139709.763    21139714.9354
  21513235.505   -18365452.600 9 -14279919.35947  21513235.337    21513240.5864
  23053183.978   -11536139.779 8  -8190414.15046  23053183.174    23053189.9934
 01  6  7  1 26 30.0000000  0  7 21 25 01 14 11 29 20
  22914172.450   -16521853.942 8 -12855961.66246  22914171.909    22914180.2714
  20753132.454   -24049854.459 9 -18433511.70148  20753132.226    20753137.2574
  24019547.844    -8902113.565 8  -6359973.40145  24019547.364    24019558.4114
  22318207.880   -15904929.530 8 -12365923.55746  22318207.357    22318212.4644
  21137128.541   -22297009.630 9 -17352156.77947  21137128.071    21137133.2904
  21523964.321   -18309072.150 9 -14235986.55247  21523964.179    21523969.4054
  23037307.898   -11619568.994 8  -8255423.84646  23037307.124    23037313.8264
 01  6  7  1 27  0.0000000  0  7 21 25 01 14 11 29 20
  22926972.824   -16454587.529 8 -12803546.35246  22926972.337    22926980.6934
  20750134.412   -24065609.145 9 -18445788.04348  20750134.171    20750139.1874
  24004859.871    -8979298.122 8  -6420116.97445  24004859.403    24004870.4594
  22332199.297   -15831404.110 8 -12308631.04846  22332198.800    22332203.9614
  21134655.280   -22310006.696 9 -17362284.35447  21134654.833    21134660.0524
  21534718.407   -18252559.244 9 -14191950.53747  21534718.265    21534723.4924
  23021441.706   -11702946.341 8  -8320393.10446  23021440.938    23021447.5184
 01  6  7  1 27 30.0000000  0  7 21 25 01 14 11 29 20
  22939823.097   -16387059.979 8 -12750927.57446  22939822.491    22939830.8824
  20747237.674   -24080831.236 9 -18457649.37648  20747237.466    20747242.4834
  23990204.043    -9056314.148 8  -6480129.21945  23990203.578    23990214.6164
  22346208.331   -15757785.870 8 -12251266.22846  22346207.882    22346213.0954
  21132290.596   -22322433.266 9 -17371967.39447  21132290.120    21132295.3014
  21545497.692   -18195914.189 9 -14147811.55047  21545497.522    21545502.7244
  23005585.704   -11786269.901 8  -8385320.45646  23005584.935    23005591.4834
 01  6  7  1 28  0.0000000  0  7 21 25 01 14 11 29 20
  22952722.661   -16319272.597 8 -12698106.32746  22952722.051    22952730.5084
  20744442.289   -24095521.120 9 -18469095.99948  20744442.062    20744447.0634
  23975580.179    -9133162.035 8  -6540010.44845  23975579.712    23975590.5684
  22360234.733   -15684077.139 8 -12193830.88946  22360234.232    22360239.4394
  21130034.420   -22334289.372 9 -17381205.91347  21130033.972    21130039.1574
  21556301.710   -18139139.041 9 -14103571.19247  21556301.523    21556306.7364
  22989739.991   -11869539.205 8  -8450205.53746  22989739.205    22989745.7984
 01  6  7  1 28 30.0000000  0  7 21 25 01 14 11 29 20
  22965671.607   -16251224.924 8 -12645082.23646  22965671.117    22965679.6294
  20741748.228   -24109678.181 9 -18480127.43548  20741748.037    20741753.0384
  23960988.533    -9209840.971 8  -6599760.01945  23960988.023    23960998.8104
  22374278.173   -15610278.497 8 -12136325.48446  22374277.670    22374282.8224
  21127887.032   -22345574.012 9 -17389999.13447  21127886.569    21127891.7754
  21567130.232   -18082234.389 9 -14059229.91447  21567130.066    21567135.3044
  22973904.957   -11952752.423 8  -8515046.90646  22973904.197    22973910.7304
 01  6  7  1 29  0.0000000  0  7 21 25 01 14 11 29 20
  22978670.385   -16182916.897 8 -12591855.28845  22978669.828    22978678.3354
  20739155.584   -24123302.459 9 -18490743.71848  20739155.382    20739160.3774
  23946429.095    -9286350.826 8  -6659377.83145  23946428.553    23946439.3604
  22388338.466   -15536391.205 8 -12078751.00546  22388337.986    22388343.1164
  21125848.437   -22356286.826 9 -17398346.77747  21125847.980    21125853.1964
  21577983.243   -18025201.289 9 -14014788.54847  21577983.093    21577988.3804
  22958080.824   -12035908.413 8  -8579843.67846  22958080.092    22958086.6024
 01  6  7  1 29 30.0000000  0  7 21 25 01 14 11 29 20
  22991718.627   -16114348.455 8 -12538425.41645  22991718.025    22991726.5344
  20736664.369   -24136393.659 9 -18500944.62348  20736664.166    20736669.1464
  23931901.685    -9362691.509 8  -6718863.84545  23931901.130    23931912.0644
  22402415.393   -15462416.602 8 -12021108.49046  22402414.931    22402420.0594
  21123918.756   -22366427.413 9 -17406248.53847  21123918.296    21123923.4654
  21588860.515   -17968041.043 9 -13970248.11547  21588860.343    21588865.6474
  22942267.784   -12119006.002 8  -8644594.95246  22942267.009    22942273.4874
 01  6  7  1 30  0.0000000  0  7 21 25 01 14 11 29 20
  23004816.171   -16045520.351 8 -12484793.21845  23004815.627    23004824.1654
  20734274.481   -24148952.469 9 -18510730.67748  20734274.291    20734279.2824
  23917406.532    -9438863.272 8  -6778218.24145  23917405.945    23917416.7954
  22416508.605   -15388356.521 8 -11963399.36946  22416508.144    22416513.3084
  21122097.878   -22375995.938 9 -17413704.52847  21122097.416    21122102.6094
  21599761.682   -17910755.449 9 -13925610.01347  21599761.476    21599766.7864
  22926466.005   -12202044.503 8  -8709300.18246  22926465.269    22926471.7624
 01  6  7  1 30 30.0000000  0  7 21 25 01 14 11 29 20
  23017963.238   -15976431.870 8 -12430958.11845  23017962.776    23017971.3934
  20731986.260   -24160977.157 9 -18520100.52748  20731986.045    20731991.0114
  23902943.786    -9514864.878 8  -6837440.05345  23902943.158    23902953.8774
  22430618.020   -15314210.953 8 -11905623.63946  22430617.576    22430622.8154
  21120386.260   -22384990.871 9 -17420713.56647  21120385.811    21120390.9914
  21610686.645   -17853344.413 9 -13880874.15947  21610686.443    21610691.7134
  22910675.983   -12285021.291 8  -8773957.33646  22910675.240    22910681.7394
 01  6  7  1 31  0.0000000  0  7 21 25 01 14 11 29 20
  23031159.720   -15907084.304 8 -12376921.13245  23031159.160    23031167.8444
  20729799.355   -24172469.091 9 -18529055.24448  20729799.139    20729804.1144
  23888513.298    -9590696.956 8  -6896529.74745  23888512.657    23888523.3114
  22444743.405   -15239982.059 8 -11847782.97746  22444742.938    22444748.1574
  21118783.586   -22393412.970 9 -17427276.24047  21118783.111    21118788.3254
  21621635.059   -17795809.933 9 -13836042.10947  21621634.844    21621640.1514
  22894897.678   -12367936.158 8  -8838566.21646  22894896.903    22894903.5054
 01  6  7  1 31 30.0000000  0  7 21 25 01 14 11 29 20
  23044405.704   -15837477.122 8 -12322681.86245  23044405.130    23044413.7254
  20727714.008   -24183427.527 9 -18537594.25548  20727713.812    20727718.7754
  23874115.066    -9666358.843 8  -6955486.84945  23874114.405    23874125.1064
  22458884.477   -15165670.568 8 -11789877.94546  22458883.988    22458889.1314
  21117290.069   -22401261.399 9 -17433391.89647  21117289.614    21117294.8134
  21632606.751   -17738152.948 9 -13791114.60647  21632606.568    21632611.9484
  22879131.477   -12450787.622 8  -8903125.70946  22879130.658    22879137.3294
 01  6  7  1 32  0.0000000  0  7 21 25 01 14 11 29 20
  23057700.813   -15767611.044 8 -12268240.83545  23057700.166    23057708.9004
  20725730.063   -24193853.299 9 -18545718.20148  20725729.846    20725734.8134
  23859749.148    -9741851.163 8  -7014311.80445  23859748.511    23859759.2674
  22473040.857   -15091278.619 8 -11731910.22546  22473040.338    22473045.5134
  21115905.636   -22408536.523 9 -17439060.82347  21115905.163    21115910.3884
  21643601.467   -17680375.255 9 -13746093.04547  21643601.296    21643606.6694
  22863377.396   -12533574.904 8  -8967635.19846  22863376.633    22863383.3324
 01  6  7  1 32 30.0000000  0  7 21 25 01 14 11 29 20
  23071045.482   -15697484.762 8 -12213597.07045  23071044.808    23071053.6124
  20723847.717   -24203745.068 9 -18553426.04148  20723847.479    20723852.4234
  23845415.993    -9817172.203 8  -7073003.30845  23845415.254    23845425.8494
  22487212.555   -15016805.875 8 -11673879.54546  22487212.057    22487217.2524
  21114630.596   -22415236.819 9 -17444281.83147  21114630.146    21114635.3604
  21654619.350   -17622476.415 8 -13700977.08247  21654619.129    21654624.4974
  22847636.182   -12616295.144 8  -9032092.44846  22847635.412    22847642.1014
 01  6  7  1 33  0.0000000  0  7 21 25 01 14 11 29 20
  23084439.353   -15627099.891 8 -12158751.81145  23084438.675    23084447.5094
  20722066.755   -24213103.698 9 -18560718.45148  20722066.552    20722071.4914
  23831114.951    -9892323.177 8  -7131562.28345  23831114.283    23831124.9764
  22501399.187   -14942254.399 8 -11615787.53146  22501398.726    22501403.9584
  21113464.779   -22421363.253 9 -17449055.67447  21113464.323    21113469.5684
  21665659.719   -17564458.780 8 -13655768.55847  21665659.526    21665664.9204
  22831907.689   -12698948.540 8  -9096497.61046  22831906.950    22831913.6174
 01  6  7  1 33 30.0000000  0  7 21 25 01 14 11 29 20
  23097882.291   -15556456.906 8 -12103705.41845  23097881.748    23097890.4764
  20720387.162   -24221929.898 9 -18567595.97448  20720386.975    20720391.9104
  23816846.259    -9967304.114 8  -7189988.77745  23816845.750    23816856.3364
  22515600.543   -14867626.290 8 -11557635.78446  22515600.034    22515605.1784
  21112408.148   -22426915.859 9 -17453382.37847  21112407.694    21112412.9194
  21676722.470   -17506323.810 8 -13610468.59147  21676722.297    21676727.6364
  22816192.167   -12781533.997 8  -9160849.82646  22816191.399    22816198.0804
 01  6  7  1 34  0.0000000  0  7 21 25 01 14 11 29 20
  23111374.679   -15485553.917 8 -12048456.42945  23111374.188    23111382.9324
  20718809.269   -24230221.684 9 -18574057.07648  20718809.057    20718813.9794
  23802610.555   -10042112.757 8  -7248281.00945  23802609.986    23802620.5814
  22529816.627   -14792920.396 8 -11499423.43346  22529816.113    22529821.2924
  21111461.131   -22431892.475 9 -17457260.25747  21111460.680    21111465.8774
  21687807.779   -17448070.359 9 -13565076.31647  21687807.583    21687812.9134
  22800490.148   -12864048.054 8  -9225146.40746  22800489.340    22800496.0644
 01  6  7  1 34 30.0000000  0  7 21 25 01 14 11 29 20
  23124916.580   -15414391.384 8 -11993005.20445  23124915.984    23124924.8184
  20717332.998   -24237979.400 9 -18580102.01748  20717332.809    20717337.7074
  23788407.421   -10116749.248 8  -7306439.11645  23788406.909    23788417.4774
  22544047.238   -14718138.154 8 -11441151.58646  22544046.741    22544051.9894
  21110623.726   -22436293.069 9 -17460689.28847  21110623.290    21110628.5044
  21698915.304   -17389699.872 9 -13519592.83647  21698915.144    21698920.4344
  22784801.865   -12946489.796 8  -9289386.64646  22784801.130    22784807.7954
 01  6  7  1 35  0.0000000  0  7 21 25 01 14 11 29 20
  23138507.179   -15342972.226 8 -11937354.01945  23138506.675    23138515.4604
  20715957.848   -24245205.852 9 -18585732.98648  20715957.641    20715962.5284
  23774236.717   -10191216.116 8  -7364465.05945  23774236.229    23774246.7334
  22558291.603   -14643283.444 8 -11382823.27546  22558291.090    22558296.3734
  21109895.443   -22440120.212 9 -17463671.47647  21109895.014    21109900.2104
  21710044.377   -17331216.236 8 -13474021.19147  21710044.209    21710049.5244
  22769127.187   -13028860.440 8  -9353571.48546  22769126.422    22769133.0514
 01  6  7  1 35 30.0000000  0  7 21 25 01 14 11 29 20
  23152147.203   -15271294.295 8 -11881501.17945  23152146.643    23152155.4244
  20714684.139   -24251898.903 9 -18590948.31948  20714683.933    20714688.8364
  23760098.735   -10265511.047 8  -7422357.02045  23760098.237    23760108.6544
  22572550.008   -14568355.255 8 -11324437.70346  22572549.489    22572554.7624
  21109276.715   -22443371.580 9 -17466205.00147  21109276.292    21109281.5024
  21721195.201   -17272618.271 8 -13428360.45447  21721195.039    21721200.3734
  22753466.817   -13111156.258 8  -9417698.02946  22753465.973    22753472.5654
 01  6  7  1 36  0.0000000  0  7 21 25 01 14 11 29 20
  23165836.320   -15199357.934 8 -11825446.98745  23165835.715    23165844.5384
  20713512.019   -24258058.499 9 -18595747.97248  20713511.814    20713516.6834
  23745993.450   -10339633.738 8  -7480114.76645  23745992.911    23746003.4154
  22586822.143   -14493354.625 8 -11265995.68546  22586821.649    22586826.9644
  21108767.633   -22446046.949 9 -17468289.70547  21108767.204    21108772.3704
  21732367.591   -17213906.953 8 -13382611.39547  21732367.445    21732372.7904
  22737820.880   -13193376.066 8  -9481765.33746  22737820.045    22737826.5614
 01  6  7  1 36 30.0000000  0  7 21 25 01 14 11 29 20
  23179574.280   -15127164.870 8 -11769192.74845  23179573.665    23179582.4804
  20712440.974   -24263686.650 9 -18600133.51448  20712440.746    20712445.6394
  23731920.582   -10413585.906 8  -7537739.64245  23731920.144    23731930.5104
  22601107.613   -14418284.112 8 -11207499.21646  22601107.139    22601112.4134
  21108367.824   -22448147.994 9 -17469926.87847  21108367.371    21108372.5664
  21743561.046   -17155084.959 8 -13336776.09147  21743560.896    21743566.3024
  22722189.331   -13275520.199 8  -9545773.68846  22722188.506    22722194.9484
 01  6  7  1 37  0.0000000  0  7 21 25 01 14 11 29 20
  23193361.321   -15054714.204 8 -11712737.79945  23193360.681    23193369.5064
  20711471.232   -24268782.391 9 -18604104.19048  20711471.057    20711475.9284
  23717880.594   -10487366.219 8  -7595230.59145  23717880.154    23717890.3834
  22615406.378   -14343143.922 8 -11148948.46646  22615405.900    22615411.1674
  21108077.490   -22449673.621 9 -17471115.68147  21108077.062    21108082.2224
  21754775.645   -17096152.112 9 -13290854.42247  21754775.512    21754780.8694
  22706572.662   -13357586.112 8  -9609721.09846  22706571.908    22706578.2224
 01  6  7  1 37 30.0000000  0  7 21 25 01 14 11 29 20
  23207197.118   -14982006.587 8 -11656082.61745  23207196.602    23207205.3754
  20710602.728   -24273346.411 9 -18607660.53848  20710602.518    20710607.3984
  23703873.114   -10560975.215 8  -7652588.07145  23703872.670    23703882.7204
  22629718.085   -14267935.498 8 -11090344.53646  22629717.582    22629722.8604
  21107896.619   -22450624.244 9 -17471856.43147  21107896.167    21107901.3434
  21766011.064   -17037110.293 9 -13244847.83247  21766010.874    21766016.2284
  22690971.083   -13439572.869 8  -9673606.82046  22690970.348    22690976.5574
 01  6  7  1 38  0.0000000  0  7 21 25 01 14 11 29 20
  23221082.197   -14909041.110 8 -11599226.52445  23221081.599    23221090.4454
  20709835.598   -24277377.529 9 -18610801.64448  20709835.419    20709840.2914
  23689898.638   -10634411.208 8  -7709810.73645  23689898.205    23689908.1104
  22644042.777   -14192658.640 8 -11031687.27446  22644042.306    22644047.5854
  21107825.381   -22450998.546 9 -17472148.10447  21107824.927    21107830.1074
  21777267.213   -16977958.816 8 -13198755.80047  21777267.042    21777272.4064
  22675385.153   -13521477.561 8  -9737428.59946  22675384.418    22675390.5854
 01  6  7  1 38 30.0000000  0  7 21 25 01 14 11 29 20
  23235015.783   -14835819.769 8 -11542171.04145  23235015.234    23235024.1204
  20709169.567   -24280877.544 9 -18613528.89948  20709169.360    20709174.2234
  23675956.708   -10707675.568 8  -7766899.65145  23675956.198    23675966.2834
  22658379.931   -14117316.037 8 -10972978.78046  22658379.490    22658384.8264
  21107863.560   -22450797.966 9 -17471991.81547  21107863.101    21107868.2534
  21788543.690   -16918700.334 8 -13152580.37547  21788543.535    21788548.9174
  22659814.664   -13603300.531 8  -9801186.70246  22659813.967    22659820.1314
 01  6  7  1 39  0.0000000  0  7 21 25 01 14 11 29 20
  23248998.362   -14762340.939 8 -11484914.92245  23248997.774    23249006.8084
  20708604.798   -24283845.219 9 -18615841.34748  20708604.591    20708609.4564
  23662047.719   -10780766.887 8  -7823853.75545  23662047.236    23662057.2404
  22672729.790   -14041907.260 8 -10914218.72746  22672729.336    22672734.6994
  21108011.411   -22450021.084 9 -17471386.45747  21108010.988    21108016.1344
  21799840.649   -16859334.441 8 -13106321.26347  21799840.514    21799845.8834
  22644260.398   -13685038.866 8  -9864878.84646  22644259.655    22644265.8534
 01  6  7  1 39 30.0000000  0  7 21 25 01 14 11 29 20
  23263029.707   -14688606.524 8 -11427459.65645  23263029.060    23263038.1184
  20708141.035   -24286282.114 9 -18617740.20348  20708140.842    20708145.7174
  23648171.627   -10853686.135 8  -7880673.77945  23648171.032    23648180.8334
  22687091.853   -13966434.473 8 -10855408.80346  22687091.343    22687096.7454
  21108268.676   -22448669.199 9 -17470333.05147  21108268.230    21108273.4044
  21811157.719   -16799863.347 8 -13059980.17547  21811157.540    21811162.8894
  22628722.182   -13766692.417 8  -9928504.93146  22628721.452    22628727.6574
 01  6  7  1 40  0.0000000  0  7 21 25 01 14 11 29 20
  23277109.604   -14614616.774 8 -11369805.41745  23277109.113    23277118.0194
  20707778.197   -24288188.655 9 -18619225.79148  20707778.044    20707782.9004
  23634328.125   -10926433.484 8  -7937359.84345  23634327.545    23634337.2904
  22701465.770   -13890899.106 8 -10796550.11446  22701465.272    22701470.7614
  21108635.292   -22446742.582 9 -17468831.79747  21108634.846    21108640.0094
  21822494.473   -16740288.148 8 -13013557.95647  21822494.302    21822499.6824
  22613200.413   -13848259.554 8  -9992063.68246  22613199.688    22613205.9184
 01  6  7  1 40 30.0000000  0  7 21 25 01 14 11 29 20
  23291238.268   -14540371.053 8 -11311951.73145  23291237.662    23291246.6204
  20707516.445   -24289564.298 9 -18620297.69848  20707516.245    20707521.1094
  23620517.496   -10999007.765 8  -7993911.05745  23620516.987    23620526.6694
  22715851.670   -13815301.033 8 -10737642.55846  22715851.153    22715856.6354
  21109111.443   -22444240.476 9 -17466882.11047  21109111.006    21109116.1674
  21833851.099   -16680608.755 8 -12967054.55647  21833850.950    21833856.2854
  22597695.569   -13929738.055 8 -10055553.36346  22597694.841    22597700.9854
 01  6  7  1 41  0.0000000  0  7 21 25 01 14 11 29 20
  23305415.312   -14465870.253 8 -11253899.27745  23305414.738    23305423.7664
  20707355.393   -24290410.148 9 -18620956.78048  20707355.256    20707360.0984
  23606739.826   -11071409.772 8  -8050328.04245  23606739.305    23606748.7894
  22730249.109   -13739642.195 8 -10678687.65746  22730248.527    22730254.0104
  21109696.935   -22441163.699 9 -17464484.63347  21109696.491    21109701.6674
  21845227.231   -16620827.054 8 -12920471.44447  21845227.034    21845232.3614
  22582207.734   -14011127.265 8 -10118973.47646  22582206.984    22582213.0144
 01  6  7  1 41 30.0000000  0  7 21 25 01 14 11 29 20
  23319640.828   -14391114.845 8 -11195648.42645  23319640.259    23319649.4164
  20707295.207   -24290726.539 9 -18621203.29548  20707295.048    20707299.8954
  23592994.989   -11143639.125 8  -8106610.48645  23592994.470    23593003.8334
  22744657.913   -13663923.427 8 -10619686.05246  22744657.381    22744662.8734
  21110391.761   -22437512.315 9 -17461639.40347  21110391.330    21110396.5314
  21856622.643   -16560943.931 8 -12873809.29147  21856622.465    21856627.8204
  22566737.191   -14092425.504 8 -10182322.70846  22566736.433    22566742.3714
 01  6  7  1 42  0.0000000  0  7 21 25 01 14 11 29 20
  23333914.884   -14316104.721 8 -11137199.10545  23333914.228    23333923.4114
  20707335.742   -24290513.341 9 -18621037.14548  20707335.600    20707340.4294
  23579282.970   -11215695.398 8  -8162758.07245  23579282.412    23579291.9054
  22759078.004   -13588145.606 8 -10560638.44246  22759077.498    22759082.9674
  21111195.992   -22433286.141 9 -17458346.28847  21111195.543    21111200.7394
  21868037.194   -16500959.922 8 -12827068.53447  21868037.043    21868042.4614
  22551284.196   -14173631.046 8 -10245599.69846  22551283.442    22551289.3664
 01  6  7  1 42 30.0000000  0  7 21 25 01 14 11 29 20
  23348237.320   -14240839.767 8 -11078551.20045  23348236.752    23348246.0054
  20707477.064   -24289770.664 9 -18620458.41148  20707476.892    20707481.7034
  23565603.986   -11287578.218 8  -8218770.47645  23565603.463    23565612.9144
  22773509.189   -13512309.248 8 -10501545.19346  22773508.669    22773514.0894
  21112109.612   -22428485.093 9 -17454605.21447  21112109.131    21112114.3484
  21879470.872   -16440875.565 8 -12780249.56847  21879470.728    21879476.2034
  22535849.238   -14254742.125 8 -10308803.05746  22535848.447    22535854.4314
 01  6  7  1 43  0.0000000  0  7 21 25 01 14 11 29 20
  23362608.365   -14165320.468 8 -11019705.12545  23362607.633    23362616.9554
  20707719.008   -24288499.128 9 -18619467.58248  20707718.855    20707723.6904
  23551957.998   -11359287.593 8  -8274647.76945  23551957.440    23551966.8694
  22787951.279   -13436415.247 8 -10442407.04546  22787950.820    22787956.3224
  21113132.571   -22423109.277 9 -17450416.27447  21113132.103    21113137.3284
  21890923.480   -16380691.842 8 -12733353.18247  21890923.339    21890928.7944
  22520432.522   -14335756.945 8 -10371931.41846  22520431.780    22520437.7794
 01  6  7  1 43 30.0000000  0  7 21 25 01 14 11 29 20
  23377027.593   -14089546.856 8 -10960660.86845  23377027.040    23377036.3444
  20708061.568   -24286698.791 9 -18618064.70148  20708061.437    20708066.2604
  23538345.119   -11430823.050 8  -8330389.53745  23538344.644    23538354.0944
  22802404.253   -13360464.519 8 -10383224.69546  22802403.794    22802409.3044
  21114264.893   -22417158.944 9 -17445779.66147  21114264.449    21114269.6464
  21902394.886   -16320409.621 8 -12686380.04847  21902394.727    21902400.1114
  22505034.376   -14416674.052 8 -10434983.64846  22505033.670    22505039.6614
 01  6  7  1 44  0.0000000  0  7 21 25 01 14 11 29 20
  23391494.835   -14013521.265 8 -10901420.27145  23391494.345    23391503.6454
  20708504.385   -24284371.795 9 -18616251.43848  20708504.221    20708509.0404
  23524765.011   -11502186.522 8  -8385997.27545  23524764.485    23524773.9484
  22816867.542   -13284459.852 8 -10324000.31946  22816867.002    22816872.5854
  21115506.142   -22410636.156 9 -17440696.97047  21115505.709    21115510.9314
  21913884.603   -16260031.401 9 -12639332.10447  21913884.394    21913889.7174
  22489654.881   -14497493.746 8 -10497959.97246  22489654.137    22489660.0834
 01  6  7  1 44 30.0000000  0  7 21 25 01 14 11 29 20
  23406010.238   -13937242.885 8 -10841982.70145  23406009.786    23406019.0744
  20709047.485   -24281517.715 9 -18614027.46248  20709047.345    20709052.1454
  23511217.855   -11573376.686 8  -8441469.96245  23511217.304    23511226.7214
  22831341.071   -13208400.910 8 -10264733.63246  22831340.572    22831346.1484
  21116856.554   -22403539.943 9 -17435167.46247  21116856.085    21116861.3104
  21925392.469   -16199557.021 8 -12592209.23247  21925392.257    21925397.6074
  22474294.395   -14578213.247 8 -10560858.21646  22474293.661    22474299.5714
 01  6  7  1 45  0.0000000  0  7 21 25 01 14 11 29 20
  23420573.613   -13860712.359 8 -10782348.65945  23420573.205    23420582.4724
  20709690.710   -24278137.457 9 -18611393.47648  20709690.580    20709695.3674
  23497703.494   -11644393.808 8  -8496807.85045  23497703.059    23497712.3394
  22845824.707   -13132289.010 8 -10205425.69146  22845824.235    22845829.8174
  21118315.870   -22395870.918 9 -17429191.60747  21118315.424    21118320.6454
  21936918.381   -16138987.795 8 -12545012.46047  21936918.207    21936923.5594
  22458953.263   -14658831.299 8 -10623677.41446  22458952.521    22458958.4594
 01  6  7  1 45 30.0000000  0  7 21 25 01 14 11 29 20
  23435185.215   -13783928.716 8 -10722517.35245  23435184.749    23435193.9724
  20710434.238   -24274230.229 9 -18608348.86548  20710434.055    20710438.8694
  23484222.486   -11715236.614 8  -8552009.87745  23484221.962    23484231.2594
  22860318.545   -13056123.815 8 -10146076.21946  22860318.012    22860323.6134
  21119884.390   -22387628.435 9 -17422768.90047  21119883.929    21119889.1524
  21948462.522   -16078323.255 8 -12497741.40947  21948462.306    21948467.6204
  22443632.018   -14739345.170 8 -10686415.42046  22443631.197    22443637.1504
 01  6  7  1 46  0.0000000  0  7 21 25 01 14 11 29 20
  23449844.545   -13706893.958 8 -10662490.42345  23449844.101    23449853.3844
  20711277.639   -24269798.069 9 -18604895.21848  20711277.461    20711282.2564
  23470774.296   -11785906.607 8  -8607077.25245  23470773.772    23470783.0864
  22874821.820   -12979908.048 8 -10086687.34646  22874821.331    22874827.0474
  21121561.695   -22378814.078 9 -17415900.58047  21121561.228    21121566.4954
  21960024.130   -16017565.938 8 -12450398.07147  21960023.982    21960029.4294
  22428330.468   -14819754.921 8 -10749072.30446  22428329.651    22428335.6564
 01  6  7  1 46 30.0000000  0  7 21 25 01 14 11 29 20
  23464551.661   -13629608.416 8 -10602268.05745  23464551.089    23464560.4674
  20712220.835   -24264841.661 9 -18601033.05848  20712220.618    20712225.4034
  23457358.998   -11856403.675 8  -8662009.87845  23457358.509    23457367.7574
  22889334.709   -12903642.313 8 -10027259.53146  22889334.223    22889339.9654
  21123347.758   -22369428.341 9 -17408587.02347  21123347.321    21123352.5534
  21971603.406   -15956716.461 8 -12402982.91047  21971603.265    21971608.7614
  22413049.094   -14900058.617 8 -10811646.54046  22413048.310    22413054.3124
 01  6  7  1 47  0.0000000  0  7 21 25 01 14 11 29 20
  23479306.366   -13552071.841 8 -10541850.06845  23479305.845    23479315.3114
  20713263.770   -24259360.905 9 -18596762.32348  20713263.556    20713268.3244
  23443976.851   -11926727.072 8  -8716807.18645  23443976.353    23443985.5344
  22903857.215   -12827327.005 8  -9967793.08246  22903856.679    22903862.3114
  21125242.565   -22359471.097 9 -17400828.14147  21125242.109    21125247.3424
  21983200.210   -15895775.408 8 -12355496.40247  21983200.027    21983205.4924
  22397788.292   -14980254.386 8 -10874136.68246  22397787.494    22397793.4314
 01  6  7  1 47 30.0000000  0  7 21 25 01 14 11 29 20
  23494108.874   -13474284.410 8 -10481236.62045  23494108.346    23494117.8324
  20714406.479   -24253355.856 9 -18592083.04948  20714406.295    20714411.0684
  23430627.753   -11996876.466 8  -8771468.90145  23430627.285    23430636.4364
  22918388.860   -12750962.828 8  -9908288.56746  22918388.310    22918393.9404
  21127246.068   -22348942.475 9 -17392624.03347  21127245.642    21127250.8944
  21994814.262   -15834743.289 8 -12307938.92847  21994814.077    21994819.5114
  22382548.364   -15060340.205 8 -10936541.13646  22382547.595    22382553.5664
 01  6  7  1 48  0.0000000  0  7 21 25 01 14 11 29 20
  23508958.991   -13396247.508 8 -10420428.78945  23508958.398    23508967.9084
  20715648.656   -24246828.168 9 -18586996.52348  20715648.455    20715653.2144
  23417311.517   -12066852.897 8  -8825995.85245  23417311.044    23417320.2474
  22932929.386   -12674551.555 8  -9848747.35046  22932928.934    22932934.5074
  21129358.076   -22337843.913 9 -17383975.81247  21129357.610    21129362.8894
  22006445.292   -15773621.596 8 -12260311.66247  22006445.135    22006450.6044
  22367329.591   -15140315.392 8 -10998859.39746  22367328.831    22367334.7644
 01  6  7  1 48 30.0000000  0  7 21 25 01 14 11 29 20
  23523856.567   -13317961.125 8 -10359426.54445  23523855.973    23523865.3554
  20716990.196   -24239778.269 9 -18581503.07148  20716989.986    20716994.7374
  23404028.261   -12136655.904 8  -8880387.66245  23404027.779    23404036.9564
  22947478.887   -12598093.885 8  -9789169.98446  22947478.441    22947483.9444
  21131578.464   -22326175.606 9 -17374883.63547  21131578.023    21131583.2934
  22018093.252   -15712411.044 8 -12212615.15047  22018093.131    22018098.6064
  22352132.157   -15220178.151 8 -11061090.06046  22352131.392    22352137.2964
 01  6  7  1 49  0.0000000  0  7 21 25 01 14 11 29 20
  23538801.430   -13239425.185 8 -10298229.85145  23538800.937    23538810.3234
  20718431.042   -24232206.409 9 -18575602.91148  20718430.849    20718435.6124
  23390778.200   -12206285.021 8  -8934643.97545  23390777.701    23390786.7384
  22962037.237   -12521590.075 8  -9729556.67646  22962036.703    22962042.1224
  21133907.351   -22313937.475 9 -17365347.44847  21133906.881    21133912.1414
  22029758.126   -15651111.952 8 -12164849.64047  22029757.986    22029763.4664
  22336956.546   -15299926.384 8 -11123231.47946  22336955.797    22336961.6674
 01  6  7  1 49 30.0000000  0  7 21 25 01 14 11 29 20
  23553793.458   -13160641.686 8 -10236840.24545  23553793.038    23553802.5794
  20719970.973   -24224114.188 9 -18569297.26448  20719970.753    20719975.5044
  23377561.116   -12275741.215 8  -8988765.54546  23377560.611    23377569.6044
  22976603.734   -12445042.023 8  -9669908.86946  22976603.269    22976608.7464
  21136344.314   -22301131.085 9 -17355368.45247  21136343.864    21136349.1564
  22041439.452   -15589726.050 8 -12117016.50047  22041439.289    22041444.8134
  22321802.820   -15379559.266 8 -11185283.00546  22321802.048    22321808.0184
 01  6  7  1 50  0.0000000  0  7 21 25 01 14 11 29 20
  23568832.861   -13081609.891 8 -10175257.17345  23568832.347    23568841.8644
  20721609.945   -24215501.082 9 -18562585.73448  20721609.718    20721614.4854
  23364377.109   -12345023.453 8  -9042751.56946  23364376.509    23364385.4784
  22991178.800   -12368449.652 8  -9610226.54846  22991178.298    22991183.8324
  21138889.492   -22287756.120 9 -17344946.41547  21138889.052    21138894.3134
  22053137.374   -15528253.348 8 -12069115.71847  22053137.211    22053142.7244
  22306671.490   -15459074.277 8 -11247242.68746  22306670.753    22306676.7644
 01  6  7  1 50 30.0000000  0  7 21 25 01 14 11 29 20
  23583919.488   -13002330.508 8 -10113481.15945  23583918.863    23583928.4714
  20723347.737   -24206368.791 9 -18555469.65248  20723347.535    20723352.3024
  23351225.955   -12414132.403 8  -9096602.57345  23351225.404    23351234.3684
  23005762.042   -12291814.359 8  -9550510.78546  23005761.513    23005767.1064
  21141542.690   -22273813.637 9 -17334082.15947  21141542.245    21141547.5164
  22064851.570   -15466695.225 8 -12021148.38146  22064851.341    22064856.8994
  22291562.871   -15538470.356 8 -11309109.70146  22291562.133    22291568.1404
 01  6  7  1 51  0.0000000  0  7 21 25 01 14 11 29 20
  23599052.826   -12922804.503 8 -10051512.98645  23599052.286    23599061.7404
  20725184.219   -24196718.071 9 -18547949.59148  20725183.994    20725188.7454
  23338107.712   -12483068.215 8  -9150318.64945  23338107.185    23338116.1324
  23020353.200   -12215137.264 8  -9490762.43246  23020352.691    23020358.3304
  21144303.676   -22259304.567 9 -17322776.40347  21144303.224    21144308.4974
  22076581.685   -15405052.805 8 -11973115.34946  22076581.501    22076587.0734
  22276477.192   -15617746.216 8 -11370883.03346  22276476.397    22276482.3804
 01  6  7  1 51 30.0000000  0  7 21 25 01 14 11 29 20
  23614233.436   -12843030.160 8  -9989351.27945  23614232.837    23614242.3734
  20727119.472   -24186547.959 9 -18540024.81348  20727119.284    20727124.0324
  23325022.892   -12551829.089 8  -9203898.42346  23325022.363    23325031.2964
  23034952.495   -12138417.630 8  -9430980.94446  23034951.974    23034957.6774
  21147172.687   -22244227.836 9 -17311028.31547  21147172.237    21147177.5204
  22088328.116   -15343324.954 8 -11925015.75246  22088327.949    22088333.4794
  22261414.967   -15696898.361 8 -11432559.97146  22261414.194    22261420.1544
 01  6  7  1 52  0.0000000  0  7 21 25 01 14 11 29 20
  23629460.572   -12763011.261 8  -9926999.03145  23629460.026    23629469.6944
  20729152.972   -24175861.845 9 -18531697.95548  20729152.756    20729157.5364
  23311970.860   -12620417.816 8  -9257344.06246  23311970.319    23311979.1634
  23049559.322   -12061658.957 8  -9371169.04346  23049558.722    23049564.4234
  21150149.046   -22228586.966 9 -17298840.64147  21150148.617    21150153.9114
  22100090.184   -15281515.412 8 -11876852.49846  22100089.956    22100095.4724
  22246376.056   -15775927.982 8 -11494141.43746  22246375.345    22246381.2374
 01  6  7  1 52 30.0000000  0  7 21 25 01 14 11 29 20
  23644734.519   -12682747.084 8  -9864455.66345  23644733.851    23644743.4824
  20731284.671   -24164659.553 9 -18522968.87848  20731284.460    20731289.2484
  23298951.729   -12688833.090 8  -9310654.53246  23298951.232    23298960.0084
  23064173.564   -11984860.563 8  -9311326.18146  23064173.005    23064178.7024
  21153232.943   -22212381.255 9 -17286212.83047  21153232.482    21153237.7304
  22111867.810   -15219623.628 8 -11828625.15846  22111867.593    22111873.1294
  22231361.080   -15854832.226 8 -11555625.20146  22231360.339    22231366.2094
 01  6  7  1 53  0.0000000  0  7 21 25 01 14 11 29 20
  23660055.242   -12602237.480 8  -9801721.05045  23660054.535    23660064.1274
  20733514.655   -24152940.896 9 -18513837.43748  20733514.447    20733519.2054
  23285965.824   -12757074.257 8  -9363829.33946  23285965.272    23285973.9534
  23078795.344   -11908022.739 8  -9251452.59146  23078794.803    23078800.5614
  21156424.265   -22195610.566 9 -17273144.77847  21156423.822    21156429.1124
  22123661.125   -15157649.507 8 -11780333.66446  22123660.908    22123666.4844
  22216370.444   -15933608.332 8 -11617009.12246  22216369.678    22216375.5334
 01  6  7  1 53 30.0000000  0  7 21 25 01 14 11 29 20
  23675422.269   -12521483.237 8  -9738795.78945  23675421.617    23675431.3244
  20735842.597   -24140707.371 9 -18504304.81048  20735842.395    20735847.1554
  23273012.891   -12825141.664 8  -9416868.75946  23273012.339    23273021.0174
  23093424.414   -11831146.722 8  -9191549.25146  23093423.825    23093429.5994
  21159722.910   -22178276.249 9 -17259637.53747  21159722.449    21159727.7444
  22135469.862   -15095594.358 8 -11731979.02946  22135469.613    22135475.1854
  22201404.400   -16012255.224 8 -11678292.34946  22201403.618    22201409.4824
 01  6  7  1 54  0.0000000  0  7 21 25 01 14 11 29 20
  23690835.629   -12440485.661 8  -9675680.92245  23690834.896    23690844.8034
  20738268.235   -24127960.306 9 -18494372.01448  20738268.076    20738272.8124
  23260092.943   -12893035.924 8  -9469773.25446  23260092.344    23260101.0284
  23108060.488   -11754233.757 8  -9131617.10746  23108059.923    23108065.6364
  21163128.558   -22160379.558 9 -17245692.08747  21163128.121    21163133.3914
  22147293.783   -15033459.466 8 -11683562.25346  22147293.548    22147299.1254
  22186463.128   -16090771.805 8 -11739474.04146  22186462.352    22186468.2384
 01  6  7  1 54 30.0000000  0  7 21 25 01 14 11 29 20
  23706295.371   -12359244.231 8  -9612376.05045  23706294.734    23706304.6734
  20740791.677   -24114699.666 9 -18484039.03448  20740791.469    20740796.2024
  23247206.072   -12960756.302 8  -9522542.26946  23247205.524    23247214.0374
  23122703.430   -11677283.957 8  -9071656.28646  23122702.966    23122708.7124
  21166641.249   -22141920.379 9 -17231308.32847  21166640.800    21166646.0724
  22159132.882   -14971244.722 8 -11635083.26546  22159132.682    22159138.1844
  22171547.220   -16169155.405 8 -11800552.11146  22171546.448    22171552.3304
 01  6  7  1 55  0.0000000  0  7 21 25 01 14 11 29 20
  23721801.426   -12277760.035 8  -9548882.00045  23721800.749    23721810.7914
  20743412.415   -24100927.541 9 -18473307.49048  20743412.205    20743416.9274
  23234352.178   -13028303.598 8  -9575176.40746  23234351.603    23234360.0914
  23137353.323   -11600298.799 8  -9011667.89446  23137352.834    23137358.6024
  21170260.606   -22122900.556 9 -17216487.70947  21170260.154    21170265.4244
  22170986.773   -14908951.764 8 -11586543.33046  22170986.595    22170992.0934
  22156656.709   -16247405.240 8 -11861525.94846  22156655.917    22156661.7784
 01  6  7  1 55 30.0000000  0  7 21 25 01 14 11 29 20
  23737353.492   -12196034.069 8  -9485199.57345  23737352.901    23737362.8964
  20746130.415   -24086644.345 9 -18462177.71448  20746130.193    20746134.9034
  23221531.262   -13095677.762 8  -9627675.62146  23221530.699    23221539.1374
  23152009.741   -11523279.046 8  -8951652.54646  23152009.208    23152015.0124
  21173986.546   -22103320.718 9 -17201230.71647  21173986.104    21173991.3544
  22182855.451   -14846581.152 8 -11537942.87246  22182855.339    22182860.8334
  22141791.975   -16325519.444 8 -11922394.09946  22141791.207    22141797.0174
 01  6  7  1 56  0.0000000  0  7 21 25 01 14 11 29 20
  23752951.454   -12114066.828 8  -9421329.12845  23752950.934    23752960.8674
  20748945.488   -24071851.043 9 -18450650.44948  20748945.274    20748949.9944
  23208743.228   -13162878.996 8  -9680040.08746  23208742.672    23208751.1304
  23166672.555   -11446225.615 8  -8891610.96046  23166672.007    23166677.7144
  21177818.869   -22083181.729 9 -17185538.01447  21177818.441    21177823.7334
  22194738.905   -14784133.839 8 -11489282.66546  22194738.712    22194744.2304
  22126953.452   -16403496.454 8 -11983155.35646  22126952.649    22126958.3724
 01  6  7  1 56 30.0000000  0  7 21 25 01 14 11 29 20
  23768595.432   -12031858.139 7  -9357270.55445  23768594.865    23768604.8654
  20751857.514   -24056548.223 9 -18438726.16148  20751857.268    20751861.9854
  23195988.212   -13229906.249 8  -9732268.96646  23195987.672    23195996.0914
  23181341.849   -11369138.215 8  -8831542.90546  23181341.371    23181346.9874
  21181757.603   -22062483.695 9 -17169409.69647  21181757.155    21181762.3874
  22206636.928   -14721609.467 8 -11440562.40446  22206636.725    22206642.2414
  22112141.514   -16481333.517 8 -12043807.56046  22112140.734    22112146.4214
 01  6  7  1 57  0.0000000  0  7 21 25 01 14 11 29 20
  23784284.736   -11949409.351 8  -9293024.88045  23784284.473    23784294.5584
  20754866.149   -24040737.473 9 -18426406.08748  20754865.925    20754870.6404
  23183266.136   -13296760.761 8  -9784363.24946  23183265.550    23183273.9184
  23196017.259   -11292018.675 8  -8771449.81246  23196016.801    23196022.4254
  21185802.337   -22041228.441 9 -17152847.18247  21185801.914    21185807.1604
  22218549.208   -14659009.893 8 -11391783.53646  22218549.028    22218554.4924
  22097356.253   -16559030.035 8 -12104350.24946  22097355.479    22097361.2144
 01  6  7  1 57 30.0000000  0  7 21 25 01 14 11 29 20
  23800019.939   -11866720.902 8  -9228592.46745  23800019.649    23800029.8414
  20757971.304   -24024419.776 9 -18413690.98448  20757971.106    20757975.8174
  23170576.883   -13363442.504 8  -9836322.91646  23170576.294    23170584.6664
  23210698.606   -11214867.625 8  -8711332.14546  23210698.158    23210703.8314
  21189953.042   -22019416.756 9 -17135851.08247  21189952.561    21189957.8244
  22230475.698   -14596335.647 8 -11342946.48846  22230475.562    22230481.0344
  22082598.132   -16636584.004 8 -12164781.85546  22082597.396    22082603.1384
 01  6  7  1 58  0.0000000  0  7 21 25 01 14 11 29 20
  23815800.568   -11783793.565 7  -9163973.89645  23815800.245    23815810.4514
  20761172.846   -24007595.600 9 -18400581.22348  20761172.639    20761177.3354
  23157920.594   -13429951.053 8  -9888147.64446  23157920.035    23157928.3794
  23225385.954   -11137685.511 8  -8651190.29046  23225385.460    23225391.1164
  21194209.420   -21997049.229 9 -17118421.86547  21194208.964    21194214.2484
  22242416.482   -14533587.029 8 -11294051.49046  22242416.306    22242421.7684
  22067867.572   -16713993.385 8 -12225100.80146  22067866.844    22067872.5874
 01  6  7  1 58 30.0000000  0  7 21 25 01 14 11 29 20
  23831626.630   -11700628.035 8  -9099169.75845  23831626.268    23831636.4274
  20764470.445   -23990266.458 9 -18387077.98048  20764470.236    20764474.9194
  23145297.114   -13496287.097 8  -9939837.93146  23145296.615    23145304.9524
  23240078.862   -11060473.749 8  -8591025.32946  23240078.388    23240084.0814
  21198571.305   -21974127.582 9 -17100560.85547  21198570.835    21198576.1154
  22254371.079   -14470765.415 8 -11245099.60546  22254370.869    22254376.3404
  22053164.797   -16791256.813 8 -12285306.01046  22053164.053    22053169.7874
 01  6  7  1 59  0.0000000  0  7 21 25 01 14 11 29 20
  23847498.311   -11617223.363 7  -9034179.24245  23847497.870    23847507.9944
  20767864.221   -23972432.058 9 -18373181.03648  20767863.997    20767868.6684
  23132706.837   -13562449.009 8  -9991392.54946  23132706.351    23132714.6504
  23254777.662   -10983231.194 8  -8530836.36746  23254777.203    23254782.9654
  21203038.677   -21950651.378 9 -17082267.73147  21203038.232    21203043.4794
  22266339.716   -14407869.746 8 -11196090.02546  22266339.514    22266345.0084
  22038490.373   -16868371.227 8 -12345395.11446  22038489.621    22038495.3364
 01  6  7  1 59 30.0000000  0  7 21 25 01 14 11 29 20
  23863414.631   -11533583.121 7  -8969005.18545  23863414.172    23863424.3214
  20771353.516   -23954095.801 9 -18358893.03048  20771353.291    20771357.9384
  23120149.197   -13628439.516 8 -10042813.58846  23120148.674    23120156.9484
  23269481.735   -10905961.025 8  -8470625.88546  23269481.204    23269487.0204
  21207611.034   -21926623.569 9 -17063544.78047  21207610.587    21207615.8924
  22278321.792   -14344903.387 8 -11147025.36246  22278321.609    22278327.1424
  22023844.207   -16945337.197 8 -12405368.54346  22023843.421    22023849.1594
 01  6  7  2  0  0.0000000  0  7 21 25 01 14 11 29 20
  23879375.841   -11449706.395 7  -8903646.85245  23879375.522    23879385.7574
  20774938.361   -23935257.150 9 -18344213.54348  20774938.140    20774942.7874
  23107624.418   -13694257.114 8 -10094099.89246  23107623.905    23107632.1314
  23284191.202   -10828662.505 8  -8410393.31346  23284190.740    23284196.4214
  21212288.383   -21902044.058 9 -17044391.93347  21212287.929    21212293.2314
  22290317.554   -14281865.422 8 -11097904.89846  22290317.345    22290322.8794
  22009226.918   -17022151.394 8 -12465223.70546  22009226.110    22009231.8604
 01  6  7  2  0 30.0000000  0  7 21 25 01 14 11 29 20
  23895382.211   -11365593.053 8  -8838104.17045  23895381.861    23895392.1914
  20778618.640   -23915917.146 9 -18329143.39948  20778618.412    20778623.0684
  23095132.508   -13759901.674 8 -10145251.36046  23095132.023    23095140.3204
  23298905.988   -10751336.328 8  -8350139.19746  23298905.433    23298911.1554
  21217070.500   -21876913.727 9 -17024809.87347  21217070.058    21217075.3704
  22302326.858   -14218756.349 8 -11048729.02746  22302326.631    22302332.1494
  21994638.903   -17098811.959 8 -12524959.15346  21994638.069    21994643.8084
 01  6  7  2  1  0.0000000  0  7 21 25 01 14 11 29 20
  23911433.353   -11281244.530 8  -8772378.19745  23911432.959    23911443.2944
  20782394.005   -23896077.364 9 -18313683.81948  20782393.788    20782398.4384
  23082673.611   -13825373.327 8 -10196268.08746  23082673.099    23082681.4154
  23313625.785   -10673983.024 8  -8289863.94646  23313625.193    23313631.0314
  21221957.256   -21851233.707 9 -17004799.48847  21221956.815    21221962.1514
  22314349.468   -14155576.874 8 -10999498.29146  22314349.278    22314354.8734
  21980080.486   -17175316.918 8 -12584573.36146  21980079.668    21980085.3554
 01  6  7  2  1 30.0000000  0  7 21 25 01 14 11 29 20
  23927528.819   -11196662.151 7  -8706469.99345  23927528.467    23927538.9244
  20786264.209   -23875739.258 9 -18297835.92948  20786263.989    20786268.6154
  23070247.372   -13890673.004 8 -10247150.82246  23070246.861    23070255.1624
  23328350.432   -10596604.250 8  -8229568.83446  23328349.900    23328355.7814
  21226948.220   -21825006.012 9 -16984362.34047  21226947.770    21226953.1094
  22326385.323   -14092328.381 8 -10950213.78246  22326385.155    22326390.7344
  21965551.754   -17251665.513 8 -12644065.71746  21965550.936    21965556.6454
 01  6  7  2  2  0.0000000  0  8 21 25 01 14 22 11 29 20
  23943668.928   -11111846.944 7  -8640380.40945  23943668.383    23943678.8834
  20790228.918   -23854904.394 9 -18281600.95948  20790228.714    20790233.3834
  23057853.750   -13955801.330 8 -10297900.04746  23057853.220    23057861.4714
  23343079.848   -10519201.160 8  -8169254.78646  23343079.342    23343085.0834
  24398805.445    -5266982.417 7  -4081927.95345  24398804.689    24398820.5424
  21232043.118   -21798232.320 9 -16963499.74547  21232042.653    21232048.0224
  22338434.065   -14029012.157 8 -10900876.48846  22338433.854    22338439.4054
  21951053.047   -17327856.418 8 -12703435.19546  21951052.253    21951057.9464
 01  6  7  2  2 30.0000000  0  8 21 25 01 14 22 11 29 20
  23959852.843   -11026800.123 8  -8574110.31445  23959852.479    23959862.9144
  20794287.786   -23833574.767 9 -18264980.46548  20794287.574    20794292.2354
  23045492.615   -14020758.963 8 -10348516.27146  23045492.068    23045500.2904
  23357813.560   -10441775.045 8  -8108922.78846  23357813.122    23357818.8314
  24380425.870    -5363565.218 7  -4157186.81345  24380425.204    24380440.9544
  21237241.629   -21770914.214 9 -16942212.93347  21237241.184    21237246.4854
  22350495.369   -13965629.307 8 -10851487.27346  22350495.174    22350500.7474
  21936584.699   -17403888.157 8 -12762680.65047  21936583.889    21936589.5494
 01  6  7  2  3  0.0000000  0  8 21 25 01 14 22 11 29 20
  23976081.259   -10941519.668 8  -8507658.19145  23976081.014    23976091.3504
  20798441.159   -23811748.604 9 -18247973.05648  20798440.989    20798445.6184
  23033164.581   -14085542.796 8 -10398997.04746  23033164.052    23033172.1974
  23372552.202   -10364323.476 8  -8048570.95746  23372551.789    23372557.4214
  24362032.510    -5460221.368 7  -4232502.82645  24362031.778    24362047.4874
  21242544.028   -21743049.830 9 -16920500.44947  21242543.593    21242548.9294
  22362569.859   -13902177.450 8 -10802044.29546  22362569.695    22362575.2854
  21922147.487   -17479756.007 8 -12821798.40447  21922146.673    21922152.3144
 01  6  7  2  3 30.0000000  0  8 21 25 01 14 22 11 29 20
  23992353.718   -10856008.212 7  -8441026.04345  23992353.499    23992363.9244
  20802688.500   -23789428.631 9 -18230580.85948  20802688.319    20802692.9704
  23020869.300   -14150154.870 8 -10449344.00046  23020868.735    23020876.8264
  23387295.240   -10286848.928 8  -7988201.23246  23387294.802    23387300.3564
  24343625.222    -5556950.345 7  -4307875.57345  24343624.449    24343640.0274
  21247949.852   -21714642.297 9 -16898364.73447  21247949.391    21247954.7314
  22374657.117   -13838658.889 8 -10752549.34146  22374656.917    22374662.6004
  21907741.407   -17555460.034 9 -12880788.50247  21907740.627    21907746.2234
 01  6  7  2  4  0.0000000  0  8 21 25 01 14 22 11 29 20
  24008670.248   -10770264.811 7  -8374213.17145  24008669.904    24008680.4664
  20807029.791   -23766614.891 9 -18212803.90948  20807029.593    20807034.2494
  23008606.845   -14214593.797 8 -10499556.03046  23008606.283    23008614.3964
  23402042.769   -10209350.607 8  -7927812.97046  23402042.294    23402047.7954
  24325204.891    -5653747.900 7  -4383301.75945  24325204.092    24325219.4244
  21253458.994   -21685691.468 9 -16875805.66447  21253458.547    21253463.9084
  22386757.036   -13775073.048 8 -10703001.95246  22386756.841    22386762.5974
  21893367.241   -17630996.823 9 -12939648.28547  21893366.428    21893372.0124
 01  6  7  2  4 30.0000000  0  8 21 25 01 14 22 11 29 20
  24025030.535   -10684291.259 7  -8307220.96045  24025030.188    24025040.8514
  20811464.631   -23743309.641 9 -18194643.96748  20811464.443    20811469.0724
  22996377.126   -14278860.847 8 -10549634.12946  22996376.620    22996384.6674
  23416794.510   -10131830.025 8  -7867407.37646  23416793.931    23416799.5364
  24306772.004    -5750611.621 7  -4458779.50745  24306771.294    24306786.4174
  21259071.113   -21656199.731 9 -16852825.11747  21259070.662    21259076.0264
  22398869.483   -13711421.502 8 -10653403.37546  22398869.285    22398875.0754
  21879024.996   -17706365.512 8 -12998377.08047  21879024.187    21879029.7834
 01  6  7  2  5  0.0000000  0  8 21 25 01 14 22 11 29 20
  24041434.671   -10598088.397 7  -8240050.06545  24041434.211    24041444.8544
  20815992.745   -23719514.192 9 -18176102.05448  20815992.538    20815997.1924
  22984180.127   -14342956.166 8 -10599578.42146  22984179.613    22984187.5744
  23431550.137   -10054288.189 8  -7806985.20646  23431549.696    23431555.3594
  24288327.123    -5847538.726 7  -4534306.66245  24288326.263    24288341.1464
  21264785.915   -21626168.307 9 -16829424.03447  21264785.455    21264790.8294
  22410994.362   -13647704.941 8 -10603754.13646  22410994.181    22410999.9934
  21864715.077   -17781564.444 8 -13056973.59547  21864714.283    21864719.8444
 01  6  7  2  5 30.0000000  0  8 21 25 01 14 22 11 29 20
  24057882.107   -10511657.252 7  -8172701.26645  24057881.594    24057892.2214
  20820613.857   -23695229.896 9 -18157179.21648  20820613.649    20820618.3434
  22972015.718   -14406879.893 8 -10649389.00346  22972015.235    22972023.1714
  23446309.763    -9976725.751 8  -7746546.98546  23446309.308    23446315.0854
  24269870.636    -5944526.559 7  -4609881.11945  24269869.341    24269884.6244
  21270603.153   -21595598.397 9 -16805603.35347  21270602.728    21270608.0964
  22423131.435   -13583923.984 8 -10554054.70546  22423131.299    22423137.1474
  21850437.794   -17856591.911 9 -13115436.50947  21850437.027    21850442.5544
 01  6  7  2  6  0.0000000  0  8 21 25 01 14 22 11 29 20
  24074372.787   -10424998.870 7  -8105175.42745  24074372.148    24074382.9314
  20825327.753   -23670458.266 9 -18137876.64048  20825327.556    20825332.2084
  22959883.845   -14470632.617 8 -10699066.37346  22959883.424    22959891.3044
  23461073.335    -9899143.605 8  -7686093.41846  23461072.797    23461078.5744
  24251402.980    -6041573.082 7  -4685501.33945  24251401.804    24251416.6804
  21276522.573   -21564492.005 9 -16781364.63147  21276522.120    21276527.4994
  22435280.683   -13520079.484 8 -10504305.77146  22435280.578    22435286.3714
  21836193.450   -17931446.354 9 -13173764.59547  21836192.648    21836198.1724
 01  6  7  2  6 30.0000000  0  8 21 25 01 14 22 11 29 20
  24090906.717   -10338112.964 7  -8037472.32045  24090906.163    24090916.9494
  20830134.428   -23645199.036 9 -18118194.11548  20830134.228    20830138.8734
  22947784.898   -14534212.819 8 -10748609.28546  22947784.420    22947792.2794
  23475840.528    -9821540.762 8  -7625623.68945  23475840.044    23475845.9664
  24232924.880    -6138673.579 7  -4761163.61345  24232923.947    24232938.6244
  21282544.036   -21532848.977 9 -16756707.75447  21282543.602    21282548.9854
  22447442.174   -13456170.806 8 -10454506.82646  22447442.039    22447447.7444
  21821982.579   -18006124.512 9 -13231955.30647  21821981.816    21821987.3864
 01  6  7  2  7  0.0000000  0  8 21 25 01 14 22 11 29 20
  24107483.356   -10251002.523 7  -7969594.22045  24107482.945    24107493.5974
  20835032.976   -23619456.622 9 -18098135.08748  20835032.827    20835037.4824
  22935718.196   -14597623.503 8 -10798020.11046  22935717.723    22935725.4974
  23490611.244    -9743920.807 8  -7565140.65645  23490610.639    23490616.7164
  24214436.713    -6235827.455 7  -4836867.45945  24214435.845    24214450.4194
  21288666.854   -21500673.510 9 -16731635.99247  21288666.373    21288671.7864
  22459615.121   -13392201.144 8 -10404660.35546  22459615.012    22459620.8114
  21807805.170   -18080626.918 9 -13290009.07447  21807804.441    21807809.9694
 01  6  7  2  7 30.0000000  0  8 21 25 01 14 22 11 29 20
  24124103.396   -10163664.725 7  -7901538.96645  24124103.011    24124113.5434
  20840024.009   -23593228.611 9 -18077697.67148  20840023.832    20840028.5074
  22923684.384   -14660861.252 8 -10847296.19446  22923683.824    22923691.6804
  23505385.660    -9666280.788 8  -7504642.00345  23505385.100    23505391.0944
  24195939.530    -6333028.628 7  -4912608.18445  24195938.862    24195953.2404
  21294891.351   -21467963.394 9 -16706147.62547  21294890.914    21294896.3444
  22471800.422   -13328167.651 8 -10354764.16446  22471800.226    22471806.0374
  21793662.244   -18154948.558 9 -13347921.99347  21793661.522    21793667.0174
 01  6  7  2  8  0.0000000  0  8 21 25 01 14 22 11 29 20
  24140765.991   -10076103.743 7  -7833309.81045  24140765.375    24140775.8764
  20845106.633   -23566519.451 9 -18056885.33448  20845106.433    20845111.0894
  22911682.863   -14723929.123 8 -10896439.89246  22911682.342    22911690.2704
  23520163.184    -9588624.459 8  -7444130.62045  23520162.571    23520168.5814
  24177433.517    -6430277.260 8  -4988385.86245  24177432.632    24177447.0534
  21301216.901   -21434722.824 9 -16680245.91547  21301216.445    21301221.8794
  22483997.055   -13264073.706 8 -10304820.84546  22483996.863    22484002.7104
  21779553.395   -18229090.424 9 -13405694.82347  21779552.679    21779558.2244
 01  6  7  2  8 30.0000000  0  8 21 25 01 14 22 11 29 20
  24157470.725    -9988318.870 7  -7764906.18245  24157470.112    24157481.0174
  20850280.845   -23539328.826 9 -18035697.83248  20850280.641    20850285.2724
  22899713.982   -14786825.640 8 -10945450.07746  22899713.468    22899721.3744
  23534944.014    -9510950.480 8  -7383605.47845  23534943.447    23534949.4474
  24158919.024    -6527569.175 7  -5064197.29645  24158918.090    24158932.5434
  21307643.317   -21400951.766 9 -16653930.83647  21307642.856    21307648.3494
  22496205.338   -13199918.432 8 -10254829.75846  22496205.181    22496211.0664
  21765479.562   -18303048.934 9 -13463324.78347  21765478.822    21765484.3544
 01  6  7  2  9  0.0000000  0  8 21 25 01 14 22 11 29 20
  24174218.437    -9900310.328 7  -7696328.30445  24174217.896    24174228.6434
  20855546.379   -23511657.975 9 -18014136.12848  20855546.196    20855550.8584
  22887777.650   -14849551.005 8 -10994326.88646  22887777.132    22887784.9104
  23549728.181    -9433259.217 8  -7323066.88145  23549727.713    23549733.6384
  24140397.137    -6624900.609 8  -5140039.52245  24140396.232    24140410.4604
  21314170.392   -21366651.727 9 -16627203.57547  21314169.947    21314175.3724
  22508425.362   -13135702.077 8 -10204791.07046  22508425.181    22508431.0154
  21751441.021   -18376821.879 9 -13520810.14847  21751440.231    21751445.7414
 01  6  7  2  9 30.0000000  0  8 21 25 01 14 22 11 29 20
  24191008.075    -9812080.898 7  -7627578.27545  24191007.544    24191018.4504
  20860902.914   -23483509.409 9 -17992202.17948  20860902.727    20860907.3654
  22875873.693   -14912106.742 8 -11043071.54146  22875873.163    22875880.8204
  23564515.284    -9355552.744 8  -7262516.43745  23564514.806    23564520.8154
  24121868.196    -6722269.804 7  -5215911.18445  24121867.379    24121881.3354
  21320797.696   -21331825.399 9 -16600066.21147  21320797.229    21320802.6344
  22520656.633   -13071426.640 8 -10154706.34546  22520656.464    22520662.2944
  21737437.841   -18450408.960 9 -13578150.68947  21737437.066    21737442.5324
 01  6  7  2 10  0.0000000  0  8 21 25 01 14 22 11 29 20
  24207839.600    -9723631.171 7  -7558656.59545  24207838.941    24207849.8574
  20866349.965   -23454884.937 9 -17969897.39148  20866349.757    20866354.4084
  22864001.983   -14974492.666 8 -11091683.84646  22864001.462    22864009.0964
  23579305.128    -9277831.551 8  -7201954.52245  23579304.717    23579310.6554
  24103332.535    -6819674.144 8  -5291810.21245  24103331.602    24103345.3454
  21327524.800   -21296474.220 9 -16572519.86447  21327524.352    21327529.8144
  22532899.099   -13007092.430 8 -10104575.82646  22532898.849    22532904.6964
  21723470.385   -18523808.113 9 -13635344.78447  21723469.595    21723475.0664
 01  6  7  2 10 30.0000000  0  8 21 25 01 14 22 11 29 20
  24224713.007    -9634960.472 7  -7489562.71245  24224712.600    24224723.7864
  20871887.628   -23425784.292 9 -17947221.56548  20871887.423    20871892.0514
  22852162.787   -15036707.533 8 -11140162.87146  22852162.258    22852169.9234
  23594097.972    -9200094.809 8  -7141380.47945  23594097.536    23594103.5254
  24084790.888    -6917109.446 7  -5367733.39445  24084790.048    24084803.6634
  21334351.827   -21260598.233 9 -16544564.58647  21334351.376    21334356.8314
  22545152.777   -12942698.602 8 -10054398.85146  22545152.606    22545158.4084
  21709539.356   -18597015.785 9 -13692389.68747  21709538.589    21709544.0314
 01  6  7  2 11  0.0000000  0  8 21 25 01 14 22 11 29 20
  24241628.362    -9546070.601 7  -7420298.06645  24241627.970    24241639.0674
  20877515.446   -23396209.951 9 -17924176.61948  20877515.267    20877519.8814
  22840355.956   -15098752.580 8 -11188509.57246  22840355.421    22840363.0554
  23608893.550    -9122344.078 8  -7080795.53145  23608893.073    23608899.0454
  24066243.784    -7014573.571 8  -5443679.00245  24066242.767    24066256.4954
  21341278.194   -21224199.958 9 -16516202.32747  21341277.741    21341283.2204
  22557417.615   -12878246.668 8 -10004176.59346  22557417.415    22557423.1734
  21695644.904   -18670031.282 9 -13749284.83647  21695644.168    21695649.5864
 01  6  7  2 11 30.0000000  0  8 21 25 01 14 22 11 29 20
  24258585.264    -9456962.613 7  -7350863.45545  24258584.781    24258596.0664
  20883233.132   -23366163.190 9 -17900763.55848  20883232.949    20883237.5754
  22828581.423   -15160627.977 8 -11236724.07946  22828580.852    22828588.4894
  23623691.670    -9044579.466 8  -7020199.77745  23623691.199    23623697.1954
  24047691.738    -7112063.051 7  -5519644.39545  24047690.742    24047704.4444
  21348303.675   -21187280.926 9 -16487434.29147  21348303.237    21348308.6974
  22569693.434   -12813736.970 8  -9953909.33746  22569693.247    22569699.0164
  21681787.458   -18742852.532 9 -13806028.63147  21681786.731    21681792.1294
 01  6  7  2 12  0.0000000  0  8 21 25 01 14 22 11 29 20
  24275583.496    -9367637.002 7  -7281259.29745  24275583.013    24275594.4484
  20889040.432   -23335645.459 9 -17876983.51247  20889040.268    20889044.8804
  22816839.082   -15222333.865 8 -11284806.51446  22816838.541    22816846.1444
  23638492.246    -8966802.041 8  -6959594.04845  23638491.753    23638497.7694
  24029135.598    -7209574.997 7  -5595627.31745  24029134.446    24029148.0474
  21355427.939   -21149842.935 9 -16458261.87147  21355427.465    21355432.9584
  22581980.019   -12749170.173 8  -9903597.58346  22581979.880    22581985.7194
  21667967.338   -18815477.599 9 -13862619.55947  21667966.579    21667971.9784
 01  6  7  2 12 30.0000000  0  8 21 25 01 14 22 11 29 20
  24292623.186    -9278094.172 7  -7211485.83245  24292622.707    24292634.0854
  20894937.256   -23304657.576 9 -17852837.10447  20894937.076    20894941.6884
  22805129.182   -15283869.599 8 -11332756.34646  22805128.608    22805136.1344
  23653295.409    -8889011.412 8  -6898978.00845  23653294.884    23653300.9444
  24010575.698    -7307106.073 7  -5671625.13545  24010574.576    24010588.0764
  21362650.695   -21111886.948 9 -16428685.81047  21362650.255    21362655.7624
  22594277.672   -12684546.199 8  -9853241.27746  22594277.487    22594283.2814
  21654185.142   -18887903.795 9 -13919055.52147  21654184.310    21654189.7014
 01  6  7  2 13  0.0000000  0  7 25 01 14 22 11 29 20
  20900922.669   -23273204.176 9 -17828327.96247  20900922.453    20900927.0844
  22793451.053   -15345238.094 8 -11380575.87246  22793450.492    22793458.0214
  23668100.400    -8811210.878 8  -6838354.26145  23668099.845    23668105.8644
  23992012.149    -7404656.391 8  -5747637.96245  23992011.107    23992024.3984
  21369971.336   -21073417.290 9 -16398709.49447  21369970.867    21369976.3544
  22606585.542   -12619868.135 8  -9802842.82546  22606585.366    22606591.1214
  21640440.487   -18960131.935 9 -13975337.16147  21640439.676    21640445.0414
 01  6  7  2 13 30.0000000  0  7 25 01 14 22 11 29 20
  20906996.975   -23241283.306 9 -17803454.55847  20906996.767    20907001.4104
  22781805.306   -15406436.204 8 -11428262.62146  22781804.765    22781812.3634
  23682907.791    -8733397.542 8  -6777720.54045  23682907.295    23682913.1924
  23973446.245    -7502218.905 8  -5823660.28445  23973445.260    23973458.5074
  21377389.911   -21034432.100 9 -16368331.45547  21377389.461    21377395.0134
  22618904.222   -12555133.147 8  -9752400.01146  22618904.039    22618909.8524
  21626734.600   -19032156.802 9 -14031460.40347  21626733.774    21626739.1504
 01  6  7  2 14  0.0000000  0  7 25 01 14 22 11 29 20
  20913160.040   -23208896.326 9 -17778217.95747  20913159.811    20913164.4474
  22770191.958   -15467464.438 8 -11475817.01546  22770191.424    22770199.0114
  23697717.631    -8655572.198 8  -6717077.47745  23697716.982    23697722.8734
  23954878.625    -7599790.812 8  -5899689.96645  23954877.772    23954890.7604
  21384906.339   -20994933.365 9 -16337553.26147  21384905.868    21384911.3834
  22631233.620   -12490342.086 8  -9701913.50546  22631233.393    22631239.2084
  21613067.675   -19103976.681 9 -14087423.91847  21613066.885    21613072.2704
 01  6  7  2 14 30.0000000  0  7 25 01 14 22 11 29 20
  20919411.181   -23176046.541 9 -17752620.71847  20919410.943    20919415.5744
  22758610.650   -15528324.318 8 -11523240.21646  22758610.092    22758617.6504
  23712529.200    -8577736.794 8  -6656426.56545  23712528.647    23712534.5734
  23936309.643    -7697370.555 8  -5975725.73345  23936308.638    23936321.4604
  21392519.825   -20954924.177 9 -16306377.30647  21392519.347    21392524.9084
  22643573.275   -12425496.754 8  -9651384.71446  22643573.050    22643578.9344
  21599439.896   -19175590.998 9 -14143227.24647  21599439.100    21599444.4524
 01  6  7  2 15  0.0000000  0  7 25 01 14 22 11 29 20
  20925750.345   -23142733.791 9 -17726662.73547  20925750.115    20925754.7504
  22747061.642   -15589014.444 8 -11570531.13746  22747061.068    22747068.6084
  23727342.964    -8499890.209 8  -6595766.92945  23727342.423    23727348.3014
  23917739.748    -7794954.046 8  -6051764.43945  23917738.894    23917751.4584
  21400230.476   -20914404.733 9 -16274803.75547  21400230.009    21400235.5484
  22655923.511   -12360595.975 8  -9600812.72246  22655923.280    22655929.1544
  21585851.910   -19246995.964 9 -14198867.45547  21585851.126    21585856.4674
 01  6  7  2 15 30.0000000  0  7 25 01 14 22 11 29 20
  20932177.194   -23108960.281 9 -17700345.71347  20932176.985    20932181.6224
  22735544.727   -15649535.666 8 -11617690.43546  22735544.160    22735551.7234
  23742158.589    -8422033.506 8  -6535099.43645  23742158.067    23742163.9284
  23899169.798    -7892538.643 7  -6127803.98945  23899168.821    23899181.4404
  21408037.711   -20873377.534 9 -16242834.54947  21408037.234    21408042.8074
  22668284.106   -12295640.783 8  -9550198.31746  22668283.893    22668289.7684
  21572304.024   -19318190.479 9 -14254343.67047  21572303.265    21572308.5714
 01  6  7  2 16  0.0000000  0  7 25 01 14 22 11 29 20
  20938691.372   -23074728.214 9 -17673671.37947  20938691.146    20938695.8094
  22724059.768   -15709888.938 8 -11664718.87946  22724059.241    22724066.7904
  23756975.894    -8344167.924 8  -6474424.99845  23756975.438    23756981.3954
  23880600.039    -7990121.513 8  -6203842.20645  23880598.916    23880611.6894
  21415941.143   -20831844.850 9 -16210471.45847  21415940.663    21415946.2224
  22680654.790   -12230632.492 8  -9499542.54446  22680654.599    22680660.4394
  21558796.498   -19389173.350 9 -14309654.97047  21558795.686    21558800.9704
 01  6  7  2 16 30.0000000  0  7 25 01 14 22 11 29 20
  20945292.534   -23040038.645 9 -17646640.54947  20945292.326    20945297.0074
  22712606.973   -15770073.520 8 -11711615.86846  22712606.429    22712613.9074
  23771795.172    -8266293.228 8  -6413743.47845  23771794.599    23771800.6074
  23862031.394    -8087698.773 7  -6279876.08445  23862030.341    23862042.8274
  21423940.659   -20789807.497 9 -16177715.12747  21423940.155    21423945.6904
  22693035.753   -12165570.650 8  -9448845.06846  22693035.509    22693041.3614
  21545329.644   -19459941.760 9 -14364799.16447  21545328.839    21545334.1544
 01  6  7  2 17  0.0000000  0  7 25 01 14 22 11 29 20
  20951980.336   -23004893.964 9 -17619255.08547  20951980.146    20951984.8104
  22701186.054   -15830090.536 8 -11758382.28246  22701185.467    22701192.9554
  23786615.634    -8188410.713 8  -6353055.85945  23786615.138    23786621.2244
  23843464.032    -8185268.618 8  -6355904.19245  23843463.204    23843475.3504
  21432035.578   -20747268.504 9 -16144567.89647  21432035.061    21432040.6384
  22705426.518   -12100456.710 8  -9398106.96846  22705426.291    22705432.1734
  21531903.941   -19530494.325 9 -14419775.16247  21531903.124    21531908.4274
 01  6  7  2 17 30.0000000  0  7 25 01 14 22 11 29 20
  20958754.624   -22969294.832 9 -17591515.50847  20958754.436    20958759.0864
  22689797.123   -15889939.106 8 -11805017.44146  22689796.581    22689804.0534
  23801437.587    -8110519.793 8  -6292361.68145  23801437.317    23801443.3894
  23824898.895    -8282827.370 8  -6431923.63945  23824898.068    23824910.1854
  21440225.813   -20704228.559 9 -16111030.31647  21440225.321    21440230.9024
  22717827.311   -12035289.918 8  -9347327.69646  22717827.105    22717833.0694
  21518519.786   -19600828.144 9 -14474580.70847  21518518.989    21518524.3014
 01  6  7  2 18  0.0000000  0  7 25 01 14 22 11 29 20
  20965614.926   -22933243.676 9 -17563423.69947  20965614.737    20965619.3804
  22678440.083   -15949620.398 8 -11851522.24646  22678439.563    22678446.9844
  23816261.359    -8032621.735 8  -6231661.96345  23816260.975    23816266.9124
  23806336.510    -8380372.370 8  -6507932.37545  23806335.478    23806347.6104
  21448510.880   -20660690.455 9 -16077104.55047  21448510.395    21448515.9794
  22730238.056   -11970071.640 8  -9296508.29346  22730237.783    22730243.7484
  21505177.496   -19670942.223 9 -14529215.02147  21505176.716    21505182.0394
 01  6  7  2 18 30.0000000  0  7 25 01 14 22 11 29 20
  20972560.875   -22896742.626 9 -17534981.32347  20972560.658    20972565.3074
  22667114.845   -16009135.002 8 -11897897.15646  22667114.303    22667121.6924
  23831085.930    -7954717.691 8  -6170957.56645  23831085.583    23831091.5834
  23787777.448    -8477900.570 8  -6583928.05245  23787776.275    23787788.3394
  21456890.307   -20616656.369 9 -16042792.31347  21456889.804    21456895.3774
  22742658.396   -11904802.780 8  -9245649.48546  22742658.085    22742663.9604
  21491877.387   -19740834.745 9 -14583676.69947  21491876.603    21491881.9144
 01  6  7  2 19  0.0000000  0  7 25 01 14 22 11 29 20
  20979592.522   -22859791.144 9 -17506187.96947  20979592.280    20979596.9314
  22655821.537   -16068481.156 8 -11944140.82746  22655821.012    22655828.4094
  23845911.939    -7876805.721 8  -6110246.98445  23845911.689    23845917.7534
  23769222.328    -8575406.968 8  -6659906.71645  23769221.191    23769232.9904
  21465364.119   -20572126.266 9 -16008093.57747  21465363.618    21465369.2004
  22755088.477   -11839481.787 8  -9194750.05546  22755088.290    22755094.1864
  21478620.103   -19810501.879 9 -14637962.75347  21478619.351    21478624.6894
 01  6  7  2 19 30.0000000  0  7 25 01 14 22 11 29 20
  20986710.094   -22822387.968 9 -17477042.64447  20986709.863    20986714.5364
  22644560.940   -16127655.768 8 -11990250.84446  22644560.357    22644567.7834
  23860740.288    -7798883.166 8  -6049528.18545  23860739.923    23860745.9984
  23750672.592    -8672885.794 8  -6735863.91145  23750671.322    23750683.1414
  21473932.656   -20527098.630 9 -15973007.14247  21473932.146    21473937.7474
  22767529.193   -11774105.778 8  -9143807.74146  22767528.968    22767534.8494
  21465406.751   -19879938.323 9 -14692069.03447  21465406.019    21465411.3454
 01  6  7  2 20  0.0000000  0  7 25 01 14 22 11 29 20
  20993911.939   -22784541.928 9 -17447552.22947  20993911.717    20993916.4034
  22633331.489   -16186666.318 8 -12036233.00946  22633330.951    22633338.3384
  23875568.982    -7720957.925 8  -5988807.28145  23875568.548    23875574.7454
  23732127.056    -8770341.267 8  -6811802.92445  23732125.891    23732137.6084
  21482593.978   -20481583.091 9 -15937540.52347  21482593.470    21482599.0704
  22779978.870   -11708682.493 8  -9092828.60646  22779978.629    22779984.5284
  21452236.296   -19949149.454 9 -14745999.75247  21452235.566    21452240.8764
 01  6  7  2 20 30.0000000  0  7 25 01 14 22 11 29 20
  21001198.273   -22746252.078 9 -17417715.99047  21001198.033    21001202.6934
  22622133.854   -16245510.459 8 -12082085.52346  22622133.273    22622140.5754
  23890398.575    -7643027.730 8  -5928082.49745  23890398.131    23890404.4294
  23713587.134    -8867767.170 8  -6887718.88845  23713586.116    23713597.7894
  21491348.285   -20435578.841 9 -15901693.10447  21491347.789    21491353.4034
  22792437.904   -11643209.680 8  -9041810.88046  22792437.723    22792443.5744
  21439109.588   -20018130.453 9 -14799751.15247  21439108.864    21439114.1504
 01  6  7  2 21  0.0000000  0  7 25 01 14 22 11 29 20
  21008568.638   -22707520.573 9 -17387535.60047  21008568.391    21008573.0654
  22610967.664   -16304188.833 8 -12127808.83946  22610967.084    22610974.3644
  23905229.279    -7565093.317 8  -5867354.43045  23905228.785    23905235.0144
  23695053.479    -8965160.602 7  -6963609.58245  23695052.537    23695064.0674
  21500195.227   -20389088.089 9 -15865466.57947  21500194.765    21500200.3644
  22804906.383   -11577688.211 8  -8990755.24146  22804906.122    22804911.9264
  21426027.030   -20086879.979 9 -14853322.16947  21426026.261    21426031.5514
 01  6  7  2 21 30.0000000  0  7 25 01 14 22 11 29 20
  21016022.632   -22668349.668 9 -17357012.82447  21016022.371    21016027.0754
  22599832.889   -16362701.976 8 -12173403.41846  22599832.332    22599839.6464
  23920060.434    -7487155.644 8  -5806623.82645  23920059.967    23920066.1864
  23676526.525    -9062519.228 8  -7039473.11645  23676525.424    23676537.0214
  21509134.224   -20342113.339 9 -15828862.91147  21509133.767    21509139.4164
  22817383.747   -11512118.730 8  -8939662.15546  22817383.544    22817389.4314
  21412988.794   -20155396.229 9 -14906711.41347  21412987.997    21412993.2994
 01  6  7  2 22  0.0000000  0  7 25 01 14 22 11 29 20
  21023560.316   -22628738.837 9 -17326147.25647  21023560.062    21023564.7614
  22588730.024   -16421047.920 8 -12218867.70646  22588729.439    22588736.6934
  23934892.319    -7409212.647 8  -5745889.09045  23934891.869    23934898.2944
  23658006.975    -9159837.840 7  -7115305.52645  23658006.094    23658017.4714
  21518165.454   -20294654.224 9 -15791881.82847  21518164.984    21518170.5934
  22829870.731   -11446499.474 8  -8888530.32246  22829870.549    22829876.4974
  21399995.783   -20223674.758 9 -14959915.43047  21399995.002    21400000.2534
 01  6  7  2 22 30.0000000  0  7 25 01 14 22 11 29 20
  21031181.131   -22588691.133 9 -17294941.26247  21031180.887    21031185.5884
  22577658.561   -16479228.516 8 -12264203.16146  22577657.963    22577665.1514
  23949725.152    -7331266.518 8  -5685151.90145  23949724.601    23949730.8274
  23639495.590    -9257114.788 8  -7191105.42845  23639494.619    23639506.0124
  21527288.126   -20246714.350 9 -15754526.11947  21527287.659    21527293.3134
  22842366.818   -11380832.474 8  -8837361.27046  22842366.599    22842372.5094
  21387048.106   -20291715.364 9 -15012934.04747  21387047.275    21387052.5244
 01  6  7  2 23  0.0000000  0  7 25 01 14 22 11 29 20
  21038884.665   -22548208.727 9 -17263396.53847  21038884.423    21038889.1104
  22566618.451   -16537244.315 8 -12309410.19346  22566617.866    22566625.0564
  23964558.429    -7253317.901 8  -5624412.76445  23964557.842    23964563.9314
  23620992.877    -9354346.795 8  -7266870.33345  23620991.749    23621003.1384
  21536501.830   -20198296.160 9 -15716797.69747  21536501.360    21536506.9884
  22854871.801   -11315118.311 8  -8786155.47046  22854871.591    22854877.5074
  21374145.921   -20359516.370 9 -15065765.95047  21374145.097    21374150.3844
 01  6  7  2 23 30.0000000  0  7 25 01 14 22 11 29 20
  21046670.895   -22507291.830 9 -17231513.25347  21046670.643    21046675.3524
  22555609.950   -16595093.785 8 -12354487.62746  22555609.367    22555616.6284
  23979392.147    -7175365.485 8  -5563670.68845  23979391.662    23979397.9864
  23602499.377    -9451529.009 8  -7342596.43545  23602498.351    23602509.5374
  21545806.542   -20149399.992 9 -15678696.83447  21545806.029    21545811.7064
  22867386.031   -11249355.771 8  -8734911.98346  22867385.848    22867391.7904
  21361290.140   -20427073.835 9 -15118408.09247  21361289.347    21361294.5644
 01  6  7  2 24  0.0000000  0  7 25 01 14 22 11 29 20
  21054539.338   -22465942.929 9 -17199293.33947  21054539.086    21054543.8054
  22544632.920   -16652777.866 8 -12399436.19346  22544632.356    22544639.6384
  23994226.639    -7097410.192 8  -5502926.35345  23994226.163    23994232.4314
  23584015.915    -9548659.380 8  -7418282.17545  23584014.888    23584025.9284
  21555201.614   -20100028.582 9 -15640225.64947  21555201.125    21555206.8114
  22879909.317   -11183545.635 8  -8683631.38646  22879909.109    22879915.1644
  21348480.951   -20494386.361 9 -15170859.37047  21348480.145    21348485.3784
 01  6  7  2 24 30.0000000  0  7 25 01 14 22 11 29 20
  21062489.522   -22424164.306 9 -17166738.57547  21062489.272    21062494.0044
  22533687.271   -16710297.394 8 -12444256.52746  22533686.713    22533693.9784
  24009061.459    -7019453.239 8  -5442180.73145  24009060.893    24009067.0554
  23565542.716    -9645735.734 7  -7493925.83045  23565541.765    23565552.6574
  21564686.632   -20050184.641 9 -15601386.25347  21564686.119    21564691.8284
  22892441.376   -11117689.185 8  -8632314.70546  22892441.153    22892447.2414
  21335718.623   -20561452.707 9 -15223118.81147  21335717.810    21335723.0344
 01  6  7  2 25  0.0000000  0  7 25 01 14 22 11 29 20
  21070521.336   -22381956.920 9 -17133849.72047  21070521.092    21070525.8034
  22522773.099   -16767651.591 8 -12488948.04346  22522772.519    22522779.7574
  24023896.616    -6941493.946 8  -5381433.28745  24023896.113    24023902.4654
  23547080.556    -9742753.300 8  -7569523.63445  23547079.707    23547090.6674
  21574261.312   -19999869.362 9 -15562179.58347  21574260.810    21574266.5744
  22904982.486   -11051785.770 8  -8580961.43646  22904982.190    22904988.2274
  21323003.722   -20628269.850 9 -15275184.08347  21323002.882    21323008.1034
 01  6  7  2 25 30.0000000  0  7 25 01 14 22 11 29 20
  21078634.279   -22339323.124 9 -17100628.59247  21078634.045    21078638.7734
  22511890.314   -16824840.908 8 -12533511.08446  22511889.733    22511896.8734
  24038731.986    -6863532.974 8  -5320684.53145  24038731.522    24038738.0274
  23528630.174    -9839708.808 8  -7645073.10145  23528629.370    23528640.3734
  21583925.298   -19949085.021 9 -15522607.41247  21583924.790    21583930.5374
  22917532.365   -10985835.735 8  -8529571.84546  22917532.102    22917538.1384
  21310336.617   -20694835.753 9 -15327053.57947  21310335.772    21310341.0174
 01  6  7  2 26  0.0000000  0  7 25 01 14 22 11 29 20
  21086828.003   -22296264.670 9 -17067076.55847  21086827.793    21086832.5384
  22501038.694   -16881865.987 8 -12577946.14446  22501038.155    22501045.2654
  24053567.806    -6785570.918 8  -5259934.92845  24053567.222    24053573.7894
  23510192.340    -9936599.721 8  -7720572.25445  23510191.354    23510202.2774
  21593678.062   -19897833.964 9 -15482671.56547  21593677.558    21593683.3014
  22930090.960   -10919839.807 8  -8478146.47346  22930090.708    22930096.7434
  21297717.625   -20761148.723 9 -15378725.98147  21297716.818    21297722.0134
 01  6  7  2 26 30.0000000  0  7 25 01 14 22 11 29 20
  21095102.144   -22252783.979 9 -17033195.51047  21095101.905    21095106.6334
  22490218.236   -16938727.692 8 -12622253.89146  22490217.716    22490224.7374
  24068403.533    -6707608.692 8  -5199185.19445  24068402.922    24068409.5954
  23491767.137   -10033423.841 8  -7796019.33945  23491766.060    23491776.9864
  21603519.078   -19846119.120 9 -15442374.33247  21603518.575    21603524.3634
  22942658.167   -10853798.957 8  -8426686.10546  22942657.939    22942663.9224
  21285147.032   -20827207.411 9 -15430200.24147  21285146.240    21285151.4304
 01  6  7  2 27  0.0000000  0  7 25 01 14 22 11 29 20
  21103456.608   -22208881.113 9 -16998985.49747  21103456.331    21103461.0824
  22479429.131   -16995424.780 8 -12666433.36346  22479428.566    22479435.6014
  24083239.561    -6629645.209 8  -5138434.47045  24083239.021    24083245.5314
  23473355.563   -10130176.392 8  -7871410.69045  23473354.465    23473365.3254
  21613448.257   -19793941.207 9 -15401716.26647  21613447.771    21613453.5034
  22955234.126   -10787711.921 8  -8375189.75346  22955233.892    22955239.9324
  21272625.579   -20893008.071 9 -15481473.45547  21272624.758    21272629.9334
 01  6  7  2 27 30.0000000  0  7 25 01 14 22 11 29 20
  21111890.930   -22164558.330 9 -16964448.27847  21111890.662    21111895.4254
  22468671.240   -17051957.473 8 -12710484.73646  22468670.654    22468677.7484
  24098075.618    -6551680.799 8  -5077683.02745  24098075.130    24098081.7554
  23454958.175   -10226853.594 8  -7946743.32545  23454957.182    23454967.8944
  21623465.135   -19741302.344 9 -15360699.02047  21623464.627    21623470.3954
  22967818.641   -10721579.288 8  -8323657.87846  22967818.460    22967824.5884
  21260153.532   -20958548.880 9 -15532544.18347  21260152.723    21260157.8844
 01  6  7  2 28  0.0000000  0  7 25 01 14 22 11 29 20
  21120404.646   -22119818.330 9 -16929585.95747  21120404.418    21120409.1964
  22457944.502   -17108326.484 8 -12754408.56746  22457943.919    22457951.0494
  24112911.907    -6473716.436 8  -5016931.64645  24112911.388    24112917.8784
  23436575.737   -10323453.090 8  -8022015.40245  23436574.657    23436585.3984
  21633569.167   -19688205.481 9 -15319324.89447  21633568.672    21633574.4324
  22980411.949   -10655401.688 8  -8272090.95646  22980411.622    22980417.8234
  21247731.250   -21023828.292 9 -15583411.22447  21247730.432    21247735.6154
 01  6  7  2 28 30.0000000  0  7 25 01 14 22 11 29 20
  21128997.256   -22074663.952 9 -16894400.73847  21128997.030    21129001.8084
  22447248.628   -17164533.346 8 -12798206.04546  22447248.024    22447255.1374
  24127747.714    -6395753.745 8  -4956181.52645  24127747.118    24127753.6724
  23418208.413   -10419973.129 8  -8097225.59945  23418207.383    23418217.9834
  21643759.693   -19634653.992 9 -15277596.50947  21643759.207    21643764.9624
  22993013.279   -10589180.758 8  -8220490.26946  22993013.078    22993019.2874
  21235358.895   -21088845.334 9 -15634073.82647  21235358.097    21235363.2254
 01  6  7  2 29  0.0000000  0  7 25 01 14 22 11 29 20
  21137668.777   -22029094.896 9 -16858892.39847  21137668.526    21137673.3194
  22436583.939   -17220576.166 8 -12841875.68846  22436583.347    22436590.3954
  24142583.759    -6317790.734 8  -4895431.17445  24142583.127    24142589.5794
  23399857.198   -10516408.527 8  -8172369.81345  23399856.117    23399866.7484
  21654036.812   -19580647.834 9 -15235513.84547  21654036.302    21654042.0514
  23005623.477   -10522914.648 8  -8168854.37746  23005623.209    23005629.3574
  21223037.226   -21153595.828 9 -15684528.72547  21223036.418    21223041.5824
 01  6  7  2 29 30.0000000  0  7 25 01 14 22 11 29 20
  21146418.605   -21983114.323 9 -16823063.39247  21146418.339    21146423.1344
  22425950.214   -17276456.273 8 -12885418.56246  22425949.638    22425956.6614
  24157419.428    -6239828.970 8  -4834681.79045  24157418.897    24157425.2064
  23381522.499   -10612756.787 8  -8247446.13345  23381521.490    23381531.9774
  21664399.702   -19526190.459 9 -15193079.58447  21664399.208    21664404.9924
  23018241.888   -10456604.820 8  -8117184.42446  23018241.633    23018247.7814
  21210766.458   -21218078.948 9 -15734775.28947  21210765.663    21210770.7954
 01  6  7  2 30  0.0000000  0  7 25 01 14 22 11 29 20
  21155246.541   -21936723.377 9 -16786914.61847  21155246.268    21155251.0234
  22415347.567   -17332173.233 8 -12928834.31846  22415347.018    22415354.0014
  24172255.007    -6161867.963 8  -4773932.98545  24172254.496    24172260.7704
  23363205.171   -10709013.670 8  -8322451.24345  23363204.201    23363214.7464
  21674848.185   -19471283.335 9 -15150294.87347  21674847.695    21674853.4934
  23030868.647   -10390250.733 8  -8065479.98746  23030868.412    23030874.5744
  21198547.128   -21282291.750 9 -15784811.21647  21198546.332    21198551.5204
 01  6  7  2 30 30.0000000  0  7 25 01 14 22 11 29 20
  21164152.006   -21889924.972 9 -16750448.34247  21164151.733    21164156.4854
  22404775.726   -17387728.201 8 -12972123.85146  22404775.198    22404782.1434
  24187090.122    -6083909.082 8  -4713185.85745  24187089.565    24187095.8514
  23344905.741   -10805177.192 8  -8397383.62245  23344904.650    23344915.1134
  21685381.625   -19415930.066 9 -15107162.51947  21685381.133    21685386.9404
  23043503.567   -10323853.618 8  -8013742.02346  23043503.325    23043509.5574
  21186379.470   -21346233.122 9 -15834635.64847  21186378.675    21186383.8244
 01  6  7  2 31  0.0000000  0  7 25 01 14 22 11 29 20
  21173134.860   -21842719.823 9 -16713665.12047  21173134.574    21173139.3464
  22394234.875   -17443120.292 8 -13015286.45246  22394234.314    22394241.3144
  24201925.000    -6005951.315 8  -4652439.58445  24201924.347    24201930.8404
  23326624.830   -10901243.274 8  -8472240.05345  23326623.755    23326634.1504
  21695999.780   -19360131.470 9 -15063683.15247  21695999.272    21696005.1064
  23056146.815   -10257412.818 8  -7961970.00446  23056146.622    23056152.8454
  21174264.018   -21409899.852 9 -15884246.06647  21174263.233    21174268.4024
 01  6  7  2 31 30.0000000  0  7 25 01 14 22 11 29 20
  21182194.656   -21795110.291 9 -16676566.80247  21182194.372    21182199.1554
  22383724.894   -17498350.484 8 -13058322.90146  22383724.320    22383731.2974
  24216759.580    -5927995.622 8  -4591694.93345  24216758.897    24216765.2934
  23308362.806   -10997209.356 8  -8547018.56845  23308361.758    23308372.0444
  21706702.128   -19303890.488 9 -15019859.06847  21706701.603    21706707.4744
  23068798.316   -10190929.020 8  -7910164.49846  23068798.084    23068804.3864
  21162201.251   -21473290.450 9 -15933641.32147  21162200.424    21162205.5614
 01  6  7  2 32  0.0000000  0  7 25 01 14 22 11 29 20
  21191331.012   -21747098.525 9 -16639155.04547  21191330.707    21191335.5094
  22373245.691   -17553419.144 8 -13101233.47646  22373245.075    22373252.0294
  24231593.513    -5850042.548 8  -4530952.31345  24231592.877    24231599.2674
  23290120.446   -11093071.846 8  -8621716.35845  23290119.506    23290129.7854
  21717488.155   -19247209.801 9 -14975692.35847  21717487.626    21717493.4774
  23081457.734   -10124402.770 8  -7858325.90446  23081457.579    23081463.9134
  21150191.300   -21536403.050 9 -15982819.95047  21150190.478    21150195.6474
 01  6  7  2 32 30.0000000  0  7 25 01 14 22 11 29 20
  21200543.577   -21698686.058 9 -16601431.05747  21200543.299    21200548.0764
  22362797.217   -17608325.872 8 -13144017.86846  22362796.618    22362803.5484
  24246426.969    -5772091.821 8  -4470211.51045  24246426.379    24246432.9214
  23271898.654   -11188826.802 8  -8696330.36745  23271897.791    23271907.9714
  21728357.505   -19190091.349 9 -14931184.53247  21728356.952    21728362.8194
  23094125.448   -10057833.784 8  -7806454.00646  23094125.250    23094131.4504
  21138234.769   -21599234.852 9 -16031779.78147  21138233.955    21138239.1254
 01  6  7  2 33  0.0000000  0  7 25 01 14 22 11 29 20
  21209831.975   -21649875.078 9 -16563396.54347  21209831.719    21209836.5154
  22352379.470   -17663071.142 8 -13186676.44746  22352378.860    22352385.7474
  24261259.992    -5694144.065 8  -4409473.03245  24261259.430    24261265.8254
  23253697.839   -11284471.564 8  -8770858.53045  23253697.062    23253707.1474
  21739309.649   -19132537.411 9 -14886337.36347  21739309.100    21739315.0304
  23106801.213    -9991222.409 8  -7754549.07646  23106801.005    23106807.1494
  21126332.073   -21661784.038 9 -16080519.39047  21126331.245    21126336.3594
 01  6  7  2 33 30.0000000  0  7 25 01 14 22 11 29 20
  21219195.766   -21600668.005 9 -16525053.37847  21219195.507    21219200.3164
  22341992.353   -17717655.468 8 -13229209.64246  22341991.771    22341998.6414
  24276092.336    -5616199.337 8  -4348736.93845  24276091.791    24276098.2094
  23235518.670   -11380003.268 8  -8845298.58145  23235517.737    23235527.8664
  21750344.216   -19074550.517 9 -14841152.82047  21750343.690    21750349.6154
  23119484.893    -9924569.141 8  -7702611.51646  23119484.723    23119490.8984
  21114483.521   -21724048.610 9 -16129037.21947  21114482.658    21114487.7944
 01  6  7  2 34  0.0000000  0  7 25 01 14 22 11 29 20
  21228635.088   -21551064.203 9 -16486401.07847  21228634.832    21228639.6024
  22331636.236   -17772077.073 8 -13271616.02746  22331635.630    22331642.5054
  24290924.400    -5538256.115 7  -4288001.98845  24290923.734    24290930.3254
  23217361.984   -11475416.276 8  -8919646.16945  23217361.095    23217371.0844
  21761461.097   -19016131.118 9 -14795631.26447  21761460.574    21761466.5104
  23132176.950    -9857872.216 8  -7650639.92946  23132176.797    23132182.9844
  21102689.805   -21786024.628 9 -16177330.20047  21102688.993    21102694.1044
 01  6  7  2 34 30.0000000  0  7 25 01 14 22 11 29 20
  21238148.702   -21501069.806 9 -16447444.41647  21238148.446    21238153.2184
  22321310.273   -17826340.148 8 -13313898.87846  22321309.689    22321316.5254
  24305755.296    -5460318.579 8  -4227271.46245  24305754.845    24305761.3864
  23199227.907   -11570711.045 8  -8993901.61845  23199226.980    23199236.8714
  21772659.107   -18957285.510 9 -14749777.60047  21772658.562    21772664.5154
  23144876.525    -9791135.694 8  -7598637.49746  23144876.396    23144882.5904
  21090950.777   -21847713.665 9 -16225399.55647  21090949.939    21090955.0664
 01  6  7  2 35  0.0000000  0  7 25 01 14 22 11 29 20
  21247737.050   -21450683.205 9 -16408182.13747  21247736.748    21247741.4904
  22311015.036   -17880441.632 8 -13356055.82946  22311014.446    22311021.2654
  24320585.959    -5382383.679 8  -4166543.00145  24320585.488    24320591.8594
  23181117.536   -11665881.096 8  -9068059.87745  23181116.547    23181126.3414
  21783938.281   -18898012.983 9 -14703591.27147  21783937.744    21783943.7114
  23157584.152    -9724356.535 8  -7546601.84346  23157584.009    23157590.2664
  21079267.304   -21909110.560 9 -16273241.27547  21079266.467    21079271.6224
 01  6  7  2 35 30.0000000  0  7 25 01 14 22 11 29 20
  21257399.209   -21399908.109 9 -16368617.13647  21257398.899    21257403.6874
  22300750.298   -17934382.883 8 -13398087.90946  22300749.722    22300756.5354
  24335415.837    -5304452.909 7  -4105817.79445  24335415.163    24335421.6014
  23163031.202   -11760924.832 8  -9142119.71545  23163030.129    23163039.8794
  21795298.128   -18838317.117 9 -14657075.07347  21795297.559    21795303.5604
  23170299.692    -9657536.339 8  -7494534.20846  23170299.525    23170305.7684
  21067639.658   -21970214.325 9 -16320854.57747  21067638.797    21067643.9394
 01  6  7  2 36  0.0000000  0  7 25 01 14 22 11 29 20
  21267134.781   -21348746.872 9 -16328751.25447  21267134.509    21267139.3374
  22290515.951   -17988164.631 8 -13439995.72846  22290515.377    22290522.1704
  24350244.600    -5226526.984 7  -4045096.30245  24350244.036    24350250.3444
  23144969.468   -11855839.354 8  -9216078.85945  23144968.253    23144977.9924
  21806737.885   -18778200.894 9 -14610231.32947  21806737.339    21806743.3734
  23183022.922    -9590675.629 8  -7442434.99646  23183022.678    23183028.9324
  21056068.085   -22031023.194 9 -16368238.09147  21056067.208    21056072.3634
 01  6  7  2 36 30.0000000  0  7 25 01 14 22 11 29 20
  21276943.735   -21297200.412 9 -16288585.19047  21276943.488    21276948.3184
  22280312.026   -18041786.247 8 -13481778.75646  22280311.451    22280318.2754
  24365072.558    -5148605.069 7  -3984377.99345  24365071.972    24365078.6044
  23126933.111   -11950619.923 8  -9289933.63645  23126931.988    23126941.6724
  21818257.345   -18717665.760 9 -14563061.15547  21818256.835    21818262.8244
  23195753.944    -9523773.656 8  -7390303.64746  23195753.734    23195760.0284
  21044553.195   -22091534.120 9 -16415389.43647  21044552.379    21044557.4954
 01  6  7  2 37  0.0000000  0  7 25 01 14 22 11 29 20
  21286825.676   -21245270.639 9 -16248120.44547  21286825.408    21286830.2364
  22270138.645   -18095247.753 8 -13523437.00946  22270138.054    22270144.8674
  24379899.833    -5070687.348 7  -3923662.91645  24379899.207    24379905.8974
  23108922.948   -12045263.020 8  -9363681.31645  23108921.896    23108931.4204
  21829856.178   -18656713.981 9 -14515566.32347  21829855.636    21829861.6414
  23208492.871    -9456830.634 8  -7338140.30346  23208492.646    23208498.9454
  21033095.406   -22151745.036 9 -16462307.01047  21033094.582    21033099.7074
 01  6  7  2 37 30.0000000  0  7 25 01 14 22 11 29 20
  21296780.012   -21192960.292 9 -16207359.15347  21296779.756    21296784.5744
  22259995.571   -18148549.782 8 -13564971.00046  22259994.946    22260001.7794
  24394726.211    -4992774.435 7  -3862951.61645  24394725.614    24394732.1064
  23090939.502   -12139765.991 8  -9437319.77145  23090938.416    23090947.9254
  21841533.664   -18595348.448 9 -14467749.09147  21841533.141    21841539.1654
  23221239.499    -9389846.823 8  -7285945.17346  23221239.290    23221245.6574
  21021695.114   -22211654.036 9 -16508989.32647  21021694.264    21021699.3864
 01  6  7  2 38  0.0000000  0  7 25 01 14 22 11 29 20
  21306806.408   -21140271.063 9 -16166302.61847  21306806.185    21306810.9854
  22249882.745   -18201692.511 8 -13606380.85246  22249882.137    22249888.9464
  24409551.434    -4914866.431 7  -3802244.10445  24409550.629    24409557.5884
  23072983.299   -12234125.883 8  -9510846.78445  23072982.188    23072991.5684
  21853289.460   -18533571.578 9 -14419611.32447  21853288.923    21853294.9774
  23233993.808    -9322822.576 8  -7233718.53646  23233993.561    23233999.9324
  21010352.633   -22271259.030 9 -16555434.74547  21010351.806    21010356.9034
 01  6  7  2 38 30.0000000  0  7 25 01 14 22 11 29 20
  21316904.599   -21087204.975 9 -16124952.43247  21316904.364    21316909.1514
  22239800.160   -18254676.451 8 -13647666.98846  22239799.597    22239806.3274
  24424376.111    -4836963.748 7  -3741540.76645  24424375.188    24424382.1384
  23055054.840   -12328339.230 8  -9584259.59345  23055053.809    23055063.1434
  21865122.990   -18471386.019 9 -14371155.10247  21865122.471    21865128.5254
  23246755.761    -9255758.257 8  -7181460.65746  23246755.466    23246761.8774
  20999068.396   -22330558.040 9 -16601641.73747  20999067.558    20999072.6424
 01  6  7  2 39  0.0000000  0  7 25 01 14 22 11 29 20
  21327074.108   -21033764.133 9 -16083310.22947  21327073.824    21327078.6374
  22229747.847   -18307501.648 8 -13688829.40546  22229747.296    22229753.9754
  24439199.388    -4759066.457 7  -3680841.60245  24439198.584    24439205.6824
  23037155.071   -12422402.296 8  -9657555.27745  23037154.080    23037163.2764
  21877033.911   -18408794.225 9 -14322382.34247  21877033.375    21877039.4034
  23259525.299    -9188653.830 8  -7129171.53546  23259525.015    23259531.4834
  20987842.818   -22389548.759 9 -16647608.50547  20987841.979    20987847.0494
 01  6  7  2 39 30.0000000  0  7 25 01 14 22 11 29 20
  21337314.476   -20979950.676 9 -16041377.68247  21337314.175    21337318.9684
  22219725.621   -18360168.684 8 -13729868.58646  22219725.064    22219731.7204
  24454021.725    -4681175.101 8  -3620147.08745  24454020.905    24454028.1984
  23019284.472   -12516312.081 8  -9730731.54145  23019283.542    23019292.6334
  21889021.484   -18345799.170 9 -14273295.34647  21889020.946    21889027.0344
  23272302.391    -9121509.917 8  -7076851.63846  23272302.230    23272308.6044
  20976676.216   -22448229.462 9 -16693333.70147  20976675.360    20976680.4604
 01  6  7  2 40  0.0000000  0  7 25 01 14 22 11 29 20
  21347625.556   -20925765.308 9 -15999155.33647  21347625.296    21347630.0984
  22209733.678   -18412676.600 8 -13770783.80246  22209733.102    22209739.7914
  24468843.210    -4603288.464 8  -3559456.22945  24468842.553    24468849.3814
  23001444.014   -12610064.231 8  -9803784.98645  23001442.923    23001452.1054
  21901085.620   -18282401.820 9 -14223894.88647  21901085.094    21901091.1904
  23285087.354    -9054325.170 8  -7024499.92646  23285087.200    23285093.4614
  20965569.299   -22506596.780 9 -16738814.70347  20965568.429    20965573.5004
 01  6  7  2 40 30.0000000  0  7 25 01 14 22 11 29 20
  21358006.823   -20871211.299 9 -15956645.73247  21358006.580    21358011.3784
  22199771.765   -18465026.538 8 -13811575.91046  22199771.178    22199777.8434
  24483663.325    -4525407.681 8  -3498769.97045  24483662.673    24483669.8274
  22983633.723   -12703656.622 8  -9876713.93645  22983632.683    22983641.8104
  21913225.707   -18218605.757 9 -14174183.72447  21913225.150    21913231.2294
  23297879.774    -8987100.766 8  -6972117.31146  23297879.573    23297885.9084
  20954522.191   -22564649.424 9 -16784050.50547  20954521.327    20954526.3764
 01  6  7  2 41  0.0000000  0  7 25 01 14 22 11 29 20
  21368457.909   -20816290.630 9 -15913850.41747  21368457.634    21368462.4684
  22189839.905   -18517218.642 8 -13852245.02046  22189839.334    22189845.9624
  24498482.530    -4447533.032 8  -3438088.46145  24498481.974    24498488.7524
  22965854.606   -12797085.345 8  -9949515.35446  22965853.561    22965862.7904
  21925441.131   -18154413.501 9 -14124163.84147  21925440.573    21925446.7024
  23310679.742    -8919836.863 8  -6919703.90545  23310679.442    23310685.8354
  20943535.422   -22622385.076 9 -16829039.29347  20943534.583    20943539.6394
 01  6  7  2 41 30.0000000  0  7 25 01 14 22 11 29 20
  21378978.029   -20761006.995 9 -15870772.27347  21378977.742    21378982.5984
  22179937.688   -18569254.797 8 -13892792.60546  22179937.109    22179943.7474
  24513300.063    -4369666.368 8  -3377413.21045  24513299.556    24513306.4194
  22948107.165   -12890348.612 8 -10022187.88446  22948106.027    22948115.1074
  21937731.086   -18089829.332 9 -14073838.58147  21937730.545    21937736.7384
  23323486.855    -8852535.269 8  -6867261.12945  23323486.536    23323492.9434
  20932609.059   -22679803.478 9 -16873780.88447  20932608.177    20932613.2244
 01  6  7  2 42  0.0000000  0  7 25 01 14 22 11 29 20
  21389567.384   -20705359.555 9 -15827410.64547  21389567.121    21389571.9574
  22170065.638   -18621132.411 8 -13933216.67046  22170065.044    22170071.6954
  24528116.855    -4291804.877 8  -3316741.95045  24528116.159    24528123.0234
  22930392.261   -12983440.462 8 -10094726.83146  22930391.130    22930400.1154
  21950095.723   -18024853.107 9 -14023207.82447  21950095.195    21950101.3624
  23336301.575    -8785193.286 8  -6814786.89545  23336301.315    23336307.7814
  20921744.029   -22736899.545 9 -16918271.30247  20921743.149    20921748.1764
 01  6  7  2 42 30.0000000  0  7 25 01 14 22 11 29 20
  21400225.486   -20649350.742 9 -15783767.43247  21400225.212    21400230.0564
  22160223.709   -18672851.942 8 -13973517.55946  22160223.107    22160229.7724
  24542932.303    -4213948.950 8  -3256075.03745  24542931.731    24542938.5914
  22912710.430   -13076358.418 8 -10167130.25746  22912709.311    22912718.2654
  21962534.395   -17959487.764 9 -13972273.84947  21962533.844    21962540.0374
  23349123.977    -8717811.398 8  -6762281.56545  23349123.678    23349130.1984
  20910940.724   -22793671.507 9 -16962509.17047  20910939.798    20910944.8324
 01  6  7  2 43  0.0000000  0  7 25 01 14 22 11 29 20
  21410951.927   -20592983.135 9 -15739844.63247  21410951.637    21410956.4724
  22150411.708   -18724414.054 8 -14013695.78147  22150411.090    22150417.8114
  24557746.655    -4136099.424 8  -3195413.14745  24557746.006    24557752.8854
  22895062.234   -13169099.288 8 -10239395.71346  22895061.169    22895070.1064
  21975046.479   -17893736.288 9 -13921038.97447  21975045.942    21975052.1674
  23361953.637    -8650390.295 8  -6709745.66245  23361953.376    23361960.0524
  20900199.286   -22850117.760 9 -17006493.24247  20900198.374    20900203.4154
 01  6  7  2 43 30.0000000  0  7 25 01 14 22 11 29 20
  21421746.117   -20536259.338 9 -15695644.28747  21421745.824    21421750.6704
  22140629.444   -18775819.811 8 -14053752.16847  22140628.841    22140635.5644
  24572559.641    -4058257.303 8  -3134756.98745  24572559.070    24572565.6004
  22877448.304   -13261660.014 8 -10311520.80246  22877447.322    22877456.2884
  21987631.430   -17827602.069 9 -13869505.87047  21987630.900    21987637.1314
  23374790.883    -8582930.676 8  -6657179.76445  23374790.649    23374797.2164
  20889520.175   -22906236.690 9 -17050222.26247  20889519.277    20889524.3224
 01  6  7  2 44  0.0000000  0  7 25 01 14 22 11 29 20
  21432607.683   -20479181.624 9 -15651168.16447  21432607.355    21432612.2144
  22130876.924   -18827069.455 8 -14093686.90547  22130876.283    22130882.9944
  24587371.119    -3980422.293 8  -3074106.38545  24587370.488    24587377.3044
  22859869.377   -13354037.125 8 -10383502.79746  22859868.363    22859877.3254
  22000288.808   -17761087.620 9 -13817676.49047  22000288.247    22000294.4904
  23387635.404    -8515432.630 8  -6604583.91245  23387635.127    23387641.6794
  20878903.744   -22962026.337 9 -17093694.69647  20878902.856    20878907.8994
 01  6  7  2 44 30.0000000  0  7 25 01 14 22 11 29 20
  21443536.366   -20421751.032 9 -15606417.06747  21443536.059    21443540.9164
  22121154.287   -18878162.055 8 -14133499.25447  22121153.654    22121160.2984
  24602181.406    -3902593.700 8  -3013460.76845  24602180.925    24602187.6254
  22842326.099   -13446226.791 8 -10455338.71746  22842325.147    22842334.0594
  22013018.117   -17694194.534 9 -13765552.05547  22013017.565    22013023.8524
  23400487.229    -8447895.158 8  -6551957.33845  23400486.990    23400493.6384
  20868350.489   -23017483.716 9 -17136908.21647  20868349.632    20868354.6794
 01  6  7  2 45  0.0000000  0  7 25 01 14 22 11 29 20
  21454531.815   -20363969.734 9 -15561392.69447  21454531.487    21454536.3554
  22111461.367   -18929098.424 8 -14173189.88047  22111460.714    22111467.3364
  24616990.406    -3824772.182 7  -2952820.67745  24616989.723    24616996.5494
  22824819.165   -13538226.214 8 -10527026.42246  22824818.188    22824826.9354
  22025818.939   -17626925.964 9 -13713135.04047  22025818.393    22025824.6934
  23413346.535    -8380318.894 8  -6499300.54445  23413346.337    23413352.9374
  20857860.933   -23072606.771 9 -17179861.22847  20857860.084    20857865.0924
 01  6  7  2 45 30.0000000  0  7 25 01 14 22 11 29 20
  21465593.742   -20305839.111 9 -15516096.12247  21465593.389    21465598.2744
  22101798.307   -18979878.054 8 -14212758.37147  22101797.674    22101804.2624
  24631798.065    -3746957.022 8  -2892185.51345  24631797.581    24631804.4104
  22807349.187   -13630030.863 8 -10598562.35546  22807348.182    22807356.9094
  22038690.900   -17559283.774 9 -13660426.88647  22038690.352    22038696.6324
  23426213.482    -8312703.217 8  -6446613.03645  23426213.221    23426219.8374
  20847435.500   -23127392.717 9 -17222551.55647  20847434.631    20847439.6714
 01  6  7  2 46  0.0000000  0  7 25 01 14 22 11 29 20
  21476721.398   -20247362.771 9 -15470530.15947  21476721.025    21476725.9574
  22092164.764   -19030502.273 8 -14252205.75047  22092164.153    22092170.7004
  24646604.448    -3669149.629 7  -2831556.40145  24646603.792    24646610.5884
  22789916.691   -13721638.322 8 -10669944.64246  22789915.650    22789924.4184
  22051633.187   -17491271.876 9 -13607430.64747  22051632.612    22051638.9084
  23439087.450    -8245049.493 8  -6393895.88545  23439087.287    23439093.9004
  20837074.405   -23181840.613 9 -17264978.47347  20837073.534    20837078.5314
 01  6  7  2 46 30.0000000  0  7 25 01 14 22 11 29 20
  21487914.204   -20188543.959 9 -15424697.33147  21487913.867    21487918.8134
  22082560.544   -19080972.440 8 -14291533.09747  22082559.932    22082566.4824
  24661409.103    -3591350.916 8  -2770934.08745  24661408.412    24661415.3004
  22772522.184   -13813046.411 8 -10741171.57946  22772521.102    22772529.8404
  22064645.092   -17422893.866 9 -13554149.13247  22064644.514    22064650.8234
  23451968.674    -8177358.764 8  -6341149.89145  23451968.470    23451975.0444
  20826777.810   -23235949.419 9 -17307141.16047  20826776.932    20826781.9224
 01  6  7  2 47  0.0000000  0  7 25 01 14 22 11 29 20
  21499172.490   -20129381.192 9 -15378596.49947  21499172.183    21499177.1084
  22072986.228   -19131285.448 8 -14330737.98747  22072985.630    22072992.1814
  24676212.557    -3513558.089 7  -2710316.33445  24676212.034    24676218.5934
  22755166.774   -13904249.115 8 -10812238.47046  22755165.717    22755174.3804
  22077726.799   -17354149.374 9 -13500582.05247  22077726.228    22077732.5304
  23464857.334    -8109627.889 8  -6288372.63345  23464857.188    23464863.8654
  20816546.735   -23289713.964 9 -17349035.59847  20816545.845    20816550.8624
 01  6  7  2 47 30.0000000  0  7 25 01 14 22 11 29 20
  21510495.183   -20069880.043 9 -15332231.97647  21510494.884    21510499.8154
  22063441.217   -19181444.604 8 -14369822.98147  22063440.618    22063447.1774
  24691014.508    -3435774.055 7  -2649705.43645  24691013.787    24691020.5134
  22737850.450   -13995245.935 8 -10883144.93146  22737849.485    22737858.0954
  22090877.137   -17285044.133 9 -13446733.86847  22090876.544    22090882.8544
  23477753.365    -8041860.022 8  -6235566.54445  23477753.030    23477759.6894
  20806381.047   -23343135.052 9 -17390662.40247  20806380.163    20806385.1494
 01  6  7  2 48  0.0000000  0  7 25 01 14 22 11 29 20
  21521882.422   -20010039.791 9 -15285603.22747  21521882.121    21521887.0414
  22053925.928   -19231447.516 8 -14408786.22747  22053925.315    22053931.9214
  24705814.935    -3357996.735 7  -2589099.76145  24705814.311    24705821.1914
  22720574.633   -14086030.726 8 -10953886.17346  22720573.574    22720582.1334
  22104096.022   -17215578.501 8 -13392604.86046  22104095.453    22104101.7794
  23490656.560    -7974052.885 8  -6182729.85145  23490656.307    23490662.9184
  20796281.565   -23396208.110 9 -17432018.01947  20796280.684    20796285.6684
 01  6  7  2 48 30.0000000  0  7 25 01 14 22 11 29 20
  21533333.379   -19949864.796 9 -15238713.63547  21533333.074    21533337.9824
  22044439.863   -19281296.556 8 -14447629.57847  22044439.263    22044445.9174
  24720613.684    -3280228.140 7  -2528500.89445  24720613.046    24720619.9444
  22703339.348   -14176601.912 8 -11024460.98446  22703338.317    22703346.8674
  22117382.581   -17145757.109 9 -13338198.63346  22117382.035    22117388.3914
  23503567.029    -7906208.322 8  -6129863.99545  23503566.679    23503573.2964
  20786248.348   -23448932.856 9 -17473102.21647  20786247.470    20786252.4424
 01  6  7  2 49  0.0000000  0  7 25 01 14 22 11 29 20
  21544848.007   -19889355.214 9 -15191563.32947  21544847.682    21544852.5954
  22034983.443   -19330990.345 8 -14486351.96547  22034982.849    22034989.4624
  24735411.342    -3202466.638 7  -2467907.56645  24735410.543    24735417.6144
  22686145.579   -14266954.886 8 -11094865.74146  22686144.549    22686153.0524
  22130736.718   -17075580.898 8 -13283515.92546  22130736.170    22130742.5474
  23516484.946    -7838324.988 8  -6076967.92945  23516484.625    23516491.1204
  20776282.122   -23501305.793 9 -17513912.28447  20776281.270    20776286.2094
 01  6  7  2 49 30.0000000  0  7 25 01 14 22 11 29 20
  21556425.569   -19828514.930 9 -15144155.32847  21556425.217    21556430.1144
  22025556.275   -19380530.505 8 -14524954.64147  22025555.695    22025562.2554
  24750207.155    -3124713.956 7  -2407321.08445  24750206.328    24750213.3234
  22668993.762   -14357088.124 8 -11165099.28946  22668992.723    22669001.1254
  22144157.478   -17005054.285 9 -13228560.18046  22144156.969    22144163.3364
  23529409.811    -7770404.235 8  -6024042.70445  23529409.438    23529416.0194
  20766382.914   -23553326.225 9 -17554447.67047  20766382.063    20766387.0084
 01  6  7  2 50  0.0000000  0  7 25 01 14 22 11 29 20
  21568065.764   -19767345.080 9 -15096490.52947  21568065.409    21568070.3284
  22016158.399   -19429916.569 8 -14563437.23947  22016157.791    22016164.3144
  24765001.491    -3046969.073 7  -2346740.67145  24765000.677    24765007.7544
  22651884.602   -14446996.944 8 -11235157.96446  22651883.558    22651891.9114
  22157644.628   -16934179.132 8 -13173332.83846  22157644.082    22157650.4354
  23542342.028    -7702445.568 8  -5971087.93845  23542341.686    23542348.2054
  20756551.441   -23604990.939 9 -17594705.87047  20756550.589    20756555.5554
 01  6  7  2 50 30.0000000  0  7 25 01 14 22 11 29 20
  21579768.638   -19705846.290 9 -15048569.41047  21579768.277    21579773.2114
  22006789.982   -19479147.471 8 -14601798.94147  22006789.397    22006795.9254
  24779794.805    -2969230.953 7  -2286165.54045  24779794.125    24779800.8624
  22634819.028   -14536676.375 8 -11305037.89546  22634817.922    22634826.3464
  22171197.789   -16862956.780 8 -13117834.95746  22171197.299    22171203.6494
  23555281.554    -7634447.566 8  -5918102.51745  23555281.198    23555287.8264
  20746788.268   -23656296.769 9 -17634684.42447  20746787.388    20746792.3304
 01  6  7  2 51  0.0000000  0  7 25 01 14 22 11 29 20
  21591533.067   -19644023.655 9 -15000395.94647  21591532.753    21591537.6754
  21997450.672   -19528225.758 8 -14640041.71647  21997450.062    21997456.5954
  24794585.953    -2891502.081 7  -2225597.63245  24794585.365    24794592.4234
  22617797.281   -14626125.582 8 -11374738.44046  22617796.156    22617804.6064
  22184816.104   -16791392.519 8 -13062070.65546  22184815.562    22184821.9714
  23568228.213    -7566412.465 8  -5865088.19645  23568227.895    23568234.5034
  20737093.306   -23707244.003 9 -17674383.55347  20737092.450    20737097.3794
 01  6  7  2 51 30.0000000  0  7 25 01 14 22 11 29 20
  21603359.346   -19581876.298 9 -14951969.45047  21603359.006    21603363.9814
  21988140.921   -19577148.824 8 -14678163.53947  21988140.287    21988146.7814
  24809375.742    -2813779.854 7  -2165034.85044  24809375.287    24809382.4694
  22600820.481   -14715338.910 8 -11444255.16246  22600819.318    22600827.7054
  22198499.382   -16719486.327 8 -13006039.91146  22198498.879    22198505.2944
  23581182.391    -7498337.800 8  -5812043.03545  23581182.147    23581188.7494
  20727467.544   -23757827.668 9 -17713799.37847  20727466.664    20727471.6034
 01  6  7  2 52  0.0000000  0  6 25 01 22 11 29 20
  21615247.187   -19519405.167 9 -14903290.66847  21615246.856    21615251.8774
  21978860.760   -19625915.973 8 -14716163.87647  21978860.152    21978866.6474
  22583889.221   -14804312.237 8 -11513584.89546  22583888.180    22583896.5314
  22212247.455   -16647240.211 8 -12949744.29846  22212246.911    22212253.3064
  23594144.277    -7430222.762 8  -5758966.42845  23594144.014    23594150.6474
  20717911.477   -23808044.966 9 -17752929.72547  20717910.629    20717915.5424
 01  6  7  2 52 30.0000000  0  6 25 01 22 11 29 20
  21627195.452   -19456616.758 9 -14854364.65847  21627195.134    21627200.1354
  21969609.513   -19674531.534 8 -14754046.09447  21969608.886    21969615.4224
  22567003.704   -14893045.884 8 -11582727.86246  22567002.599    22567010.9674
  22226058.843   -16574661.082 8 -12893189.19346  22226058.290    22226064.6914
  23607112.920    -7362071.541 8  -5705861.62245  23607112.676    23607119.3214
  20708424.738   -23857898.037 9 -17791776.25547  20708423.866    20708428.7884
 01  6  7  2 53  0.0000000  0  6 25 01 22 11 29 20
  21639203.844   -19393512.052 9 -14805192.18147  21639203.531    21639208.5774
  21960387.268   -19722994.477 8 -14791809.39047  21960386.651    21960393.1834
  22550164.720   -14981534.909 8 -11651680.22146  22550163.567    22550171.8774
  22239933.341   -16501750.327 8 -12836375.67146  22239932.745    22239939.2034
  23620088.999    -7293882.845 8  -5652727.60945  23620088.653    23620095.3314
  20699007.991   -23907383.201 9 -17830336.10647  20699007.146    20699012.0334
 01  6  7  2 53 30.0000000  0  6 25 01 22 11 29 20
  21651272.002   -19330093.660 9 -14755775.26647  21651271.707    21651276.7014
  21951194.009   -19771305.185 9 -14829454.05747  21951193.395    21951199.8974
  22533372.767   -15069776.308 8 -11720439.61846  22533371.672    22533379.9214
  22253870.398   -16428510.908 8 -12779306.06046  22253869.796    22253876.2654
  23633071.976    -7225656.868 8  -5599564.54545  23633071.605    23633078.3934
  20689661.645   -23956498.655 9 -17868607.87247  20689660.796    20689665.6854
 01  6  7  2 54  0.0000000  0  6 25 01 22 11 29 20
  21663399.605   -19266362.513 9 -14706114.65247  21663399.351    21663404.3354
  21942029.795   -19819463.377 8 -14866979.88647  21942029.149    21942035.6494
  22516628.517   -15157766.879 8 -11789003.57646  22516627.534    22516635.7404
  22267869.490   -16354945.232 8 -12721982.22446  22267868.935    22267875.4154
  23646062.134    -7157393.072 8  -5546372.03345  23646061.892    23646068.4454
  20680386.111   -24005241.791 9 -17906589.51947  20680385.247    20680390.1294
 01  6  7  2 54 30.0000000  0  6 25 01 22 11 29 20
  21675586.197   -19202321.707 9 -14656212.74247  21675585.914    21675590.8904
  21932894.370   -19867470.010 9 -14904387.62347  21932893.754    21932900.2524
  22499932.734   -15245503.536 8 -11857369.66946  22499931.692    22499939.9124
  22281930.060   -16281056.771 8 -12664406.85746  22281929.481    22281935.9674
  23659059.423    -7089092.429 8  -5493150.78745  23659059.034    23659065.7994
  20671181.660   -24053611.359 9 -17944280.07347  20671180.809    20671185.6794
 01  6  7  2 55  0.0000000  0  6 25 01 22 11 29 20
  21687831.489   -19137972.312 9 -14606070.37547  21687831.207    21687836.1984
  21923788.010   -19915324.120 9 -14941676.50447  21923787.388    21923793.8714
  22483286.058   -15332981.520 8 -11925534.19946  22483285.086    22483293.2544
  22296051.718   -16206847.393 8 -12606581.42046  22296051.105    22296057.6344
  23672063.829    -7020753.717 8  -5439899.89045  23672063.511    23672070.2474
  20662048.925   -24101604.097 9 -17981676.99547  20662048.062    20662052.9564
 01  6  7  2 55 30.0000000  0  6 25 01 22 11 29 20
  21700135.174   -19073316.209 9 -14555689.01147  21700134.879    21700139.8774
  21914710.773   -19963025.116 9 -14978846.09647  21914710.152    21914716.6904
  22466689.556   -15420196.721 8 -11993493.95846  22466688.475    22466696.6704
  22310233.945   -16132319.224 8 -12548507.57946  22310233.337    22310239.9034
  23685075.685    -6952376.149 8  -5386618.69045  23685075.344    23685082.0724
  20652988.476   -24149217.172 9 -18018778.07647  20652987.604    20652992.4904
 01  6  7  2 56  0.0000000  0  6 25 01 22 11 29 20
  21712496.668   -19008355.891 9 -14505070.60647  21712496.401    21712501.3964
  21905662.511   -20010573.975 9 -15015897.11447  21905661.886    21905668.4244
  22450143.388   -15507146.975 8 -12061247.27146  22450142.350    22450150.4454
  22324476.263   -16057475.757 8 -12490188.06246  22324475.637    22324482.2294
  23698094.758    -6883960.454 8  -5333307.81545  23698094.470    23698101.2304
  20644000.448   -24196449.291 9 -18055582.30447  20643999.576    20644004.4654
 01  6  7  2 56 30.0000000  0  6 25 01 22 11 29 20
  21724915.342   -18943095.649 9 -14454218.48747  21724915.064    21724920.0604
  21896642.719   -20057973.163 8 -15052831.51247  21896642.070    21896648.6354
  22433647.715   -15593831.496 8 -12128793.51346  22433646.730    22433654.8024
  22338777.564   -15982322.113 8 -12431626.84046  22338776.916    22338783.5294
  23711120.699    -6815509.111 8  -5279969.14745  23711120.333    23711127.0594
  20635084.884   -24243300.828 9 -18092089.97747  20635084.029    20635088.9094
 01  6  7  2 57  0.0000000  0  6 25 01 22 11 29 20
  21737391.200   -18877534.688 9 -14403132.04447  21737390.887    21737395.8964
  21887651.893   -20105219.876 9 -15089647.09147  21887651.284    21887657.8254
  22417203.956   -15680243.364 8 -12196127.31646  22417203.003    22417211.0564
  22353137.863   -15906858.144 8 -12372823.81646  22353137.265    22353143.9144
  23724153.990    -6747019.154 8  -5226600.38845  23724153.600    23724160.3734
  20626242.758   -24289766.506 9 -18128296.97747  20626241.880    20626246.7724
 01  6  7  2 57 30.0000000  0  6 25 01 22 11 29 20
  21749923.678   -18811676.144 9 -14351813.72647  21749923.371    21749928.3604
  21878689.952   -20152315.076 9 -15126344.61847  21878689.309    21878695.8264
  22400812.669   -15766379.746 8 -12263246.44646  22400811.701    22400819.7264
  22367556.606   -15831087.599 8 -12313781.90946  22367556.013    22367562.6544
  23737194.433    -6678491.107 8  -5173201.92945  23737193.993    23737200.8464
  20617474.256   -24335845.251 9 -18164202.47547  20617473.380    20617478.2464
 01  6  7  2 58  0.0000000  0  6 25 01 22 11 29 20
  21762512.458   -18745521.718 9 -14300264.83847  21762512.146    21762517.1224
  21869756.831   -20199258.764 9 -15162924.08547  21869756.213    21869762.7064
  22384474.398   -15852237.091 8 -12330148.15546  22384473.462    22384481.5064
  22382033.143   -15755012.796 8 -12254502.91046  22382032.561    22382039.2344
  23750242.296    -6609924.651 8  -5119773.58445  23750241.789    23750248.6914
  20608779.896   -24381534.417 9 -18199804.40448  20608779.009    20608783.8794
 01  6  7  2 58 30.0000000  0  6 25 01 22 11 29 20
  21775156.928   -18679074.562 9 -14248487.84947  21775156.613    21775161.5974
  21860852.413   -20246051.990 9 -15199386.29747  21860851.777    21860858.1924
  22368189.591   -15937813.644 8 -12396831.05746  22368188.685    22368196.6914
  22396567.010   -15678637.770 8 -12194989.96246  22396566.369    22396573.0134
  23763297.262    -6541321.009 8  -5066316.22345  23763296.752    23763303.4374
  20600159.828   -24426833.093 9 -18235102.05648  20600158.947    20600163.8234
 01  6  7  2 59  0.0000000  0  6 25 01 22 11 29 20
  21787856.661   -18612337.030 9 -14196484.59647  21787856.371    21787861.3634
  21851976.512   -20292695.236 9 -15235731.64247  21851975.842    21851982.2284
  22351958.955   -16023106.139 8 -12463292.60946  22351957.982    22351965.9024
  22411157.212   -15601965.576 8 -12135245.45446  22411156.609    22411163.2944
  23776359.078    -6472680.276 8  -5012829.96245  23776358.739    23776365.4324
  20591614.382   -24471739.565 9 -18270094.09448  20591613.503    20591618.3704
 01  6  7  2 59 30.0000000  0  6 25 01 22 11 29 20
  21800611.685   -18545309.111 9 -14144255.06947  21800611.391    21800616.3794
  21843129.568   -20339186.133 9 -15271958.28247  21843128.896    21843135.2864
  22335783.483   -16108108.360 8 -12529527.98446  22335782.520    22335790.3684
  22425803.963   -15524996.584 8 -12075269.68046  22425803.399    22425810.0344
  23789428.476    -6404000.070 8  -4959312.95945  23789428.091    23789434.8284
  20583144.403   -24516249.365 9 -18304777.03748  20583143.516    20583148.4014
 01  6  7  3  0  0.0000000  0  6 25 01 22 11 29 20
  21813421.198   -18477994.795 9 -14091802.37347  21813420.863    21813425.8644
  21834311.124   -20385526.937 9 -15308067.97047  21834310.472    21834316.8134
  22319663.563   -16192818.730 8 -12595535.94646  22319662.549    22319670.4074
  22440506.300   -15447735.709 8 -12015066.46546  22440505.731    22440512.3974
  23802505.207    -6335282.240 8  -4905766.63445  23802504.769    23802511.5524
  20574750.018   -24560362.247 9 -18339150.69248  20574749.128    20574754.0114
 01  6  7  3  0 30.0000000  0  6 25 01 22 11 29 20
  21826284.932   -18410395.758 9 -14039127.81647  21826284.587    21826289.5354
  21825521.337   -20431717.554 9 -15344060.62847  21825520.657    21825526.9524
  22303599.861   -16277234.105 8 -12661314.03446  22303598.740    22303606.5694
  22455263.584   -15370185.739 8 -11954637.98246  22455263.025    22455269.7324
  23815588.950    -6266526.577 8  -4852190.80345  23815588.662    23815595.3684
  20566431.518   -24604076.038 9 -18373213.36548  20566430.637    20566435.4994
 01  6  7  3  1  0.0000000  0  6 25 01 22 11 29 20
  21839202.506   -18342513.400 9 -13986232.49047  21839202.165    21839207.1304
  21816760.176   -20477757.540 9 -15379935.90647  21816759.492    21816765.7734
  22287592.812   -16361350.942 8 -12726859.50246  22287591.731    22287599.5484
  22470075.583   -15292348.793 8 -11893985.89346  22470074.981    22470081.6394
  23828679.973    -6197732.191 8  -4798584.84045  23828679.688    23828686.5054
  20558189.519   -24647388.083 9 -18406962.99748  20558188.632    20558193.4564
 01  6  7  3  1 30.0000000  0  6 25 01 22 11 29 20
  21852173.482   -18274350.416 9 -13933118.49547  21852173.135    21852178.1474
  21808027.551   -20523647.391 9 -15415694.20547  21808026.917    21808033.1914
  22271643.227   -16445165.751 8 -12792169.62446  22271642.223    22271650.0084
  22484941.360   -15214228.324 8 -11833112.87246  22484940.849    22484947.5104
  23841778.555    -6128899.691 7  -4744949.14745  23841778.221    23841784.8184
  20550024.242   -24690296.801 9 -18440398.34148  20550023.335    20550028.2154
 01  6  7  3  2  0.0000000  0  6 25 01 22 11 29 20
  21865197.385   -18205909.243 9 -13879787.72647  21865197.049    21865202.0824
  21799323.549   -20569387.338 9 -15451335.68847  21799322.883    21799329.1454
  22255751.783   -16528675.118 8 -12857241.74446  22255750.834    22255758.5714
  22499860.731   -15135827.273 8 -11772021.22446  22499860.131    22499866.7744
  23854884.015    -6060029.135 8  -4691283.81145  23854883.708    23854890.5544
  20541936.067   -24732800.249 9 -18473517.90248  20541935.194    20541940.0124
 01  6  7  3  2 30.0000000  0  6 25 01 22 11 29 20
  21878273.815   -18137192.298 9 -13826242.07447  21878273.447    21878278.5174
  21790647.852   -20614978.005 9 -15486860.84247  21790647.189    21790653.4624
  22239919.060   -16611876.211 8 -12922073.63946  22239918.095    22239925.7874
  22514832.801   -15057148.761 8 -11710713.36546  22514832.226    22514838.8644
  23867996.922    -5991120.878 8  -4637589.11045  23867996.530    23868003.3024
  20533925.347   -24774896.836 9 -18506320.42048  20533924.450    20533929.3224
 01  6  7  3  3  0.0000000  0  6 25 01 22 11 29 20
  21891402.299   -18068201.295 9 -13772482.86747  21891402.018    21891407.0534
  21782000.770   -20660418.688 9 -15522269.12447  21782000.115    21782006.4204
  22224145.673   -16694765.328 8 -12986662.44846  22224144.735    22224152.3594
  22529857.251   -14978195.114 8 -11649191.11446  22529856.664    22529863.3154
  23881117.344    -5922173.934 8  -4583864.25745  23881116.817    23881123.4874
  20525992.579   -24816583.773 9 -18538803.73848  20525991.692    20525996.5174
 01  6  7  3  3 30.0000000  0  7 25 01 22 11 29 13 20
  21904581.852   -17998942.882 9 -13718515.28947  21904581.494    21904586.5354
  21773381.238   -20705714.591 9 -15557564.59047  21773380.582    21773386.8714
  22208431.332   -16777344.230 8 -13051009.52246  22208430.384    22208438.0074
  22544932.482   -14898974.220 8 -11587460.60946  22544931.928    22544938.5954
  23894243.636    -5853193.344 8  -4530113.16845  23894243.249    23894250.1204
  24645712.455    -3606833.178 7  -2542704.17245  24645712.249    24645721.3594
  20518137.194   -24857864.080 9 -18570970.19448  20518136.300    20518141.0994
 01  6  7  3  4  0.0000000  0  7 25 01 22 11 29 13 20
  21917812.376   -17929416.138 9 -13664338.62347  21917812.005    21917817.0594
  21764789.871   -20750862.584 9 -15592744.79747  21764789.210    21764795.4514
  22192777.413   -16859605.665 8 -13115109.23346  22192776.441    22192784.0294
  22560058.714   -14819485.759 8 -11525521.62146  22560058.137    22560064.7934
  23907377.482    -5784175.717 7  -4476333.23545  23907377.087    23907383.8454
  24631286.055    -3682644.005 7  -2601777.40845  24631285.965    24631294.9284
  20510360.178   -24898732.391 9 -18602815.61748  20510359.274    20510364.0964
 01  6  7  3  4 30.0000000  0  7 25 01 22 11 29 13 20
  21931094.483   -17859617.839 9 -13609950.35647  21931094.159    21931099.2604
  21756227.583   -20795857.725 9 -15627805.90947  21756226.937    21756233.1654
  22177185.519   -16941541.181 8 -13178954.97346  22177184.564    22177192.0974
  22575236.230   -14739727.475 8 -11463372.37546  22575235.670    22575242.3544
  23920519.083    -5715116.022 8  -4422520.51245  23920518.719    23920525.6154
  24616870.611    -3758397.422 7  -2660805.89445  24616870.386    24616879.2934
  20502662.948   -24939181.673 9 -18634334.52648  20502662.042    20502666.8704
 01  6  7  3  5  0.0000000  0  7 25 01 22 11 29 13 20
  21944427.574   -17789551.942 9 -13555353.57247  21944427.259    21944432.3394
  21747693.986   -20840701.916 9 -15662749.40247  21747693.326    21747699.5674
  22161655.866   -17023149.699 8 -13242545.90946  22161654.876    22161662.3674
  22590464.166   -14659704.113 8 -11401016.57146  22590463.598    22590470.3674
  23933668.486    -5646015.837 8  -4368676.24145  23933668.096    23933674.9824
  24602465.490    -3834095.918 7  -2719791.60045  24602465.188    24602474.2944
  20495045.433   -24979211.765 9 -18665526.79248  20495044.536    20495049.3634
 01  6  7  3  5 30.0000000  0  7 25 01 22 11 29 13 20
  21957810.967   -17719221.684 9 -13500550.79547  21957810.664    21957815.7784
  21739188.874   -20885396.312 9 -15697576.15947  21739188.213    21739194.4534
  22146188.901   -17104429.031 8 -13305880.34446  22146187.883    22146195.3374
  22605741.916   -14579419.445 8 -11338457.17246  22605741.331    22605748.1674
  23946825.417    -5576876.155 8  -4314801.20145  23946824.988    23946831.9494
  24588070.794    -3909740.019 8  -2778734.94245  24588070.623    24588079.5154
  20487507.989   -25018821.542 9 -18696391.54548  20487507.054    20487511.8614
 01  6  7  3  6  0.0000000  0  7 25 01 22 11 29 13 20
  21971244.200   -17648629.819 9 -13445544.16647  21971243.894    21971249.0034
  21730712.133   -20929941.617 9 -15732286.74147  21730711.482    21730717.6994
  22130785.083   -17185376.202 8 -13368955.95246  22130784.048    22130791.4264
  22621068.619   -14498877.224 8 -11275697.06646  22621068.021    22621074.8794
  23959989.564    -5507697.361 8  -4260895.66845  23959989.244    23959996.3994
  24573686.459    -3985330.459 8  -2837636.45445  24573686.320    24573694.8074
  20480050.715   -25058009.657 9 -18726927.72548  20480049.787    20480054.6004
 01  6  7  3  6 30.0000000  0  7 25 01 22 11 29 13 20
  21984726.730   -17577779.126 9 -13390335.85247  21984726.391    21984731.4544
  21722263.651   -20974338.530 9 -15766881.69647  21722263.000    21722269.1744
  22115445.107   -17265988.168 8 -13431770.37546  22115443.987    22115451.3954
  22636443.664   -14418080.804 8 -11212738.90446  22636443.077    22636450.0444
  23973161.287    -5438480.031 8  -4206960.12145  23973160.976    23973168.0204
  24559312.046    -4060867.879 8  -2896496.68345  24559311.882    24559320.3934
  20472673.957   -25096774.804 9 -18757134.32748  20472673.043    20472677.8324
 01  6  7  3  7  0.0000000  0  7 25 01 22 11 29 13 20
  21998258.334   -17506670.054 9 -13334926.21247  21998257.993    21998263.1034
  21713843.702   -21018585.440 9 -15801359.77147  21713843.050    21713849.2004
  22100169.744   -17346260.048 8 -13494319.78946  22100168.732    22100176.0554
  22651866.898   -14337031.378 8 -11149583.58246  22651866.310    22651873.2834
  23986340.533    -5369222.496 8  -4152993.23445  23986340.221    23986347.1404
  24544948.048    -4136350.467 8  -2955314.19045  24544948.016    24544956.5414
  20465378.290   -25135113.488 9 -18787008.61548  20465377.394    20465382.1954
 01  6  7  3  7 30.0000000  0  7 25 01 22 11 29 13 20
  22011838.456   -17435306.177 9 -13279318.01147  22011838.111    22011843.1804
  21705451.992   -21062684.169 9 -15835722.37547  21705451.329    21705457.4784
  22084959.419   -17426190.702 8 -13556603.30746  22084958.372    22084965.6314
  22667337.471   -14255733.850 8 -11086234.93546  22667336.809    22667343.7344
  23999527.154    -5299926.268 8  -4098996.19745  23999526.923    23999533.8014
  24530594.134    -4211780.425 7  -3014090.66345  24530594.142    24530602.2224
  20458163.979   -25173025.238 9 -18816550.22548  20458163.039    20458167.8264
 01  6  7  3  8  0.0000000  0  7 25 01 22 11 29 13 20
  22025466.597   -17363690.146 9 -13223513.33747  22025466.227    22025471.3064
  21697088.392   -21106635.001 9 -15869969.73047  21697087.729    21697093.8694
  22069814.531   -17505777.097 8 -13618618.57946  22069813.506    22069820.7544
  22682854.522   -14174191.266 8 -11022695.34746  22682853.877    22682860.8474
  24012721.141    -5230591.579 8  -4044969.19345  24012720.819    24012727.6674
  24516250.144    -4287157.972 8  -3072826.33345  24516250.274    24516258.2324
  20451031.139   -25210508.435 9 -18845757.90248  20451030.216    20451034.9794
 01  6  7  3  8 30.0000000  0  7 25 01 22 11 29 13 20
  22039142.629   -17291822.224 9 -13167512.37647  22039142.259    22039147.2914
  21688753.277   -21150436.001 9 -15904100.33747  21688752.589    21688758.7784
  22054736.264   -17585013.622 8 -13680361.24046  22054735.224    22054742.4354
  22698418.010   -14092404.537 8 -10958965.50346  22698417.402    22698424.4244
  24025922.920    -5161216.293 8  -3990910.54745  24025922.590    24025929.3494
  24501916.583    -4362480.939 8  -3131519.49345  24501916.646    24501924.7644
  20443980.541   -25247559.394 9 -18874628.76648  20443979.618    20443984.4194
 01  6  7  3  9  0.0000000  0  7 25 01 22 11 29 13 20
  22052865.772   -17219706.885 9 -13111318.63247  22052865.379    22052870.3954
  21680446.126   -21194089.953 9 -15938116.36147  21680445.450    21680451.7024
  22039724.805   -17663899.374 8 -13741830.56146  22039723.677    22039730.8764
  22714026.931   -14010379.330 8 -10895049.84946  22714026.407    22714033.3974
  24039131.776    -5091802.969 8  -3936822.26845  24039131.455    24039138.3154
  24487592.950    -4437751.969 8  -3190172.14645  24487592.863    24487601.0414
  20437012.166   -25284178.502 9 -18903163.12948  20437011.252    20437016.0174
 01  6  7  3  9 30.0000000  0  7 25 01 22 11 29 13 20
  22066635.873   -17147344.560 9 -13054932.42947  22066635.466    22066640.4694
  21672167.305   -21237595.318 9 -15972016.60147  21672166.651    21672172.8924
  22024780.962   -17742429.652 8 -13803022.87346  22024779.773    22024786.9864
  22729681.041   -13928116.718 8 -10830949.19246  22729680.520    22729687.5624
  24052348.407    -5022349.811 8  -3882702.93545  24052348.007    24052354.7944
  24473279.480    -4512969.472 8  -3248783.05645  24473279.351    24473287.4384
  20430126.554   -25320362.278 9 -18931358.26248  20430125.678    20430130.4514
 01  6  7  3 10  0.0000000  0  7 25 01 22 11 29 13 20
  22080452.313   -17074738.299 9 -12998356.14847  22080451.971    22080456.9824
  21663916.517   -21280953.473 9 -16005802.14047  21663915.853    21663922.0784
  22009904.893   -17820602.953 8 -13863937.04046  22009903.771    22009910.9754
  22745379.504   -13845621.067 8 -10766666.95746  22745378.962    22745386.0404
  24065572.033    -4952858.035 8  -3828553.52945  24065571.791    24065578.6794
  24458975.807    -4588134.920 8  -3307353.45945  24458975.863    24458983.9504
  20423323.988   -25356110.100 9 -18959213.70148  20423323.078    20423327.8664
 01  6  7  3 10 30.0000000  0  7 25 01 22 11 29 13 20
  22094315.079   -17001889.085 9 -12941590.55747  22094314.714    22094319.7464
  21655694.035   -21324162.773 9 -16039471.68947  21655693.366    21655699.5774
  21995097.840   -17898414.041 8 -13924568.97746  21995096.752    21995103.9044
  22761122.076   -13762893.652 8 -10702204.12846  22761121.494    22761128.5474
  24078803.705    -4883325.815 8  -3774372.60345  24078803.471    24078810.3494
  24444682.465    -4663246.587 8  -3365881.93345  24444682.568    24444690.4614
  20416604.968   -25391418.466 9 -18986726.70748  20416604.089    20416608.8994
 01  6  7  3 11  0.0000000  0  7 25 01 22 11 29 13 20
  22108223.701   -16928798.698 9 -12884637.03747  22108223.375    22108228.4104
  21647499.892   -21367223.215 9 -16073025.23747  21647499.198    21647505.3824
  21980360.480   -17975859.198 8 -13984915.75846  21980359.364    21980366.4924
  22776908.323   -13679937.341 8 -10637562.94346  22776907.685    22776914.6824
  24092042.985    -4813752.768 8  -3720159.85545  24092042.716    24092049.5484
  24430399.621    -4738304.101 8  -3424368.15745  24430399.567    24430407.4284
  20409970.087   -25426285.091 9 -19013895.49848  20409969.192    20409974.0064
 01  6  7  3 11 30.0000000  0  7 25 01 22 11 29 13 20
  22122177.559   -16855470.437 9 -12827498.16647  22122177.265    22122182.3104
  21639333.811   -21410135.907 9 -16106463.65947  21639333.142    21639339.3154
  21965693.101   -18052936.056 8 -14044975.55546  21965692.018    21965699.1524
  22792737.287   -13596755.987 8 -10572746.38546  22792736.636    22792743.6544
  24105289.874    -4744140.060 8  -3665916.21745  24105289.546    24105296.5344
  24416126.525    -4813309.056 7  -3482813.48745  24416126.158    24416134.0544
  20403419.360   -25460709.391 9 -19040719.61948  20403418.447    20403423.2554
 01  6  7  3 12  0.0000000  0  7 25 01 22 11 29 13 20
  22136176.089   -16781907.854 9 -12770176.69647  22136175.784    22136180.8094
  21631195.501   -21452902.641 9 -16139788.33747  21631194.855    21631200.9694
  21951096.094   -18129643.600 8 -14104747.58446  21951094.984    21951102.1034
  22808608.190   -13513354.283 8 -10507758.12746  22808607.530    22808614.6004
  24118543.948    -4674489.086 8  -3611642.73245  24118543.689    24118550.5194
  24401862.933    -4888263.003 7  -3541219.02945  24401862.662    24401870.7054
  20396952.825   -25494691.198 9 -19067198.93848  20396951.894    20396956.7004
 01  6  7  3 12 30.0000000  0  7 25 01 22 11 29 13 20
  22150219.345   -16708110.202 9 -12712672.06247  22150219.022    22150224.0424
  21623085.539   -21495520.802 9 -16172997.25747  21623084.880    21623090.9484
  21936570.494   -18205975.973 8 -14164227.26646  21936569.369    21936576.4254
  22824520.970   -13429732.424 8 -10442598.33846  22824520.303    22824527.4194
  24131806.000    -4604796.884 8  -3557337.16345  24131805.678    24131812.5314
  24387609.824    -4963163.212 8  -3599582.70245  24387609.581    24387617.7574
  20390571.420   -25528225.670 9 -19093329.68748  20390570.492    20390575.3004
 01  6  7  3 13  0.0000000  0  7 25 01 22 11 29 13 20
  22164306.754   -16634080.832 9 -12654986.86547  22164306.410    22164311.3854
  21615003.639   -21537991.442 9 -16206091.22647  21615002.965    21615009.0114
  21922116.729   -18281930.584 8 -14223412.58746  21922115.625    21922122.6534
  22840474.900   -13345894.313 8 -10377270.02246  22840474.239    22840481.3614
  24145075.780    -4535064.497 7  -3503000.26345  24145075.402    24145082.3454
  24373366.755    -5038010.891 7  -3657905.52445  24373366.541    24373374.3304
  20384275.318   -25561312.027 9 -19119111.26048  20384274.380    20384279.1544
 01  6  7  3 13 30.0000000  0  7 25 01 22 11 29 13 20
  22178437.933   -16559821.360 9 -12597122.36347  22178437.557    22178442.5574
  21606949.832   -21580314.359 9 -16239070.09247  21606949.141    21606955.2094
  21907735.457   -18357503.834 8 -14282300.75446  21907734.381    21907741.4264
  22856469.380   -13261842.740 8 -10311775.38946  22856468.735    22856475.9804
  24158352.977    -4465291.726 7  -3448631.90245  24158352.860    24158359.4494
  24359133.626    -5112805.668 7  -3716187.07145  24359133.223    24359141.1704
  20378064.806   -25593948.308 9 -19144542.11548  20378063.880    20378068.6774
 01  6  7  3 14  0.0000000  0  7 25 01 22 11 29 13 20
  22192612.205   -16485335.077 8 -12539081.12747  22192611.844    22192616.8934
  21598923.925   -21622490.467 9 -16271934.56547  21598923.227    21598929.3704
  21893427.358   -18432693.605 8 -14340890.10446  21893426.226    21893433.2054
  22872503.793   -13177581.614 8 -10246117.46446  22872503.156    22872510.4394
  24171637.966    -4395479.185 7  -3394232.52145  24171637.544    24171644.3104
  24344910.568    -5187548.378 7  -3774428.00545  24344910.139    24344918.2944
  20371940.168   -25626133.696 9 -19169621.63148  20371939.210    20371943.9954
 01  6  7  3 14 30.0000000  0  7 25 01 22 11 29 13 20
  22206829.675   -16410621.716 8 -12480862.95647  22206829.272    22206834.4234
  21590926.339   -21664517.742 9 -16304683.05747  21590925.653    21590931.7984
  21879193.059   -18507495.058 8 -14399176.86446  21879191.911    21879198.8884
  22888577.861   -13093112.035 8 -10180297.11246  22888577.248    22888584.4804
  24184930.733    -4325624.571 7  -3339800.43445  24184930.242    24184937.4744
  24330697.727    -5262237.211 8  -3832626.98345  24330697.119    24330705.5454
  20365902.029   -25657864.058 9 -19194346.58248  20365901.100    20365905.8884
 01  6  7  3 15  0.0000000  0  7 25 01 22 11 29 13 20
  22221089.505   -16335685.731 8 -12422471.30247  22221089.120    22221094.3014
  21582956.683   -21706398.515 9 -16337317.39747  21582956.010    21582962.1184
  21865032.873   -18581907.060 8 -14457160.14446  21865031.704    21865038.6634
  22904690.729   -13008438.927 8 -10114318.15546  22904690.043    22904697.3244
  24198231.232    -4255730.243 7  -3285337.32045  24198230.822    24198237.8454
  24316494.716    -5336874.139 7  -3890785.49845  24316494.192    24316502.5704
  20359950.418   -25689139.995 9 -19218717.43348  20359949.470    20359954.2334
 01  6  7  3 15 30.0000000  0  7 25 01 22 11 29 13 20
  22235391.478   -16260528.105 8 -12363906.93847  22235391.129    22235396.3364
  21575015.091   -21748131.988 9 -16369836.94747  21575014.388    21575020.4144
  21850947.535   -18655925.111 8 -14514836.47146  21850946.465    21850953.3744
  22920841.820   -12923564.362 8 -10048182.20746  22920841.192    22920848.4894
  24211539.559    -4185795.007 7  -3230842.39945  24211539.179    24211546.2224
  24302301.631    -5411458.546 8  -3948903.07845  24302301.157    24302309.4534
  20354085.806   -25719958.762 9 -19242732.04748  20354084.880    20354089.6404
 01  6  7  3 16  0.0000000  0  7 25 01 22 11 29 13 20
  22249734.988   -16185152.657 8 -12305172.85147  22249734.589    22249739.8134
  21567101.235   -21789719.473 9 -16402242.74747  21567100.537    21567106.5194
  21836937.682   -18729547.312 8 -14572204.33646  21836936.574    21836943.4234
  22937030.463   -12838492.751 8  -9981892.72646  22937029.865    22937037.1434
  24224855.244    -4115820.050 7  -3176316.51345  24224854.892    24224862.0444
  24288118.324    -5485991.890 8  -4006980.90245  24288117.935    24288126.2424
  20348308.257   -25750319.914 9 -19266390.08548  20348307.310    20348312.0654
 01  6  7  3 16 30.0000000  0  7 25 01 22 11 29 13 20
  22264119.904   -16109559.426 8 -12246269.04847  22264119.511    22264124.7404
  21559215.580   -21831158.900 9 -16434533.17747  21559214.886    21559220.8104
  21823004.008   -18802768.912 8 -14629260.04546  21823002.890    21823009.7524
  22953256.472   -12753225.069 8  -9915450.45346  22953255.841    22953263.1964
  24238178.983    -4045803.229 7  -3121757.99945  24238178.559    24238185.7984
  24273945.085    -5560472.027 7  -4065017.28445  24273944.738    24273953.0254
  20342618.504   -25780219.664 9 -19289688.57948  20342617.569    20342622.3084
 01  6  7  3 17  0.0000000  0  7 25 01 22 11 29 13 20
  22278545.814   -16033751.038 8 -12187197.59847  22278545.404    22278550.6674
  21551357.866   -21872451.122 9 -16466708.90347  21551357.156    21551363.1364
  21809146.978   -18875587.783 8 -14686001.94046  21809145.873    21809152.6884
  22969518.955   -12667764.804 8  -9848858.12146  22969518.373    22969525.7584
  24251510.464    -3975745.204 7  -3067167.36045  24251510.169    24251517.3344
  24259781.843    -5634899.979 7  -4123012.97845  24259781.503    24259789.6954
  20337016.744   -25809657.087 9 -19312626.82048  20337015.807    20337020.5784
 01  6  7  3 17 30.0000000  0  7 25 01 22 11 29 13 20
  22293012.337   -15957729.134 8 -12127959.77547  22293011.899    22293017.1794
  21543528.209   -21913595.959 9 -16498769.78347  21543527.536    21543533.5024
  21795367.322   -18948000.028 8 -14742426.98946  21795366.212    21795372.9884
  22985817.797   -12582114.741 8  -9782117.90346  22985817.080    22985824.5374
  24264850.190    -3905645.396 7  -3012544.18645  24264849.963    24264856.9134
  24245628.547    -5709275.104 8  -4180967.48445  24245628.201    24245636.3404
  20331503.420   -25838629.884 9 -19335203.02148  20331502.464    20331507.1894
 01  6  7  3 18  0.0000000  0  7 25 01 22 11 29 13 20
  22307519.009   -15881496.028 8 -12068557.37547  22307518.606    22307523.8824
  21535726.556   -21954593.709 9 -16530716.04447  21535725.857    21535731.8294
  21781665.566   -19020002.495 8 -14798532.72346  21781664.547    21781671.3154
  23002151.933   -12496278.193 8  -9715232.37746  23002151.242    23002158.7624
  24278197.766    -3835503.933 7  -2957888.55045  24278197.454    24278204.5044
  24231485.437    -5783597.741 8  -4238881.09945  24231485.102    24231493.2184
  20326078.738   -25867136.722 9 -19357416.13348  20326077.789    20326082.5274
 01  6  7  3 18 30.0000000  0  7 25 01 22 11 29 13 20
  22322065.451   -15805054.088 8 -12008992.23847  22322065.016    22322070.3194
  21527952.785   -21995444.778 9 -16562548.01647  21527952.109    21527958.1114
  21768042.354   -19091592.778 8 -14854317.28346  21768041.279    21768048.0594
  23018521.083   -12410258.565 8  -9648204.17946  23018520.400    23018527.8954
  24291553.001    -3765321.450 7  -2903200.95145  24291552.688    24291559.8694
  24217352.164    -5857868.415 8  -4296754.23745  24217351.786    24217359.8694
  20320742.964   -25895176.348 9 -19379265.18248  20320742.013    20320746.7514
 01  6  7  3 19  0.0000000  0  7 25 01 22 11 29 13 20
  22336650.947   -15728406.771 8 -11949267.07947  22336650.509    22336655.8604
  21520206.756   -22036150.216 9 -16594266.51647  21520206.111    21520212.1194
  21754497.903   -19162769.128 8 -14909779.28746  21754496.796    21754503.5794
  23034924.197   -12324059.775 8  -9581036.37246  23034923.524    23034931.0454
  24304915.950    -3695098.473 8  -2848481.78345  24304915.737    24304923.1114
  24203228.517    -5932088.316 8  -4354587.81045  24203228.084    24203236.2544
  20315496.200   -25922748.024 9 -19400749.60048  20315495.265    20315500.0404
 01  6  7  3 19 30.0000000  0  7 25 01 22 11 29 13 20
  22351275.676   -15651553.455 8 -11889381.39047  22351275.244    22351280.5684
  21512489.021   -22076707.179 9 -16625869.31347  21512488.354    21512494.3664
  21741033.275   -19233525.598 8 -14964914.12446  21741032.207    21741038.9624
  23051361.386   -12237682.002 8  -9513729.10946  23051360.675    23051368.3114
  24318287.526    -3624832.008 8  -2793728.74645  24318287.089    24318294.4414
  24189115.022    -6006254.366 8  -4412379.38945  24189114.705    24189122.7174
  20310339.427   -25949847.122 9 -19421865.77548  20310338.475    20310343.2224
 01  6  7  3 20  0.0000000  0  7 25 01 22 11 29 13 20
  22365939.180   -15574496.279 8 -11829336.85747  22365938.743    22365944.0644
  21504799.502   -22117115.957 9 -16657356.64447  21504798.827    21504804.8224
  21727649.203   -19303858.995 8 -15019719.28846  21727648.132    21727654.8494
  23067832.044   -12151128.727 8  -9446285.09346  23067831.283    23067838.9124
  24331666.870    -3554522.487 7  -2738942.13345  24331666.508    24331673.6414
  24175011.744    -6080367.266 8  -4470129.54545  24175011.538    24175019.3794
  20305272.805   -25976472.333 9 -19442612.68448  20305271.873    20305276.6064
 01  6  7  3 20 30.0000000  0  7 25 01 22 11 29 13 20
  22380640.629   -15497239.159 8 -11769136.52647  22380640.265    22380645.6074
  21497137.771   -22157378.683 9 -16688730.16347  21497137.072    21497143.0874
  21714345.791   -19373768.267 8 -15074193.96446  21714344.752    21714351.4924
  23084335.099   -12064404.800 8  -9378708.08246  23084334.338    23084341.9834
  24345054.197    -3484171.677 8  -2684123.35445  24345054.030    24345061.0034
  24160918.179    -6154428.877 8  -4527839.74145  24160918.015    24160925.9234
  20300296.248   -26002624.157 9 -19462990.72448  20300295.298    20300300.0594
 01  6  7  3 21  0.0000000  0  7 25 01 22 11 29 13 20
  22395379.797   -15419784.363 8 -11708782.15946  22395379.412    22395384.7644
  21489503.770   -22197495.334 9 -16719989.86147  21489503.067    21489509.1054
  21701123.720   -19443250.571 8 -15128335.94746  21701122.656    21701129.3924
  23100870.099   -11977513.047 8  -9311000.32646  23100869.400    23100876.9494
  24358449.545    -3413779.480 7  -2629272.31445  24358449.137    24358456.2654
  24146834.326    -6228439.197 8  -4585509.97045  24146834.215    24146842.1304
  20295410.099   -26028301.036 9 -19482998.67648  20295409.151    20295413.9244
 01  6  7  3 21 30.0000000  0  7 25 01 22 11 29 13 20
  22410156.598   -15342132.030 8 -11648273.86446  22410156.221    22410161.5094
  21481897.933   -22237464.163 9 -16751134.36447  21481897.222    21481903.2764
  21687983.750   -19512301.565 8 -15182141.84946  21687982.632    21687989.3384
  23117436.769   -11890454.852 8  -9243162.86046  23117436.121    23117443.6714
  24371852.991    -3343344.061 8  -2574387.60445  24371852.618    24371859.5334
  24132760.563    -6302396.733 8  -4643139.08345  24132760.418    24132768.3604
  20290615.026   -26053499.295 9 -19502633.67848  20290614.090    20290618.8564
 01  6  7  3 22  0.0000000  0  7 25 01 22 11 29 13 20
  22424970.296   -15264285.922 8 -11587614.57846  22424969.856    22424975.1554
  21474319.940   -22277286.766 9 -16782164.92547  21474319.228    21474325.2734
  21674926.203   -19580919.281 8 -15235610.11446  21674925.082    21674931.7674
  23134034.242   -11803234.749 8  -9175199.22846  23134033.582    23134041.1784
  24385264.361    -3272866.502 8  -2519470.03645  24385264.043    24385271.1664
  24118696.540    -6376302.864 8  -4700728.14045  24118696.484    24118704.4234
  20285911.054   -26078218.725 9 -19521895.56248  20285910.117    20285914.8764
 01  6  7  3 22 30.0000000  0  7 25 01 22 11 29 13 20
  22439820.770   -15186245.870 8 -11526804.17546  22439820.346    22439825.6854
  21466770.160   -22316961.074 9 -16813079.94247  21466769.425    21466775.4674
  21661952.081   -19649098.326 8 -15288736.56147  21661950.964    21661957.6234
  23150662.408   -11715853.659 8  -9107110.15546  23150661.760    23150669.3014
  24398684.271    -3202344.810 7  -2464518.10345  24398683.952    24398691.0824
  24104642.784    -6450155.422 8  -4758275.45645  24104642.773    24104650.5104
  20281298.880   -26102455.885 9 -19540781.65548  20281297.930    20281302.6894
 01  6  7  3 23  0.0000000  0  7 25 01 22 11 29 13 20
  22454707.066   -15108017.618 8 -11465847.12546  22454706.660    22454712.0294
  21459247.856   -22356490.700 9 -16843882.22747  21459247.132    21459253.1574
  21649061.222   -19716839.366 8 -15341521.70847  21649060.188    21649066.8414
  23167319.966   -11628317.948 8  -9038900.63246  23167319.289    23167326.8914
  24412111.846    -3131782.447 8  -2409534.46345  24412111.457    24412118.6494
  24090598.572    -6523958.137 8  -4815783.95445  24090598.496    24090606.2114
  20276778.075   -26126212.779 9 -19559293.51648  20276777.139    20276781.8804
 01  6  7  3 23 30.0000000  0  7 25 01 22 11 29 13 20
  22469629.625   -15029599.128 8 -11404741.83946  22469629.230    22469634.5944
  21451753.842   -22395871.777 9 -16874568.75947  21451753.131    21451759.1244
  21636255.116   -19784135.937 8 -15393960.51547  21636254.033    21636260.6834
  23184007.040   -11540626.851 8  -8970569.99846  23184006.406    23184014.0574
  24425547.875    -3061175.273 7  -2354515.91745  24425547.516    24425554.7384
  24076564.466    -6597707.076 8  -4873250.53745  24076564.331    24076572.0774
  20272349.783   -26149483.673 9 -19577426.67748  20272348.825    20272353.5584
 01  6  7  3 24  0.0000000  0  7 25 01 22 11 29 13 20
  22484587.894   -14950993.030 8 -11343490.36546  22484587.494    22484592.8544
  21444287.977   -22435105.107 9 -16905140.15947  21444287.279    21444293.2744
  21623533.827   -19850986.091 8 -15446051.47147  21623532.780    21623539.4384
  23200723.033   -11452784.203 8  -8902121.27646  23200722.394    23200730.0534
  24438992.302    -2990524.047 8  -2299463.03245  24438991.978    24438999.2824
  24062540.458    -6671402.996 8  -4930675.79945  24062540.320    24062547.8654
  20268014.057   -26172267.986 9 -19595180.68448  20268013.116    20268017.8514
 01  6  7  3 24 30.0000000  0  7 25 01 22 11 29 13 20
  22499581.070   -14872203.202 8 -11282095.72946  22499580.654    22499586.0874
  21436849.979   -22474192.096 9 -16935597.53047  21436849.278    21436855.3044
  21610897.977   -19917387.825 8 -15497793.01247  21610896.887    21610903.5254
  23217466.946   -11364794.650 8  -8833558.09146  23217466.253    23217474.0164
  24452445.060    -2919829.984 7  -2244376.76945  24452444.774    24452452.1224
  24048526.194    -6745047.768 8  -4988061.23045  24048526.072    24048533.5414
  20263770.932   -26194565.764 9 -19612555.57348  20263769.984    20263774.7104
 01  6  7  3 25  0.0000000  0  7 25 01 22 11 29 13 20
  22514608.883   -14793231.760 8 -11220559.56746  22514608.481    22514613.9354
  21429439.806   -22513132.606 9 -16965940.76247  21429439.088    21429445.1014
  21598348.082   -19983337.910 8 -15549182.61147  21598346.936    21598353.5724
  23234238.331   -11276660.775 8  -8764882.44346  23234237.642    23234245.4304
  24465906.043    -2849093.005 7  -2189257.07945  24465905.676    24465912.8994
  24034521.742    -6818641.044 8  -5045406.53045  24034521.598    24034529.0354
  20259620.706   -26216375.217 9 -19629549.94948  20259619.757    20259624.4964
 01  6  7  3 25 30.0000000  0  7 25 01 22 11 29 13 20
  22529671.105   -14714078.958 8 -11158882.09746  22529670.753    22529676.1874
  21422057.850   -22551925.115 9 -16996168.66147  21422057.129    21422063.0874
  21585884.821   -20048832.324 8 -15600217.14247  21585883.694    21585890.2824
  23251036.882   -11188384.194 8  -8696095.58645  23251036.222    23251043.9214
  24479375.215    -2778311.513 7  -2134102.69445  24479374.982    24479382.1344
  24020527.371    -6892181.407 7  -5102710.61445  24020527.065    24020534.6494
  20255564.014   -26237693.471 9 -19646161.57648  20255563.055    20255567.7784
 01  6  7  3 26  0.0000000  0  7 25 01 22 11 29 13 20
  22544767.377   -14634747.856 8 -11097065.68346  22544767.012    22544772.4134
  21414703.843   -22590570.563 9 -17026281.97547  21414703.100    21414709.0464
  21573508.634   -20113869.418 8 -15650895.33147  21573507.492    21573514.0944
  23267861.840   -11099968.781 8  -8627200.56545  23267861.175    23267868.9354
  24492852.737    -2707486.299 7  -2078914.22845  24492852.342    24492859.7984
  24006542.862    -6965669.831 7  -5159974.20145  24006542.657    24006550.2464
  20251600.871   -26258519.859 9 -19662389.92448  20251599.919    20251604.6264
 01  6  7  3 26 30.0000000  0  7 25 01 22 11 29 13 20
  22559897.172   -14555240.771 8 -11035112.14246  22559896.789    22559902.1344
  21407377.664   -22629069.641 9 -17056281.23647  21407376.931    21407382.8964
  21561219.918   -20178446.599 9 -15701215.14547  21561218.809    21561225.3754
  23284712.469   -11011418.137 8  -8558200.15645  23284711.879    23284719.7084
  24506338.737    -2636617.547 7  -2023691.86345  24506338.275    24506345.5654
  23992568.198    -7039106.829 7  -5217197.70745  23992568.031    23992575.5424
  20247731.523   -26278853.556 9 -19678234.36748  20247730.578    20247735.2834
 01  6  7  3 27  0.0000000  0  7 25 01 22 11 29 13 20
  22575060.193   -14475558.560 8 -10973022.14846  22575059.821    22575065.2104
  21400079.577   -22667420.977 9 -17086165.36947  21400078.864    21400084.8644
  21549019.626   -20242559.477 9 -15751173.16347  21549018.485    21549024.9984
  23301588.514   -10922733.974 8  -8489095.70945  23301587.956    23301595.8424
  24519833.070    -2565704.138 7  -1968434.68545  24519832.692    24519839.8354
  23978603.549    -7112491.429 8  -5274380.39945  23978603.308    23978610.6794
  20243956.437   -26298691.771 9 -19693692.71848  20243955.501    20243960.1774
 01  6  7  3 27 30.0000000  0  7 25 01 22 11 29 13 20
  22590256.084   -14395703.745 8 -10910797.64646  22590255.711    22590261.1404
  21392809.588   -22705624.922 9 -17115934.65247  21392808.867    21392814.8344
  21536908.095   -20306205.449 8 -15800767.36247  21536907.010    21536913.4694
  23318489.541   -10833919.834 8  -8419889.98045  23318488.825    23318496.6204
  24533335.875    -2494746.254 7  -1913142.86145  24533335.396    24533342.7024
  23964648.757    -7185823.734 7  -5331522.32845  23964648.549    23964655.7584
  20240275.833   -26318033.439 9 -19708764.14648  20240274.879    20240279.5494
 01  6  7  3 28  0.0000000  0  7 25 01 22 11 29 13 20
  22605484.383   -14315678.341 8 -10848440.21646  22605484.029    22605489.4914
  21385567.729   -22743681.311 9 -17145588.94747  21385567.010    21385572.9204
  21524885.986   -20369382.118 8 -15849995.86147  21524884.842    21524891.2934
  23335414.503   -10744978.489 8  -8350585.12245  23335413.779    23335421.7124
  24546847.340    -2423743.688 7  -1857816.20445  24546846.761    24546854.0984
  23950703.822    -7259103.686 7  -5388623.48745  23950703.733    23950710.8684
  20236690.077   -26336876.865 9 -19723447.33548  20236689.112    20236693.7734
 01  6  7  3 28 30.0000000  0  7 25 01 22 11 29 13 20
  22620744.309   -14235486.928 8 -10785953.43446  22620743.975    22620749.4674
  21378353.406   -22781592.705 9 -17175130.27347  21378352.664    21378358.6004
  21512953.126   -20432089.400 9 -15898858.60547  21512951.993    21512958.4364
  23352362.663   -10655915.452 8  -8281185.42945  23352361.986    23352369.9594
  24560366.553    -2352698.765 7  -1802456.52845  24560366.082    24560373.5104
  23936768.622    -7332333.606 8  -5445685.62945  23936768.410    23936775.6754
  20233198.824   -26355223.354 9 -19737743.30148  20233197.869    20233202.5474
 01  6  7  3 29  0.0000000  0  6 25 01 22 11 13 20
  22636036.245   -14155127.958 8 -10723336.07946  22636035.839    22636041.3054
  21371167.302   -22819355.648 9 -17204555.91147  21371166.579    21371172.5484
  21501110.860   -20494320.649 9 -15947350.42547  21501109.721    21501116.1264
  23369334.075   -10566730.601 8  -8211690.85945  23369333.347    23369341.4324
  23922843.246    -7405510.947 8  -5502706.82145  23922843.052    23922850.4024
  20229803.010   -26373068.407 9 -19751648.53748  20229802.060    20229806.7574
 01  6  7  3 29 30.0000000  0  6 25 01 22 11 13 20
  22651359.595   -14074603.105 8 -10660589.48146  22651359.210    22651364.6594
  21364009.540   -22856969.812 9 -17233865.62247  21364008.824    21364014.7604
  21489359.812   -20556072.532 9 -15995468.70947  21489358.677    21489365.0774
  23386328.130   -10477426.302 8  -8142103.19045  23386327.462    23386335.5054
  23908928.001    -7478634.945 8  -5559686.43245  23908927.934    23908935.2884
  20226502.986   -26390410.119 9 -19765161.56348  20226502.054    20226506.7304
 01  6  7  3 30  0.0000000  0  6 25 01 22 11 13 20
  22666713.935   -13993915.649 8 -10597716.15446  22666713.531    22666718.9784
  21356879.958   -22894436.030 9 -17263060.05047  21356879.230    21356885.1244
  21477700.290   -20617343.369 8 -16043212.14847  21477699.168    21477705.5524
  23403344.286   -10388006.582 8  -8072425.57845  23403343.592    23403351.5554
  23895022.979    -7551706.447 8  -5616625.12145  23895022.981    23895030.0624
  20223298.842   -26407247.791 9 -19778281.82348  20223297.922    20223302.6344
 01  6  7  3 30 30.0000000  0  6 25 01 22 11 13 20
  22682098.765   -13913067.951 8 -10534717.98646  22682098.330    22682103.8184
  21349778.335   -22931755.126 9 -17292139.83947  21349777.597    21349783.4654
  21466132.645   -20678131.423 9 -16090579.39047  21466131.516    21466137.9124
  23420381.749   -10298474.871 8  -8002660.69645  23420381.017    23420388.9924
  23881127.712    -7624726.231 8  -5673523.52645  23881127.739    23881134.7244
  20220190.745   -26423581.036 9 -19791009.02548  20220189.814    20220194.5014
 01  6  7  3 31  0.0000000  0  6 25 01 22 11 13 20
  22697513.943   -13832060.629 8 -10471595.42546  22697513.548    22697519.0384
  21342705.010   -22968925.497 9 -17321103.74747  21342704.283    21342710.1764
  21454657.632   -20738432.576 9 -16137567.25247  21454656.531    21454662.9134
  23437440.128   -10208832.980 8  -7932809.96745  23437439.419    23437447.3554
  23867242.665    -7697692.751 8  -5730380.43145  23867242.622    23867249.4384
  20217179.163   -26439406.911 9 -19803340.87648  20217178.249    20217182.9364
 01  6  7  3 31 30.0000000  0  6 25 01 22 11 13 20
  22712959.006   -13750896.851 8 -10408350.94846  22712958.586    22712964.0194
  21335659.796   -23005948.345 9 -17349952.69247  21335659.081    21335664.9934
  21443275.769   -20798244.742 9 -16184174.07247  21443274.590    21443280.9594
  23454518.525   -10119085.117 8  -7862876.67545  23454517.955    23454525.8834
  23853367.367    -7770607.343 8  -5787196.87845  23853367.278    23853374.1634
  20214264.158   -26454725.332 9 -19815277.30148  20214263.227    20214267.9344
 01  6  7  3 32  0.0000000  0  6 25 01 22 11 13 20
  22728433.476   -13669578.370 8 -10344985.92246  22728433.023    22728438.4804
  21328642.680   -23042823.624 9 -17378686.64347  21328641.938    21328647.7934
  21431987.378   -20857565.196 8 -16230397.73147  21431986.195    21431992.5834
  23471616.784   -10029234.015 8  -7792862.92345  23471616.158    23471624.0814
  23839501.969    -7843470.194 8  -5843973.00945  23839501.867    23839508.7344
  20211445.938   -26469535.157 9 -19826817.42448  20211445.018    20211449.6964
 01  6  7  3 32 30.0000000  0  6 25 01 22 11 13 20
  22743937.208   -13588106.009 8 -10281500.98646  22743936.730    22743942.2354
  21321653.837   -23079550.058 9 -17407304.61647  21321653.097    21321658.9514
  21420793.225   -20916390.385 9 -16276235.47547  21420792.114    21420798.4804
  23488734.143    -9939281.568 8  -7722770.20245  23488733.598    23488741.5284
  23825646.684    -7916279.864 8  -5900707.68745  23825646.548    23825653.5084
  20208725.018   -26483833.652 9 -19837959.10448  20208724.081    20208728.7784
 01  6  7  3 33  0.0000000  0  6 25 01 22 11 13 20
  22759469.568   -13506483.179 8 -10217898.80346  22759469.107    22759474.6084
  21314693.063   -23116129.021 9 -17435807.67047  21314692.316    21314698.1604
  21409693.584   -20974719.426 8 -16321686.61147  21409692.408    21409698.7784
  23505870.108    -9849232.215 8  -7652601.97445  23505869.486    23505877.4214
  23811801.225    -7989037.743 8  -5957402.01345  23811801.103    23811808.1234
  20206101.351   -26497621.124 9 -19848702.58548  20206100.428    20206105.1164
 01  6  7  3 33 30.0000000  0  6 25 01 22 11 13 20
  22775030.255   -13424711.106 8 -10154180.33246  22775029.785    22775035.3314
  21307760.523   -23152559.431 9 -17464194.97747  21307759.795    21307765.6484
  21398688.977   -21032548.374 9 -16366748.06947  21398687.857    21398694.2154
  23523024.006    -9759087.957 8  -7582359.79245  23523023.449    23523031.4244
  23797965.750    -8061743.031 8  -6014055.37345  23797965.611    23797972.6284
  20203575.346   -26510895.405 9 -19859046.17948  20203574.417    20203579.1024
 01  6  7  3 34  0.0000000  0  6 25 01 22 11 13 20
  22790619.394   -13342789.663 8 -10090345.44646  22790618.963    22790624.4574
  21300856.671   -23188839.437 9 -17492465.08447  21300855.924    21300861.7454
  21387780.544   -21089872.254 9 -16411415.96147  21387779.469    21387785.7724
  23540195.774    -9668849.932 8  -7512044.55445  23540195.212    23540203.3074
  23784140.672    -8134393.755 8  -6070666.22845  23784140.582    23784147.5414
  20201147.610   -26523653.214 9 -19868987.32348  20201146.677    20201151.3634
 01  6  7  3 34 30.0000000  0  6 25 01 22 11 13 20
  22806235.559   -13260726.018 8 -10026399.78046  22806235.092    22806240.6534
  21293980.389   -23224974.170 9 -17520621.99847  21293979.655    21293985.5244
  21376967.781   -21146693.799 9 -16455692.42947  21376966.674    21376972.9404
  23557383.794    -9578526.258 8  -7441662.58645  23557383.293    23557391.4444
  23770325.078    -8206995.150 8  -6127238.63445  23770324.937    23770331.8864
  20198817.404   -26535898.681 9 -19878529.24748  20198816.440    20198821.1324
 01  6  7  3 35  0.0000000  0  6 25 01 22 11 13 20
  22821879.265   -13178517.433 8  -9962341.16046  22821878.832    22821884.4334
  21287132.764   -23260958.578 9 -17548661.76847  21287132.045    21287137.9164
  21366251.874   -21203006.040 9 -16499572.04347  21366250.733    21366257.0294
  23574588.668    -9488115.081 8  -7371212.43745  23574588.062    23574596.1714
  23756519.617    -8279542.310 8  -6183768.78245  23756519.515    23756526.4004
  20196585.818   -26547625.576 9 -19887667.08448  20196584.895    20196589.5674
 01  6  7  3 35 30.0000000  0  6 25 01 22 11 13 20
  22837549.926   -13096167.269 8  -9898172.22846  22837549.533    22837555.1184
  21280313.511   -23296794.000 9 -17576585.45547  21280312.786    21280318.6374
  21355633.017   -21258807.982 9 -16543054.02047  21355631.924    21355638.1784
  23591809.235    -9397620.880 8  -7300697.59245  23591808.591    23591816.7604
  23742724.239    -8352036.993 8  -6240258.04645  23742724.144    23742730.9674
  20194452.858   -26558834.306 9 -19896401.15548  20194451.902    20194456.6034
 01  6  7  3 36  0.0000000  0  6 25 01 22 11 13 20
  22853247.377   -13013676.703 8  -9833893.88246  22853247.006    22853252.6064
  21273522.692   -23332479.782 9 -17604392.53847  21273521.967    21273527.8224
  21345112.086   -21314095.951 9 -16586135.49347  21345110.927    21345117.1664
  23609044.985    -9307046.125 8  -7230119.96245  23609044.469    23609052.6424
  23728939.153    -8424478.045 8  -6296705.50045  23728939.007    23728945.8924
  20192418.841   -26569523.246 9 -19904730.19448  20192417.900    20192422.5774
 01  6  7  3 36 30.0000000  0  6 25 01 22 11 13 20
  22868970.893   -12931048.967 8  -9769508.65646  22868970.521    22868976.1464
  21266760.127   -23368017.028 9 -17632083.88047  21266759.409    21266765.2384
  21334689.172   -21368868.301 9 -16628815.18947  21334688.033    21334694.2754
  23626295.625    -9216394.717 8  -7159482.62745  23626295.006    23626303.1604
  23715163.972    -8496866.738 8  -6353112.18145  23715163.804    23715170.6194
  20190483.773   -26579692.034 9 -19912653.92048  20190482.820    20190487.4974
 01  6  7  3 37  0.0000000  0  6 25 01 22 11 13 20
  22884720.312   -12848285.314 8  -9705017.52046  22884719.958    22884725.5624
  21260025.978   -23403405.188 9 -17659659.04547  21260025.261    21260031.0414
  21324364.885   -21423122.431 9 -16671091.07847  21324363.751    21324369.9714
  23643560.362    -9125669.125 8  -7088787.47045  23643559.594    23643567.7874
  23701398.746    -8569202.889 8  -6409477.92745  23701398.624    23701405.5314
  20188647.905   -26589339.484 9 -19920171.40548  20188646.941    20188651.6304
 01  6  7  3 37 30.0000000  0  6 25 01 22 11 13 20
  22900495.281   -12765387.144 8  -9640421.55746  22900494.937    22900500.5914
  21253320.295   -23438643.799 9 -17687117.67547  21253319.573    21253325.3224
  21314139.713   -21476855.840 9 -16712961.20947  21314138.599    21314144.8044
  23660838.431    -9034871.977 8  -7018036.56645  23660837.673    23660846.0774
  23687643.674    -8641485.783 8  -6465802.15145  23687643.556    23687650.5304
  20186911.561   -26598463.992 9 -19927281.40548  20186910.613    20186915.2764
 01  6  7  3 38  0.0000000  0  6 25 01 22 11 13 20
  22916295.385   -12682357.162 8  -9575722.88646  22916294.989    22916300.7014
  21246642.970   -23473733.218 9 -17714460.04947  21246642.226    21246647.9894
  21304014.132   -21530066.153 9 -16754423.73047  21304012.979    21304019.1744
  23678129.537    -8944006.578 8  -6947232.48145  23678128.913    23678137.2764
  23673898.669    -8713715.841 8  -6522085.21445  23673898.532    23673905.4164
  20185274.904   -26607064.780 9 -19933983.31648  20185273.946    20185278.6254
 01  6  7  3 38 30.0000000  0  6 25 01 22 11 13 20
  22932120.223   -12599196.525 8  -9510922.40046  22932119.914    22932125.6774
  21239994.166   -23508672.703 9 -17741685.59847  21239993.439    21239999.1864
  21293988.631   -21582750.139 9 -16795476.13947  21293987.490    21293993.6824
  23695433.201    -8853075.532 8  -6876377.26545  23695432.623    23695440.9714
  23660163.809    -8785892.626 8  -6578326.76645  23660163.669    23660170.5464
  20183738.169   -26615140.324 9 -19940275.94448  20183737.190    20183741.8804
 01  6  7  3 39  0.0000000  0  6 25 01 22 11 13 20
  22947969.647   -12515907.130 8  -9446021.58746  22947969.331    22947975.1374
  21233374.006   -23543461.813 9 -17768793.97947  21233373.272    21233379.0314
  21284063.849   -21634904.935 9 -16836116.18347  21284062.700    21284068.8794
  23712748.799    -8762081.409 8  -6805472.88045  23712748.256    23712756.6944
  23646439.107    -8858016.027 8  -6634526.71945  23646438.901    23646445.8584
  20182301.639   -26622689.294 9 -19946158.25548  20182300.664    20182305.3554
 01  6  7  3 39 30.0000000  0  6 25 01 22 11 13 20
  22963843.288   -12432490.795 8  -9381021.85546  22963842.942    22963848.7274
  21226782.465   -23578100.608 9 -17795785.23647  21226781.725    21226787.4404
  21274240.083   -21686528.894 9 -16876342.59347  21274238.981    21274245.1404
  23730075.923    -8671027.286 8  -6734521.76445  23730075.351    23730083.8974
  23632724.410    -8930086.104 8  -6690685.12445  23632724.246    23632731.1714
  20180965.477   -26629710.911 9 -19951629.63948  20180964.489    20180969.1824
 01  6  7  3 40  0.0000000  0  6 25 01 22 11 13 20
  22979740.512   -12348950.435 8  -9315925.49346  22979740.187    22979745.9434
  21220219.329   -23612590.007 9 -17822660.08747  21220218.589    21220224.3264
  21264517.613   -21737620.688 9 -16916154.33047  21264516.462    21264522.6194
  23747413.772    -8579917.112 8  -6663526.95945  23747413.168    23747421.8004
  23619019.907    -9002103.545 8  -6746802.50245  23619019.633    23619026.5924
  20179729.652   -26636205.146 9 -19956690.08548  20179728.675    20179733.3414
 01  6  7  3 40 30.0000000  0  6 25 01 22 11 13 20
  22995661.288   -12265286.539 8  -9250732.87346  22995660.915    22995666.6004
  21213684.945   -23646928.082 9 -17849417.02847  21213684.232    21213690.0184
  21254897.221   -21788175.711 9 -16955547.80647  21254896.112    21254902.2584
  23764762.084    -8488752.078 8  -6592489.40745  23764761.409    23764769.9894
  23605325.678    -9074066.506 8  -6802877.46245  23605325.514    23605332.4174
  20178594.729   -26642169.176 9 -19961337.37848  20178593.750    20178598.4524
 01  6  7  3 41  0.0000000  0  6 25 01 22 11 13 20
  23011605.120   -12181502.010 8  -9185446.24046  23011604.728    23011610.2704
  21207179.204   -23681115.886 9 -17876056.85947  21207178.496    21207184.2814
  21245379.240   -21838192.679 9 -16994522.01047  21245378.161    21245384.2774
  23782120.075    -8397536.272 8  -6521412.28545  23782119.302    23782127.8474
  23591641.636    -9145976.518 8  -6858911.13545  23591641.436    23591648.2384
  20177560.625   -26647603.341 9 -19965571.79148  20177559.656    20177564.3454
 01  6  7  3 41 30.0000000  0  6 25 01 22 11 13 20
  23027571.484   -12097598.641 8  -9120067.02746  23027571.024    23027576.5824
  21200702.171   -23715153.284 9 -17902579.49747  21200701.430    21200707.1704
  21235964.075   -21887669.483 9 -17033075.31047  21235962.979    21235969.0984
  23799486.823    -8306272.857 8  -6450298.06245  23799486.238    23799494.8484
  23577967.555    -9217833.603 8  -6914903.56445  23577967.453    23577974.1584
  20176627.564   -26652506.612 9 -19969392.51948  20176626.582    20176631.2974
 01  6  7  3 42  0.0000000  0  6 25 01 22 11 13 20
  23043560.048   -12013578.085 8  -9054596.50146  23043559.655    23043565.1894
  21194253.742   -23749039.995 9 -17928984.71647  21194252.994    21194258.7144
  21226652.105   -21936604.032 9 -17071206.08247  21226651.025    21226657.1224
  23816862.403    -8214964.337 8  -6379148.70545  23816861.749    23816870.4244
  23564303.706    -9289637.125 8  -6970854.24545  23564303.473    23564310.2944
  20175795.729   -26656877.850 9 -19972798.67948  20175794.758    20175799.4554
 01  6  7  3 42 30.0000000  0  6 25 01 22 11 13 20
  23059571.035   -11929440.320 8  -8989034.63346  23059570.562    23059576.0724
  21187834.299   -23782774.376 9 -17955271.23847  21187833.578    21187839.2734
  21217444.072   -21984992.415 9 -17108911.26247  21217442.990    21217449.0394
  23834246.310    -8123612.315 8  -6307965.43645  23834245.595    23834254.1514
  23550650.341    -9361385.761 8  -7026762.18445  23550650.104    23550656.8974
  20175065.548   -26660714.777 9 -19975788.48848  20175064.573    20175069.2934
 01  6  7  3 43  0.0000000  0  6 25 01 22 11 13 20
  23075603.553   -11845188.748 8  -8923384.09046  23075603.112    23075608.6224
  21181443.760   -23816356.962 9 -17981439.48147  21181443.012    21181448.7264
  21208340.278   -22032832.696 9 -17146189.35047  21208339.232    21208345.2964
  23851637.878    -8032220.430 8  -6236751.10945  23851637.096    23851645.5324
  23537007.326    -9433080.378 8  -7082628.00145  23537007.089    23537013.6994
  20174437.127   -26664017.286 9 -19978361.86948  20174436.158    20174440.8874
 01  6  7  3 43 30.0000000  0  7 04 25 01 22 11 13 20
  24585453.790    -1431593.499 7   -922962.27245  24585453.914    24585461.8504
  23091656.929   -11760827.925 8  -8857648.41646  23091656.488    23091661.9714
  21175081.485   -23849790.709 9 -18007491.73747  21175080.757    21175086.4794
  21199340.749   -22080125.499 9 -17183040.83447  21199339.673    21199345.7264
  23869035.610    -7940794.486 8  -6165510.24345  23869034.901    23869043.5044
  23523374.013    -9504723.760 8  -7138453.91845  23523373.797    23523380.4034
  20173909.981   -26666787.310 9 -19980520.32848  20173909.004    20173913.7184
 01  6  7  3 44  0.0000000  0  7 04 25 01 22 11 13 20
  24575682.648    -1482940.829 7   -962973.12745  24575682.640    24575690.8314
  23107731.100   -11676357.556 8  -8791827.38546  23107730.661    23107736.2434
  21168747.969   -23883073.433 9 -18033426.31347  21168747.241    21168752.9614
  21190446.062   -22126867.103 9 -17219462.81747  21190444.990    21190451.0494
  23886439.777    -7849335.417 8  -6094243.58945  23886439.082    23886447.6584
  23509750.885    -9576313.774 8  -7194238.23945  23509750.578    23509757.1554
  20173484.694   -26669022.165 9 -19982261.77348  20173483.728    20173488.4454
 01  6  7  3 44 30.0000000  0  7 04 25 01 22 11 13 20
  24566000.211    -1533823.229 7  -1002621.69945  24566000.042    24566008.3554
  23123826.292   -11591776.884 8  -8725920.40246  23123825.868    23123831.4894
  21162443.768   -23916202.264 9 -18059240.97247  21162443.036    21162448.7524
  21181657.217   -22173052.794 9 -17255451.62047  21181656.125    21181662.1484
  23903850.275    -7757843.459 8  -6022951.29145  23903849.530    23903858.1804
  23496138.292    -9647847.648 8  -7249978.84245  23496138.022    23496144.5044
  20173161.914   -26670718.323 9 -19983583.46048  20173160.951    20173165.6744
 01  6  7  3 45  0.0000000  0  7 04 25 01 22 11 13 20
  24556406.293    -1584239.527 7  -1041907.07445  24556406.163    24556414.4264
  23139941.954   -11507088.230 8  -8659929.29346  23139941.572    23139947.1994
  21156168.803   -23949177.374 9 -18084935.84347  21156168.060    21156173.7934
  21172974.531   -22218680.462 9 -17291005.59747  21172973.406    21172979.4334
  23921266.369    -7666322.005 8  -5951636.02145  23921265.643    23921274.3134
  23482536.368    -9719325.932 8  -7305676.08345  23482536.108    23482542.6774
  20172941.787   -26671875.260 9 -19984484.97248  20172940.804    20172945.5274
 01  6  7  3 45 30.0000000  0  7 04 25 01 22 11 13 20
  24546901.178    -1634189.072 7  -1080828.74445  24546901.044    24546909.2104
  23156077.656   -11422293.928 8  -8593855.84146  23156077.331    23156083.0004
  21149922.968   -23981999.429 9 -18110511.45847  21149922.214    21149927.9204
  21164398.375   -22263748.339 9 -17326123.37647  21164397.243    21164403.2484
  23938687.339    -7574774.507 8  -5880300.43645  23938686.602    23938695.4554
  23468945.010    -9790748.938 8  -7361330.28045  23468944.689    23468951.2624
  20172824.258   -26672492.786 9 -19984966.16648  20172823.285    20172827.9944
 01  6  7  3 46  0.0000000  0  7 04 25 01 22 11 13 20
  24537485.117    -1683670.704 7  -1119385.79345  24537484.933    24537493.1734
  23172233.273   -11337395.947 8  -8527701.61346  23172232.877    23172238.5934
  21143706.217   -24014668.423 9 -18135967.79947  21143705.487    21143711.1834
  21155929.071   -22308254.607 9 -17360803.53847  21155927.916    21155933.9314
  23956112.504    -7483204.197 8  -5808947.10145  23956111.889    23956120.8814
  23455364.064    -9862116.831 8  -7416941.51545  23455363.760    23455370.2284
  20172809.487   -26672570.462 9 -19985026.69448  20172808.505    20172813.2414
 01  6  7  3 46 30.0000000  0  7 04 25 01 22 11 13 20
  24528158.452    -1732682.488 7  -1157576.71545  24528158.310    24528166.5574
  23188408.164   -11252396.148 8  -8461468.04846  23188407.759    23188413.5434
  21137518.780   -24047183.527 9 -18161304.22747  21137518.031    21137523.7194
  21147567.014   -22352197.173 9 -17395044.45347  21147565.865    21147571.8614
  23973541.837    -7391613.267 8  -5737577.70045  23973541.122    23973550.1654
  23441793.767    -9933429.153 8  -7472509.44745  23441793.484    23441799.7454
  20172897.642   -26672107.200 9 -19984665.71648  20172896.684    20172901.3824
 01  6  7  3 47  0.0000000  0  7 04 25 01 22 11 13 20
  24518921.290    -1781223.877 7  -1195401.09345  24518921.134    24518929.5464
  23204602.160   -11167296.391 8  -8395156.59046  23204601.778    23204607.4754
  21131360.482   -24079545.424 9 -18186521.28147  21131359.744    21131365.4414
  21139312.530   -22395574.599 9 -17428845.00347  21139311.399    21139317.3614
  23990974.373    -7300005.540 8  -5666195.20145  23990973.585    23990982.7304
  23428233.693   -10004686.900 8  -7528034.86345  23428233.472    23428239.7104
  20173088.762   -26671102.819 9 -19983883.08048  20173087.792    20173092.5124
 01  6  7  3 47 30.0000000  0  7 04 25 01 22 11 13 20
  24509773.927    -1829293.139 7  -1232857.60245  24509773.737    24509782.1304
  23220814.972   -11082098.026 8  -8328768.28546  23220814.545    23220820.2544
  21125231.456   -24111753.295 9 -18211618.30447  21125230.737    21125236.4704
  21131166.173   -22438383.793 9 -17462202.77347  21131165.049    21131171.0014
  24008409.532    -7208383.342 8  -5594801.43845  24008408.744    24008417.9694
  23414684.259   -10075889.250 8  -7583517.10145  23414684.032    23414690.2554
  20173383.065   -26669556.183 9 -19982677.91148  20173382.098    20173386.8184
 01  6  7  3 48  0.0000000  0  7 04 25 01 22 11 13 20
  24500716.734    -1876889.306 8  -1269945.48145  24500716.547    24500724.7964
  23237046.020   -10996803.489 8  -8262305.05546  23237045.598    23237051.2894
  21119131.768   -24143807.421 9 -18236595.52847  21119131.030    21119136.7274
  21123128.230   -22480623.108 9 -17495116.47747  21123127.144    21123133.0854
  24025847.042    -7116750.040 8  -5523399.02645  24025846.172    24025855.3424
  23401145.282   -10147036.226 8  -7638956.22545  23401145.114    23401151.3534
  20173780.657   -26667466.871 9 -19981049.88448  20173779.703    20173784.3974
 01  6  7  3 48 30.0000000  0  7 04 25 01 22 11 13 20
  24491749.763    -1924010.719 7  -1306663.41745  24491749.525    24491757.7154
  23253295.107   -10911414.080 8  -8195767.89446  23253294.659    23253300.3384
  21113061.471   -24175706.924 9 -18261452.26747  21113060.742    21113066.4014
  21115199.199   -22522290.310 9 -17527584.38047  21115198.093    21115204.0344
  24043286.157    -7025107.649 8  -5451989.53945  24043285.389    24043294.4414
  23387617.008   -10218127.197 8  -7694351.66145  23387616.800    23387623.2234
  20174281.707   -26664833.870 9 -19978998.19648  20174280.736    20174285.4364
 01  6  7  3 49  0.0000000  0  7 04 25 01 22 11 13 20
  24482873.382    -1970656.195 7  -1343010.49245  24482873.190    24482881.2784
  23269561.891   -10825931.671 8  -8129158.25246  23269561.438    23269567.1244
  21107020.609   -24207451.881 9 -18286188.57647  21107019.884    21107025.5494
  21107379.311   -22563384.058 9 -17559605.43847  21107378.176    21107384.0884
  24060726.271    -6933459.617 8  -5380575.65845  24060725.506    24060734.6144
  23374099.239   -10289162.760 8  -7749703.96745  23374099.058    23374105.5654
  20174886.297   -26661656.824 9 -19976522.57348  20174885.318    20174890.0324
 01  6  7  3 49 30.0000000  0  7 04 25 01 22 11 13 20
  24474087.910    -2016824.077 7  -1378985.40945  24474087.702    24474095.7684
  23285846.147   -10740357.370 8  -8062477.00746  23285845.705    23285851.3684
  21101009.282   -24239041.640 9 -18310803.94847  21101008.546    21101014.2254
  21099669.096   -22603901.229 9 -17591177.21247  21099667.974    21099673.8944
  24078167.124    -6841807.846 8  -5309158.84545  24078166.342    24078175.5164
  23360592.190   -10360141.997 8  -7805012.35945  23360592.019    23360598.5434
  20175594.712   -26657934.016 9 -19973621.68048  20175593.747    20175598.4744
 01  6  7  3 50  0.0000000  0  7 04 25 01 22 11 13 20
  24465393.313    -2062513.560 8  -1414587.55445  24465393.141    24465401.2774
  23302147.462   -10654693.623 8  -7995726.05046  23302146.970    23302152.6724
  21095027.404   -24270476.536 9 -18335298.63747  21095026.647    21095032.3454
  21092068.877   -22643840.384 9 -17622298.58547  21092067.755    21092073.6494
  24095608.017    -6750156.067 8  -5237742.03745  24095607.268    24095616.4594
  23347095.807   -10431065.356 8  -7860277.20245  23347095.673    23347102.1714
  20176406.888   -26653665.902 9 -19970295.87648  20176405.925    20176410.6374
 01  6  7  3 50 30.0000000  0  7 04 25 01 22 11 13 20
  24456790.176    -2107723.456 8  -1449816.01445  24456789.897    24456798.0834
  23318465.442   -10568941.989 8  -7928906.62046  23318465.003    23318470.6704
  21089075.100   -24301755.946 9 -18359672.16647  21089074.348    21089080.0714
  21084579.089   -22683199.399 9 -17652967.89947  21084577.971    21084583.8434
  24113048.375    -6658506.994 8  -5166327.33345  24113047.594    24113056.8234
  23333610.181   -10501932.173 8  -7915497.99545  23333610.047    23333616.4984
  20177323.019   -26648851.602 9 -19966544.47348  20177322.051    20177326.7774
 01  6  7  3 51  0.0000000  0  7 04 25 01 22 11 13 20
  24448278.577    -2152451.950 7  -1484669.35945  24448278.250    24448286.4254
  23334799.911   -10483103.784 8  -7862019.73546  23334799.504    23334805.1944
  21083152.509   -24332879.166 9 -18383923.99547  21083151.768    21083157.4774
  21077200.056   -22721976.284 9 -17683183.60947  21077198.919    21077204.7754
  24130487.777    -6566862.724 8  -5094916.38645  24130487.151    24130496.3584
  23320135.438   -10572742.495 8  -7970674.76245  23320135.236    23320141.6044
  20178343.289   -26643489.972 9 -19962366.57948  20178342.334    20178347.0634
 01  6  7  3 51 30.0000000  0  7 04 25 01 22 11 13 20
  24439858.780    -2196698.255 7  -1519146.96345  24439858.577    24439866.6104
  23351150.501   -10397181.190 8  -7795067.06546  23351150.094    23351155.6984
  21077259.646   -24363846.294 9 -18408054.20347  21077258.907    21077264.5954
  21069932.086   -22760169.690 9 -17712944.65947  21069930.910    21069936.7814
  24147925.657    -6475226.377 8  -5023511.59645  24147925.049    24147934.3044
  23306671.410   -10643496.134 8  -8025807.35945  23306671.227    23306677.5954
  20179467.774   -26637580.782 9 -19957762.01448  20179466.816    20179471.5404
 01  6  7  3 52  0.0000000  0  7 04 25 01 22 11 13 20
  24431530.989    -2240461.168 8  -1553247.91045  24431530.833    24431538.8244
  23367516.875   -10311175.615 8  -7728049.75946  23367516.445    23367522.0394
  21071396.507   -24394657.205 9 -18432062.68647  21071395.756    21071401.4474
  21062775.604   -22797777.179 9 -17742249.15347  21062774.415    21062780.2884
  24165361.455    -6383600.911 8  -4952115.31545  24165360.939    24165370.1874
  23293218.239   -10714193.143 8  -8080895.83645  23293218.001    23293224.3344
  20180696.523   -26631123.823 9 -19952730.61748  20180695.545    20180700.2724
 01  6  7  3 52 30.0000000  0  7 04 25 01 22 11 13 20
  24423295.340    -2283739.341 8  -1586971.13745  24423295.204    24423303.2514
  23383898.711   -10225088.695 8  -7660969.04846  23383898.284    23383903.9224
  21065563.251   -24425311.160 9 -18455948.86847  21065562.495    21065568.1904
  21055731.050   -22834796.379 9 -17771095.23947  21055729.882    21055735.6954
  24182794.885    -6291988.681 8  -4880729.32845  24182794.310    24182803.4994
  23279775.900   -10784832.689 8  -8135939.53545  23279775.637    23279782.0734
  20182029.686   -26624117.954 9 -19947271.49548  20182028.702    20182033.4274
 01  6  7  3 53  0.0000000  0  7 04 25 01 22 11 13 20
  24415152.203    -2326531.706 7  -1620315.82245  24415152.152    24415160.0154
  23400295.645   -10138922.241 8  -7593826.37246  23400295.263    23400300.8614
  21059759.832   -24455808.186 9 -18479712.75547  21059759.102    21059764.7974
  21048798.670   -22871226.106 9 -17799481.99847  21048797.491    21048803.2804
  24200225.197    -6200392.776 8  -4809356.02745  24200224.593    24200233.7654
  23266344.394   -10855415.298 8  -8190938.87445  23266344.116    23266350.5094
  20183467.323   -26616562.979 9 -19941384.49948  20183466.347    20183471.0884
 01  6  7  3 53 30.0000000  0  7 04 25 01 22 11 13 20
  24407101.868    -2368836.823 8  -1653280.84245  24407101.765    24407109.5584
  23416707.552   -10052677.511 8  -7526622.70146  23416707.131    23416712.7084
  21053986.472   -24486147.372 9 -18503353.65247  21053985.739    21053991.4374
  21041978.834   -22907064.464 9 -17827407.94447  21041977.652    21041983.4614
  24217651.863    -6108815.643 8  -4737997.37345  24217651.199    24217660.3894
  23252923.819   -10925939.929 8  -8245893.03845  23252923.675    23252930.0104
  20185009.667   -26608457.845 9 -19935068.80548  20185008.699    20185013.4434
 01  6  7  3 54  0.0000000  0  7 04 25 01 22 11 13 20
  24399144.220    -2410654.022 8  -1685865.64245  24399144.164    24399151.9854
  23433133.995    -9966356.769 8  -7459359.77646  23433133.440    23433138.9684
  21048243.094   -24516328.879 9 -18526871.69547  21048242.355    21048248.0334
  21035271.745   -22942309.984 9 -17854871.94047  21035270.595    21035276.3784
  24235074.410    -6017260.519 8  -4666655.90045  24235073.637    24235083.1334
  23239514.361   -10996407.140 8  -8300802.44445  23239514.199    23239520.4244
  20186656.691   -26599802.699 9 -19928324.54048  20186655.729    20186660.4684
 01  6  7  3 54 30.0000000  0  7 04 25 01 22 11 13 20
  24391279.865    -2451981.621 7  -1718068.95145  24391279.819    24391287.5834
  23449574.611    -9879960.873 8  -7392038.32746  23449574.078    23449579.6254
  21042529.914   -24546351.902 9 -18550266.24747  21042529.180    21042534.7954
  21028678.078   -22976959.677 9 -17881871.65247  21028676.930    21028682.7184
  24252492.342    -5925729.425 8  -4595333.13545  24252491.578    24252500.9924
  23226115.801   -11066816.298 8  -8355666.63045  23226115.664    23226121.8814
  20188408.609   -26590596.388 9 -19921150.79148  20188407.646    20188412.3714
 01  6  7  3 55  0.0000000  0  7 04 25 01 22 11 13 20
  24383508.663    -2492818.995 8  -1749890.27345  24383508.679    24383516.2654
  23466029.209    -9793491.614 8  -7324659.69846  23466028.687    23466034.1904
  21036846.863   -24576216.501 9 -18573537.34547  21036846.105    21036851.7094
  21022198.092   -23011012.247 9 -17908406.07947  21022196.936    21022202.6944
  24269905.015    -5834225.376 8  -4524031.45445  24269904.355    24269913.6714
  23212728.472   -11137167.268 8  -8410485.46446  23212728.332    23212734.4364
  20190265.418   -26580838.720 9 -19913547.41348  20190264.461    20190269.2004
 01  6  7  3 55 30.0000000  0  7 04 25 01 22 11 13 20
  24375831.186    -2533164.780 8  -1781328.51245  24375831.003    24375838.7094
  23482497.358    -9706950.849 8  -7257225.35946  23482496.807    23482502.3584
  21031193.994   -24605922.223 9 -18596684.63947  21031193.258    21031198.8624
  21015831.872   -23044466.513 9 -17934474.29847  21015830.743    21015836.4894
  24287312.168    -5742751.162 8  -4452753.02645  24287311.434    24287320.8444
  23199352.188   -11207459.661 8  -8465258.66245  23199352.013    23199358.1644
  20192227.172   -26570529.542 9 -19905514.29048  20192226.213    20192230.9404
 01  6  7  3 56  0.0000000  0  7 04 25 01 22 11 13 20
  24368247.344    -2573018.031 8  -1812382.96645  24368247.164    24368254.7994
  23498978.887    -9620339.880 8  -7189736.29846  23498978.316    23498983.9914
  21025571.483   -24635468.769 9 -18619707.89947  21025570.740    21025576.3204
  21009579.868   -23077320.793 9 -17960074.99447  21009578.751    21009584.5104
  24304713.023    -5651309.297 8  -4381499.78345  24304712.348    24304721.7654
  23185987.046   -11277693.580 8  -8519986.30746  23185986.846    23185993.0144
  20194294.047   -26559668.166 9 -19897050.88148  20194293.082    20194297.7984
 01  6  7  3 56 30.0000000  0  7 04 25 01 22 11 13 20
  24360757.521    -2612377.204 8  -1843052.43045  24360757.369    24360764.9724
  23515473.379    -9533660.293 8  -7122193.76746  23515472.827    23515478.6604
  21019979.404   -24664855.346 9 -18642606.50847  21019978.652    21019984.2114
  21003442.625   -23109572.516 9 -17985206.16447  21003441.470    21003447.1964
  24322107.250    -5559902.257 7  -4310273.68345  24322106.447    24322116.1264
  23172633.170   -11347868.254 8  -8574667.78245  23172632.960    23172639.0934
  20196466.125   -26548253.688 9 -19888156.48448  20196465.148    20196469.8744
 01  6  7  3 57  0.0000000  0  7 04 25 01 22 11 13 20
  24353361.768    -2651242.433 8  -1873337.00445  24353361.609    24353369.3494
  23531980.468    -9446914.659 8  -7054599.78746  23531979.900    23531985.8534
  21014417.658   -24694082.420 9 -18665380.81947  21014416.902    21014422.4944
  20997420.086   -23141220.726 9 -18009867.06247  20997418.979    20997424.6624
  24339494.381    -5468533.689 7  -4239077.56645  24339493.609    24339503.1714
  23159290.546   -11417984.018 8  -8629303.34945  23159290.367    23159296.3604
  20198743.396   -26536286.731 9 -19878831.58848  20198742.432    20198747.1394
 01  6  7  3 57 30.0000000  0  7 04 25 01 22 11 13 20
  24346060.301    -2689611.697 8  -1903235.08645  24346060.073    24346067.8764
  23548500.081    -9360103.421 8  -6986954.68446  23548499.523    23548505.5614
  21008886.514   -24723148.797 9 -18688029.92047  21008885.761    21008891.3304
  20991512.900   -23172263.032 9 -18034055.83047  20991511.799    20991517.4864
  24356873.741    -5377205.256 7  -4167912.73145  24356872.998    24356882.5234
  23145959.250   -11488040.050 8  -8683892.36545  23145959.006    23145964.9534
  20201125.989   -26523766.128 9 -19869075.27448  20201125.002    20201129.7294
 01  6  7  3 58  0.0000000  0  7 04 25 01 22 11 13 20
  24338853.229    -2727484.629 8  -1932746.42145  24338852.983    24338860.9524
  23565031.820    -9273228.413 8  -6919259.88046  23565031.308    23565037.3014
  21003385.925   -24752054.580 9 -18710553.89447  21003385.149    21003390.6924
  20985721.133   -23202698.869 9 -18057772.02147  20985720.028    20985725.7094
  24374244.727    -5285920.151 7  -4096781.65245  24374244.072    24374253.6994
  23132639.319   -11558036.361 8  -8738434.85245  23132639.017    23132645.0404
  20203613.904   -26510691.974 9 -19858887.62448  20203612.920    20203617.6374
 01  6  7  3 58 30.0000000  0  7 04 25 01 22 11 13 20
  24331740.925    -2764860.150 7  -1961870.21145  24331740.707    24331748.4314
  23581575.320    -9186291.552 8  -6851516.89346  23581574.835    23581580.8154
  20997915.931   -24780799.277 9 -18732952.34447  20997915.176    20997920.7434
  20980045.090   -23232526.527 9 -18081014.32047  20980043.968    20980049.6374
  24391607.218    -5194681.147 8  -4025686.48545  24391606.561    24391616.0224
  23119330.755   -11627973.009 8  -8792930.85646  23119330.481    23119336.4574
  20206207.213   -26497064.084 9 -19848268.49548  20206206.244    20206210.9394
 01  6  7  3 59  0.0000000  0  7 04 25 01 22 11 13 20
  24324723.351    -2801737.232 7  -1990605.57745  24324723.175    24324731.0474
  23598130.352    -9099293.996 8  -6783726.60746  23598129.924    23598135.8104
  20992476.746   -24809382.385 9 -18755224.87647  20992475.991    20992481.5424
  20974485.205   -23261743.821 9 -18103780.99747  20974484.057    20974489.7134
  24408960.397    -5103490.793 7  -3954629.24645  24408959.669    24408969.2474
  23106033.640   -11697849.408 8  -8847379.89546  23106033.386    23106039.2744
  20208906.015   -26482881.767 9 -19837217.33448  20208905.046    20208909.7624
 01  6  7  3 59 30.0000000  0  8 04 25 01 22 11 27 13 20
  24317800.961    -2838114.948 7  -2018951.83045  24317800.747    24317808.5344
  23614696.709    -9012237.433 8  -6715890.34646  23614696.325    23614702.1744
  20987068.421   -24837803.380 9 -18777371.07947  20987067.675    20987073.1994
  20969041.716   -23290349.147 9 -18126070.82847  20969040.575    20969046.2324
  24426303.546    -5012351.498 7  -3883611.78445  24426303.033    24426312.6594
  24975725.171    -6525954.069 7  -4797305.51745  24975724.418    24975736.0534
  23092748.048   -11767665.406 8  -8901781.87346  23092747.843    23092753.5994
  20211710.381   -26468144.881 9 -19825734.05248  20211709.405    20211714.1004
 01  6  7  4  0  0.0000000  0  8 04 25 01 22 11 27 13 20
  24310972.704    -2873997.348 7  -2046912.11045  24310972.305    24310980.4454
  23631273.096    -8925128.369 8  -6648013.16546  23631272.640    23631278.4664
  20981690.056   -24866066.766 9 -18799394.48047  20981689.309    20981694.8384
  20963713.997   -23318346.380 9 -18147886.81047  20963712.874    20963718.5234
  24443635.773    -4921270.879 7  -3812640.07845  24443635.103    24443644.8814
  24959306.285    -6612235.280 7  -4864537.40845  24959305.483    24959316.8614
  23079473.168   -11837425.459 8  -8956140.26946  23079472.924    23079478.6294
  20214619.300   -26452858.163 9 -19813822.32648  20214618.341    20214623.0334
 01  6  7  4  0 30.0000000  0  9 04 25 01 28 22 11 27 13 20
  24304239.645    -2909379.481 8  -2074482.57645  24304239.256    24304247.4874
  23647859.958    -8837964.344 8  -6580093.17146  23647859.458    23647865.2264
  20976342.459   -24894168.277 9 -18821291.73447  20976341.731    20976347.2484
  24716469.756    -4712232.451 8  -3346701.42445  24716468.475    24716479.7094
  20958502.948   -23345730.453 9 -18169225.01047  20958501.791    20958507.4574
  24460956.978    -4830247.775 7  -3741713.16045  24460956.401    24460966.3254
  24942911.439    -6698389.491 7  -4931670.38545  24942910.393    24942921.8284
  23066209.652   -11907125.538 8  -9010451.93146  23066209.395    23066215.0204
  20217633.717   -26437017.354 9 -19801478.84648  20217632.744    20217637.4434
 01  6  7  4  1  0.0000000  0  9 04 25 01 28 22 11 27 13 20
  24297602.782    -2944256.582 8  -2101659.50145  24297602.461    24297610.4704
  23664457.734    -8750742.484 8  -6512128.08646  23664457.278    23664462.9984
  20971026.591   -24922103.224 9 -18843059.19647  20971025.871    20971031.3764
  24696269.523    -4818383.326 7  -3429416.03345  24696268.459    24696279.5294
  20953409.759   -23372495.126 9 -18190080.55847  20953408.627    20953414.2734
  24478267.517    -4739280.565 7  -3670829.80745  24478266.928    24478277.0174
  24926541.659    -6784411.370 7  -4998700.17845  24926540.886    24926552.1894
  23052958.320   -11976760.750 8  -9064713.02746  23052958.160    23052963.7504
  20220754.407   -26420618.143 9 -19788700.24448  20220753.424    20220758.1164
 01  6  7  4  1 30.0000000  0  9 04 25 01 28 22 11 27 13 20
  24291061.775    -2978629.188 7  -2128443.33145  24291061.718    24291069.5224
  23681065.803    -8663466.168 8  -6444120.56846  23681065.430    23681071.1254
  20965742.178   -24949872.937 9 -18864697.91147  20965741.429    20965746.9384
  24676060.769    -4924578.437 7  -3512165.11045  24676059.940    24676070.9174
  20948434.424   -23398640.468 9 -18210453.51247  20948433.292    20948438.9424
  24495566.746    -4648373.611 7  -3599993.44845  24495566.063    24495576.0534
  24910197.006    -6870301.972 7  -5065627.70545  24910196.400    24910207.7964
  23039719.077   -12046332.716 8  -9118924.87545  23039718.944    23039724.4954
  20223981.050   -26403661.971 9 -19775487.64448  20223980.080    20223984.7854
 01  6  7  4  2  0.0000000  0  9 04 25 01 28 22 11 27 13 20
  24284617.003    -3012496.990 7  -2154833.81145  24284616.849    24284624.5874
  23697683.893    -8576137.333 8  -6376072.15545  23697683.456    23697689.3094
  20960489.258   -24977477.229 9 -18886207.72347  20960488.496    20960494.0054
  24655843.983    -5030815.806 7  -3594947.11845  24655843.425    24655854.2664
  20943577.127   -23424165.567 9 -18230343.16347  20943576.004    20943581.6454
  24512853.667    -4557529.956 7  -3529206.36545  24512853.204    24512863.1474
  24893877.409    -6956060.980 7  -5132452.68145  24893876.906    24893887.9684
  23026491.845   -12115841.762 8  -9173087.69246  23026491.711    23026497.2204
  20227313.659   -26386149.130 9 -19761841.28048  20227312.683    20227317.3724
 01  6  7  4  2 30.0000000  0  9 04 25 01 28 22 11 27 13 20
  24278268.243    -3045859.900 7  -2180830.84745  24278268.095    24278275.8684
  23714311.641    -8488757.808 8  -6307984.23645  23714311.204    23714317.0444
  20955267.690   -25004916.348 9 -18907588.82347  20955266.951    20955272.4934
  24635619.696    -5137093.574 7  -3677760.62945  24635619.226    24635630.0224
  20938837.938   -23449070.282 9 -18249749.39847  20938836.765    20938842.4074
  24530128.072    -4466753.096 8  -3458471.33145  24530127.646    24530137.7304
  24877582.928    -7041688.140 7  -5199174.90145  24877582.289    24877593.4244
  23013276.576   -12185288.346 8  -9227201.82946  23013276.431    23013281.9684
  20230752.047   -26368080.150 9 -19747761.56048  20230751.092    20230755.7684
